[[{"header":{"parameterUnit":"m.s-1","parameterCategory":1,"la1":30.6,"la2":28.766,"lo1":-90.7593,"lo2":-88.6598,"dy":0.0162,"dx":0.0183,"nx":116,"ny":114,"refTime":"2023-06-11T12:00:00:Z","depth":0,"parameterNumber":2,"parameterNumberName":"U-component_of_WINDS"},"data":[0.0,0.0,0.0,0.0,0.0,0.0,0.0,0.0,0.0,0.0,0.0,0.0,0.0,0.0,0.0,0.0,0.0,0.0,0.0,0.0,0.0,0.0,0.0,0.0,0.0,0.0,0.0,0.0,0.0,0.0,0.0,0.0,0.0,0.0,0.0,0.0,0.0,0.0,0.0,0.0,0.0,0.0,0.0,0.0,0.0,0.0,0.0,0.0,0.0,0.0,0.0,0.0,0.0,0.0,0.0,0.0,0.0,0.0,0.0,0.0,0.0,0.0,0.0,0.0,0.0,0.0,0.0,0.0,0.0,0.0,0.0,0.0,0.0,0.0,0.0,0.0,0.0,0.0,0.0,0.0,0.0,0.0,0.0,0.0,0.0,0.0,0.0,0.0,0.0,0.0,0.0,0.0,0.0,0.0,0.0,0.0,0.0,0.0,0.0,0.0,0.0,0.0,0.0,0.0,0.0,0.0,0.0,0.0,0.0,0.0,0.0,0.0,0.0,0.0,0.0,0.0,0.0,0.0,0.0,0.0,0.0,0.0,0.0,0.0,0.0,0.0,0.0,0.0,0.0,0.0,0.0,0.0,0.0,0.0,0.0,0.0,0.0,0.0,0.0,0.0,0.0,0.0,0.0,0.0,0.0,0.0,0.0,0.0,0.0,0.0,0.0,0.0,0.0,0.0,0.0,0.0,0.0,0.0,0.0,0.0,0.0,0.0,0.0,0.0,0.0,0.0,0.0,0.0,0.0,0.0,0.0,0.0,0.0,0.0,0.0,0.0,0.0,0.0,0.0,0.0,0.0,0.0,0.0,0.0,0.0,0.0,0.0,0.0,0.0,0.0,0.0,0.0,0.0,0.0,0.0,0.0,0.0,0.0,0.0,0.0,0.0,0.0,0.0,0.0,0.0,0.0,0.0,0.0,0.0,0.0,0.0,0.0,0.0,0.0,0.0,0.0,0.0,0.0,0.0,0.0,0.0,0.0,0.0,0.0,0.0,0.0,0.0,0.0,0.0,0.0,0.0,0.0,0.0,0.0,0.0,0.0,0.0,0.0,0.0,0.0,0.0,0.0,0.0,0.0,0.0,0.0,0.0,0.0,0.0,0.0,0.0,0.0,0.0,0.0,0.0,0.0,0.0,0.0,0.0,0.0,0.0,0.0,0.0,0.0,0.0,0.0,0.0,0.0,0.0,0.0,0.0,0.0,0.0,0.0,0.0,0.0,0.0,0.0,0.0,0.0,0.0,0.0,0.0,0.0,0.0,0.0,0.0,0.0,0.0,0.0,0.0,0.0,0.0,0.0,0.0,0.0,0.0,0.0,0.0,0.0,0.0,0.0,0.0,0.0,0.0,0.0,0.0,0.0,0.0,0.0,0.0,0.0,0.0,0.0,0.0,0.0,0.0,0.0,0.0,0.0,0.0,0.0,0.0,0.0,0.0,0.0,0.0,0.0,0.0,0.0,0.0,0.0,0.0,0.0,0.0,0.0,0.0,0.0,0.0,0.0,0.0,0.0,0.0,0.0,0.0,0.0,0.0,0.0,0.0,0.0,0.0,0.0,0.0,0.0,0.0,0.0,0.0,0.0,0.0,0.0,0.0,0.0,0.0,0.0,0.0,0.0,0.0,0.0,0.0,0.0,0.0,0.0,0.0,0.0,0.0,0.0,0.0,0.0,0.0,0.0,0.0,0.0,0.0,0.0,0.0,0.0,0.0,0.0,0.0,0.0,0.0,0.0,0.0,0.0,0.0,0.0,0.0,0.0,0.0,0.0,0.0,0.0,0.0,0.0,0.0,0.0,0.0,0.0,0.0,0.0,0.0,0.0,0.0,0.0,0.0,0.0,0.0,0.0,0.0,0.0,0.0,0.0,0.0,0.0,0.0,0.0,0.0,0.0,0.0,0.0,0.0,0.0,0.0,0.0,0.0,0.0,0.0,0.0,0.0,0.0,0.0,0.0,0.0,0.0,0.0,0.0,0.0,0.0,0.0,0.0,0.0,0.0,0.0,0.0,0.0,0.0,0.0,0.0,0.0,0.0,0.0,0.0,0.0,0.0,0.0,0.0,0.0,0.0,0.0,0.0,0.0,0.0,0.0,0.0,0.0,0.0,0.0,0.0,0.0,0.0,0.0,0.0,0.0,0.0,0.0,0.0,0.0,0.0,0.0,0.0,0.0,0.0,0.0,0.0,0.0,0.0,0.0,0.0,0.0,0.0,0.0,0.0,0.0,0.0,0.0,0.0,0.0,0.0,0.0,0.0,0.0,0.0,0.0,0.0,0.0,0.0,0.0,0.0,0.0,0.0,0.0,0.0,0.0,0.0,0.0,0.0,0.0,0.0,0.0,0.0,0.0,0.0,0.0,0.0,0.0,0.0,0.0,0.0,0.0,0.0,0.0,0.0,0.0,0.0,0.0,0.0,0.0,0.0,0.0,0.0,0.0,0.0,0.0,0.0,0.0,0.0,0.0,0.0,0.0,0.0,0.0,0.0,0.0,0.0,0.0,0.0,0.0,0.0,0.0,0.0,0.0,0.0,0.0,0.0,0.0,0.0,0.0,0.0,0.0,0.0,0.0,0.0,0.0,0.0,0.0,0.0,0.0,0.0,0.0,0.0,0.0,0.0,0.0,0.0,0.0,0.0,0.0,0.0,0.0,0.0,0.0,0.0,0.0,0.0,0.0,0.0,0.0,0.0,0.0,0.0,0.0,0.0,0.0,0.0,0.0,0.0,0.0,0.0,0.0,0.0,0.0,0.0,0.0,0.0,0.0,0.0,0.0,0.0,0.0,0.0,0.0,0.0,0.0,0.0,0.0,0.0,0.0,0.0,0.0,0.0,0.0,0.0,0.0,0.0,0.0,0.0,0.0,0.0,0.0,0.0,0.0,0.0,0.0,0.0,0.0,0.0,0.0,0.0,0.0,0.0,0.0,0.0,0.0,0.0,0.0,0.0,0.0,0.0,0.0,0.0,0.0,0.0,0.0,0.0,0.0,0.0,0.0,0.0,0.0,0.0,0.0,0.0,0.0,0.0,0.0,0.0,0.0,0.0,0.0,0.0,0.0,0.0,0.0,0.0,0.0,0.0,0.0,0.0,0.0,0.0,0.0,0.0,0.0,0.0,0.0,0.0,0.0,0.0,0.0,0.0,0.0,0.0,0.0,0.0,0.0,0.0,0.0,0.0,0.0,0.0,0.0,0.0,0.0,0.0,0.0,0.0,0.0,0.0,0.0,0.0,0.0,0.0,0.0,0.0,0.0,0.0,0.0,0.0,0.0,0.0,0.0,0.0,0.0,0.0,0.0,0.0,0.0,0.0,0.0,0.0,0.0,0.0,0.0,0.0,0.0,0.0,0.0,0.0,0.0,0.0,0.0,0.0,0.0,0.0,0.0,0.0,0.0,0.0,0.0,0.0,0.0,0.0,0.0,0.0,0.0,0.0,0.0,0.0,0.0,0.0,0.0,0.0,0.0,0.0,0.0,0.0,0.0,0.0,0.0,0.0,0.0,0.0,0.0,0.0,0.0,0.0,0.0,0.0,0.0,0.0,0.0,0.0,0.0,0.0,0.0,0.0,0.0,0.0,0.0,0.0,0.0,0.0,0.0,0.0,0.0,0.0,0.0,0.0,0.0,0.0,0.0,0.0,0.0,0.0,0.0,0.0,0.0,0.0,0.0,0.0,0.0,0.0,0.0,0.0,0.0,0.0,0.0,0.0,0.0,0.0,0.0,0.0,0.0,0.0,0.0,0.0,0.0,0.0,0.0,0.0,0.0,0.0,0.0,0.0,0.0,0.0,0.0,0.0,0.0,0.0,0.0,0.0,0.0,0.0,0.0,0.0,0.0,0.0,0.0,0.0,0.0,0.0,0.0,0.0,0.0,0.0,0.0,0.0,0.0,0.0,0.0,0.0,0.0,0.0,0.0,0.0,0.0,0.0,0.0,0.0,0.0,0.0,0.0,0.0,0.0,0.0,0.0,0.0,0.0,0.0,0.0,0.0,0.0,0.0,0.0,0.0,0.0,0.0,0.0,0.0,0.0,0.0,0.0,0.0,0.0,0.0,0.0,0.0,0.0,0.0,0.0,0.0,0.0,0.0,0.0,0.0,0.0,0.0,0.0,0.0,0.0,0.0,0.0,0.0,0.0,0.0,0.0,0.0,0.0,0.0,0.0,0.0,0.0,0.0,0.0,0.0,0.0,0.0,0.0,0.0,0.0,0.0,0.0,0.0,0.0,0.0,0.0,0.0,0.0,0.0,0.0,0.0,0.0,0.0,0.0,0.0,0.0,0.0,0.0,0.0,0.0,0.0,0.0,0.0,0.0,0.0,0.0,0.0,0.0,0.0,0.0,0.0,0.0,0.0,0.0,0.0,0.0,0.0,0.0,0.0,0.0,0.0,0.0,0.0,0.0,0.0,0.0,0.0,0.0,0.0,0.0,0.0,0.0,0.0,0.0,0.0,0.0,0.0,0.0,0.0,0.0,0.0,0.0,0.0,0.0,0.0,0.0,0.0,0.0,0.0,0.0,0.0,0.0,0.0,0.0,0.0,0.0,0.0,0.0,0.0,0.0,0.0,0.0,0.0,0.0,0.0,0.0,0.0,0.0,0.0,0.0,0.0,0.0,0.0,0.0,0.0,0.0,0.0,0.0,0.0,0.0,0.0,0.0,0.0,0.0,0.0,0.0,0.0,0.0,0.0,0.0,0.0,0.0,0.0,0.0,0.0,0.0,0.0,0.0,0.0,0.0,0.0,0.0,0.0,0.0,0.0,0.0,0.0,0.0,0.0,0.0,0.0,0.0,0.0,0.0,0.0,0.0,0.0,0.0,0.0,0.0,0.0,0.0,0.0,0.0,0.0,0.0,0.0,0.0,0.0,0.0,0.0,0.0,0.0,0.0,0.0,0.0,0.0,0.0,0.0,0.0,0.0,0.0,0.0,0.0,0.0,0.0,0.0,0.0,0.0,0.0,0.0,0.0,0.0,0.0,0.0,0.0,0.0,0.0,0.0,0.0,0.0,0.0,0.0,0.0,0.0,0.0,0.0,0.0,0.0,0.0,0.0,0.0,0.0,0.0,0.0,0.0,0.0,0.0,0.0,0.0,0.0,0.0,0.0,0.0,0.0,0.0,0.0,0.0,0.0,0.0,0.0,0.0,0.0,0.0,0.0,0.0,0.0,0.0,0.0,0.0,0.0,0.0,0.0,0.0,0.0,0.0,0.0,0.0,0.0,0.0,0.0,0.0,0.0,0.0,0.0,0.0,0.0,0.0,0.0,0.0,0.0,0.0,0.0,0.0,0.0,0.0,0.0,0.0,0.0,0.0,0.0,0.0,0.0,0.0,0.0,0.0,0.0,0.0,0.0,0.0,0.0,0.0,0.0,0.0,0.0,0.0,0.0,0.0,0.0,0.0,0.0,0.0,0.0,0.0,0.0,0.0,0.0,0.0,0.0,0.0,0.0,0.0,0.0,0.0,0.0,0.0,0.0,0.0,0.0,0.0,0.0,0.0,0.0,0.0,0.0,0.0,0.0,0.0,0.0,0.0,0.0,0.0,0.0,0.0,0.0,0.0,0.0,0.0,0.0,0.0,0.0,0.0,0.0,0.0,0.0,0.0,0.0,0.0,0.0,0.0,0.0,0.0,0.0,0.0,0.0,0.0,0.0,0.0,0.0,0.0,0.0,0.0,0.0,0.0,0.0,0.0,0.0,0.0,0.0,0.0,0.0,0.0,0.0,0.0,0.0,0.0,0.0,0.0,0.0,0.0,0.0,0.0,0.0,0.0,0.0,0.0,0.0,0.0,0.0,0.0,0.0,0.0,0.0,0.0,0.0,0.0,0.0,0.0,0.0,0.0,0.0,0.0,0.0,0.0,0.0,0.0,0.0,0.0,0.0,0.0,0.0,0.0,0.0,0.0,0.0,0.0,0.0,0.0,0.0,0.0,0.0,0.0,0.0,0.0,0.0,0.0,0.0,0.0,0.0,0.0,0.0,0.0,0.0,0.0,0.0,0.0,0.0,0.0,0.0,0.0,0.0,0.0,0.0,0.0,0.0,0.0,0.0,0.0,0.0,0.0,0.0,0.0,0.0,0.0,0.0,0.0,0.0,0.0,0.0,-5.4662,0.0,0.0,0.0,0.0,0.0,0.0,0.0,0.0,0.0,0.0,0.0,0.0,0.0,0.0,0.0,0.0,0.0,0.0,0.0,0.0,0.0,0.0,0.0,0.0,0.0,0.0,0.0,0.0,0.0,0.0,0.0,0.0,0.0,0.0,0.0,0.0,0.0,0.0,0.0,0.0,0.0,0.0,0.0,0.0,0.0,0.0,0.0,0.0,0.0,0.0,0.0,0.0,0.0,0.0,0.0,0.0,0.0,0.0,0.0,0.0,0.0,0.0,0.0,0.0,0.0,0.0,0.0,0.0,0.0,0.0,0.0,0.0,0.0,0.0,0.0,0.0,0.0,0.0,0.0,0.0,0.0,0.0,0.0,0.0,0.0,0.0,0.0,0.0,0.0,0.0,0.0,0.0,0.0,0.0,0.0,0.0,0.0,0.0,0.0,0.0,0.0,0.0,0.0,0.0,0.0,0.0,0.0,0.0,0.0,0.0,0.0,0.0,0.0,0.0,0.0,0.0,-5.579,0.0,0.0,0.0,0.0,0.0,0.0,0.0,0.0,0.0,0.0,0.0,0.0,0.0,0.0,0.0,0.0,0.0,0.0,0.0,0.0,0.0,0.0,0.0,0.0,0.0,0.0,0.0,0.0,0.0,0.0,0.0,0.0,0.0,0.0,0.0,0.0,0.0,0.0,0.0,0.0,0.0,0.0,0.0,0.0,0.0,0.0,0.0,0.0,0.0,0.0,0.0,0.0,0.0,0.0,0.0,0.0,0.0,0.0,0.0,0.0,0.0,0.0,0.0,0.0,0.0,0.0,0.0,0.0,0.0,0.0,0.0,0.0,0.0,0.0,0.0,0.0,0.0,0.0,0.0,0.0,0.0,0.0,0.0,0.0,0.0,0.0,0.0,0.0,0.0,0.0,0.0,0.0,0.0,0.0,0.0,0.0,0.0,0.0,0.0,0.0,0.0,0.0,0.0,0.0,0.0,0.0,0.0,0.0,-6.3847,-6.4309,-6.5502,-6.3996,-6.3181,-6.2853,-6.0833,-5.9069,-5.7664,-5.7474,0.0,0.0,0.0,0.0,0.0,0.0,0.0,0.0,0.0,0.0,0.0,0.0,0.0,0.0,0.0,0.0,0.0,0.0,0.0,0.0,0.0,0.0,0.0,0.0,0.0,0.0,0.0,0.0,0.0,0.0,0.0,0.0,0.0,0.0,0.0,0.0,0.0,0.0,-5.8321,-5.9641,-6.0283,-6.008,-5.5547,0.0,0.0,0.0,0.0,0.0,0.0,0.0,0.0,0.0,0.0,0.0,0.0,0.0,0.0,0.0,0.0,0.0,0.0,0.0,0.0,0.0,0.0,0.0,0.0,0.0,0.0,0.0,0.0,0.0,0.0,0.0,0.0,0.0,0.0,0.0,0.0,0.0,0.0,0.0,0.0,0.0,0.0,0.0,-5.098,-5.1048,0.0,0.0,0.0,0.0,0.0,0.0,0.0,0.0,0.0,0.0,0.0,0.0,0.0,-6.3226,-6.4783,-6.6733,-6.7895,-6.8359,-6.8629,-6.9111,-6.9742,-6.8363,-6.7966,-6.8349,-6.7672,0.0,-6.0266,-5.9426,0.0,0.0,0.0,0.0,0.0,0.0,0.0,0.0,0.0,0.0,0.0,0.0,0.0,0.0,0.0,0.0,0.0,0.0,0.0,0.0,0.0,0.0,0.0,0.0,0.0,0.0,0.0,0.0,0.0,0.0,0.0,0.0,0.0,0.0,0.0,0.0,-5.7611,-5.9438,-6.0926,-6.1603,-6.1907,-6.1806,-5.9505,-5.7881,-5.6731,-5.5784,0.0,0.0,0.0,0.0,0.0,0.0,0.0,0.0,0.0,0.0,0.0,0.0,0.0,0.0,0.0,0.0,0.0,0.0,0.0,0.0,0.0,0.0,0.0,0.0,0.0,0.0,0.0,0.0,0.0,0.0,0.0,0.0,0.0,0.0,0.0,0.0,0.0,0.0,0.0,-5.1995,-5.3281,-5.1995,-5.3619,-5.4059,0.0,0.0,0.0,0.0,0.0,0.0,0.0,0.0,0.0,-6.441,-6.6305,-6.8166,-7.006,-7.0906,-7.2199,-7.3891,-7.2644,-7.2904,-7.4256,-7.2764,-7.2452,-7.3111,-7.3845,-7.1691,-6.7333,-6.3826,-6.1891,-6.0849,0.0,0.0,0.0,0.0,-6.2018,-6.4106,0.0,0.0,0.0,0.0,0.0,0.0,0.0,0.0,0.0,0.0,0.0,0.0,0.0,0.0,0.0,-5.6455,0.0,0.0,0.0,0.0,0.0,0.0,0.0,0.0,0.0,0.0,0.0,0.0,-6.0825,-6.2685,-6.4377,-6.4783,-6.4952,-6.4952,-6.4749,-6.2381,-5.8457,-5.7476,-5.6258,0.0,0.0,0.0,0.0,0.0,0.0,0.0,0.0,0.0,0.0,0.0,0.0,0.0,0.0,0.0,0.0,0.0,0.0,0.0,0.0,0.0,0.0,0.0,0.0,0.0,0.0,0.0,0.0,0.0,0.0,0.0,0.0,0.0,0.0,0.0,0.0,0.0,0.0,-5.389,-5.5446,-5.3145,-5.6224,-5.7103,0.0,0.0,0.0,0.0,0.0,0.0,-6.2854,-6.458,-6.6948,-7.0094,-7.1853,-7.3815,-7.6014,-7.5916,-7.693,-7.8989,-7.6545,-7.6424,-7.827,-7.6311,-7.5893,-7.6826,-7.7619,-7.6429,-7.35,-6.869,-6.5825,-6.4318,-6.2342,-6.2365,-6.3603,-6.4604,-6.6232,-6.8293,0.0,0.0,0.0,0.0,0.0,0.0,0.0,0.0,0.0,0.0,0.0,0.0,0.0,0.0,-5.8964,-5.9001,-5.9795,-5.9603,0.0,0.0,0.0,0.0,0.0,0.0,0.0,0.0,0.0,-6.1129,-6.4715,-6.7624,-6.9823,-7.1244,-7.1887,-7.1853,-7.1176,-6.7996,-6.2956,-5.937,-5.8186,-5.8423,0.0,0.0,0.0,0.0,0.0,0.0,0.0,0.0,0.0,0.0,0.0,0.0,0.0,0.0,0.0,0.0,0.0,0.0,0.0,0.0,0.0,0.0,0.0,0.0,0.0,0.0,0.0,0.0,0.0,0.0,0.0,0.0,0.0,0.0,0.0,0.0,0.0,0.0,0.0,-5.4735,-5.9607,0.0,0.0,0.0,0.0,-6.096,-6.299,-6.5189,-6.7455,-6.9688,-7.2631,-7.6318,-7.8551,-8.075,-8.2983,-8.2832,-8.2856,-8.2906,-8.0333,-7.994,-8.1379,-7.8162,-7.7569,-7.9069,-7.753,-7.6794,-7.6385,-7.3352,-7.0286,-6.7284,-6.5276,-6.5201,-6.6381,-6.798,-6.9567,-7.1144,0.0,0.0,0.0,0.0,0.0,0.0,0.0,0.0,0.0,0.0,0.0,0.0,0.0,-5.9428,-6.1594,-6.3723,-6.3686,-6.248,-5.9881,0.0,0.0,0.0,0.0,0.0,0.0,0.0,-6.1366,-6.5561,-6.7861,-7.0364,-7.3037,-7.3578,-7.3815,-7.3815,-7.3544,-7.1345,-6.7557,-6.3802,-6.0689,-5.8152,-5.6325,-5.4769,0.0,0.0,0.0,0.0,0.0,0.0,0.0,0.0,0.0,0.0,0.0,0.0,0.0,0.0,0.0,0.0,0.0,0.0,0.0,0.0,0.0,0.0,0.0,0.0,0.0,0.0,0.0,0.0,0.0,0.0,0.0,0.0,0.0,0.0,0.0,0.0,0.0,-6.1129,-6.5865,0.0,-6.3937,-6.4749,-6.5967,-6.6948,-6.9079,-7.1515,-7.4255,-7.6521,-7.8991,-8.1799,-8.3118,-8.4403,-8.5689,-8.505,-8.4129,-8.2885,-8.193,-8.1045,-8.0448,-7.9694,-8.0375,-8.2007,-8.2016,-8.1815,-8.145,-8.1041,-7.762,-7.2426,-7.1131,-7.139,-7.2626,-7.3689,-7.5318,-7.7112,0.0,0.0,0.0,0.0,0.0,0.0,0.0,0.0,0.0,0.0,0.0,-5.5464,-5.9208,-6.2034,-6.464,-6.71,-6.6586,-6.4549,-6.0873,0.0,0.0,0.0,0.0,0.0,0.0,-6.0588,-6.4546,-6.9045,-7.1075,-7.3308,-7.5743,-7.5743,-7.5743,-7.5743,-7.5506,-7.4153,-7.1853,-6.8876,-6.4715,-6.0013,-5.8254,-5.7137,-5.6156,0.0,0.0,0.0,0.0,0.0,0.0,0.0,0.0,0.0,0.0,0.0,0.0,0.0,0.0,0.0,0.0,0.0,0.0,0.0,0.0,0.0,0.0,0.0,0.0,0.0,0.0,0.0,0.0,0.0,0.0,0.0,0.0,0.0,0.0,0.0,-6.6203,-6.644,-7.1109,-7.3105,-7.006,-7.0703,-7.1819,-7.3105,-7.5236,-7.7604,-8.0073,-8.1866,-8.3727,-8.5689,-8.6501,-8.7279,-8.8023,-8.7635,-8.6705,-8.5207,-8.5047,-8.4211,-8.2744,-8.3204,-8.3998,-8.5196,-8.5548,-8.55,-8.5181,-8.5645,-8.3175,-7.8903,-7.7014,-7.6767,-7.7673,-7.8486,-7.9621,-8.0987,0.0,0.0,0.0,0.0,0.0,0.0,0.0,0.0,0.0,0.0,-5.3628,-5.6895,-6.0162,-6.4861,-6.8128,-6.9009,-6.8201,-6.5705,-6.1111,-5.6951,0.0,0.0,0.0,0.0,-5.8084,-6.3869,-6.8402,-7.1447,-7.4322,-7.6521,-7.801,-7.801,-7.801,-7.7976,-7.7299,-7.6521,-7.5642,-7.4187,-7.0195,-6.458,-6.0791,-6.052,-6.1806,0.0,0.0,0.0,0.0,0.0,0.0,0.0,0.0,0.0,0.0,0.0,0.0,0.0,0.0,0.0,0.0,0.0,0.0,0.0,0.0,0.0,0.0,0.0,0.0,0.0,0.0,0.0,0.0,0.0,0.0,0.0,0.0,0.0,-6.025,-6.5527,-6.962,-7.0432,-7.51,-7.713,-7.4187,-7.6589,-7.8619,-7.9329,-8.1426,-8.3287,-8.4742,-8.5554,-8.6636,-8.8091,-8.8835,-8.9545,-9.029,-9.1034,-9.0917,-8.9932,-8.9965,-8.9443,-8.8388,-8.842,-8.8487,-8.8522,-8.7749,-8.7494,-8.7433,-8.6885,-8.6639,-8.6256,-8.2555,-8.1105,-8.1225,-8.2065,-8.2321,-8.2548,0.0,0.0,0.0,0.0,0.0,0.0,0.0,0.0,0.0,0.0,-5.462,-5.8804,-6.2658,-6.688,-7.0477,-7.3046,-6.9302,-6.5814,-6.3391,0.0,0.0,0.0,0.0,0.0,-6.3429,-6.6779,-7.0466,-7.4492,-7.5879,-7.7333,-7.8822,-7.8822,-7.8822,-7.8788,-7.8585,-7.7773,-7.6521,-7.5506,-7.3849,-7.1447,-6.6609,-6.3429,-6.1264,0.0,0.0,0.0,0.0,0.0,0.0,0.0,0.0,0.0,0.0,0.0,0.0,0.0,0.0,0.0,0.0,0.0,0.0,0.0,0.0,0.0,0.0,0.0,0.0,0.0,0.0,0.0,0.0,0.0,0.0,0.0,0.0,-6.5527,-6.573,-7.0906,-7.5574,-7.7942,-8.19,-8.4133,-8.3287,-8.4911,-8.5892,-8.5587,-8.7617,-8.8801,-8.8666,-8.9376,-9.0222,-9.1169,-9.1406,-9.188,-9.2658,-9.3402,-9.2729,-9.0724,-9.1716,-9.1142,-8.9158,-8.9671,-9.0572,-9.1795,-9.1042,-9.1123,-9.1836,-9.1059,-9.0162,-8.8895,-8.6249,-8.5211,-8.5267,-8.5493,-8.5257,-8.4842,0.0,0.0,0.0,0.0,0.0,0.0,0.0,0.0,0.0,0.0,-5.4987,-5.9538,-6.3649,-6.7393,-7.0477,-7.2716,-6.8055,-6.3973,-6.1401,0.0,0.0,0.0,0.0,-6.1806,-6.6508,-6.9451,-7.28,-7.6657,-7.7435,-7.8754,-8.0479,-8.0175,-8.0209,-8.0479,-8.0479,-7.9667,-7.8247,-7.7773,-7.6961,-7.5743,-7.2394,-6.9011,-6.5561,-6.2042,-6.0825,-6.0655,-5.8118,-5.8186,-5.9066,-5.6258,0.0,0.0,0.0,0.0,0.0,0.0,0.0,0.0,0.0,0.0,0.0,0.0,0.0,0.0,0.0,0.0,0.0,0.0,0.0,0.0,0.0,0.0,0.0,0.0,-6.7015,-7.1379,-7.324,-7.6487,-8.004,-8.3659,-8.6027,-8.7854,-8.9106,-8.9715,-9.0087,-9.0324,-9.1541,-9.2083,-9.1643,-9.2015,-9.2455,-9.2895,-9.3199,-9.3605,-9.4045,-9.4789,-9.4772,-9.3915,-9.4449,-9.4274,-9.3467,-9.3532,-9.4154,-9.5086,-9.4382,-9.421,-9.4417,-9.3368,-9.2218,0.0,0.0,0.0,0.0,0.0,-8.6636,-8.623,0.0,0.0,0.0,0.0,0.0,0.0,0.0,0.0,0.0,0.0,0.0,-5.9318,-6.3135,-6.6439,-6.8715,-6.9633,-6.5396,-6.1143,0.0,0.0,0.0,-5.7306,-6.167,-6.5392,-6.8335,-7.1988,-7.527,-7.8111,-7.8957,-8.0344,-8.2272,-8.1697,-8.1765,-8.2408,-8.2408,-8.1663,-8.0445,-8.0276,-7.9431,-7.8179,-7.7333,-7.527,-7.2124,-6.7117,-6.6,-6.6677,-6.3599,-6.1907,-6.0825,-5.8998,0.0,0.0,0.0,0.0,0.0,0.0,0.0,0.0,0.0,0.0,0.0,0.0,0.0,0.0,0.0,0.0,0.0,0.0,0.0,0.0,0.0,0.0,0.0,0.0,-7.1954,-7.6927,-8.1393,-8.2103,-8.3693,-8.7753,-8.8463,-8.9681,-9.2421,-9.2218,-9.2455,-9.374,-9.3977,-9.4011,-9.3842,0.0,0.0,0.0,0.0,-9.5161,-9.533,-9.5905,-9.6819,-9.8138,-9.7461,-9.7766,-9.895,-9.8307,-9.8003,-9.7969,-9.7292,-9.6548,-9.5702,-9.4383,-9.3267,-9.2218,-9.0053,-8.8767,-8.8023,-8.738,-8.7042,-8.6805,0.0,0.0,0.0,0.0,0.0,0.0,0.0,0.0,0.0,-5.0398,-5.4436,-5.785,-5.9942,-6.3062,-6.5595,-6.7063,-6.3328,-6.001,0.0,0.0,0.0,-6.1129,-6.4986,-6.847,-7.1447,-7.4627,-7.7096,-7.8889,-8.0209,-8.1088,-8.1494,-8.1968,-8.2272,-8.2408,-8.2408,-8.2238,-8.19,-8.0716,-8.004,-7.9667,-7.8314,-7.6352,-7.3815,-7.0398,-6.891,-6.8199,-6.458,-6.5053,-6.6779,-6.2854,-6.2922,-6.3971,-6.0047,0.0,0.0,0.0,0.0,0.0,0.0,0.0,0.0,0.0,0.0,0.0,0.0,0.0,0.0,0.0,0.0,0.0,0.0,0.0,0.0,-7.1515,-7.6589,-8.1562,-8.6061,-8.7211,-8.8125,-8.9613,-9.1406,-9.2962,-9.4146,-9.5195,-9.5669,-9.5398,-9.648,-9.6616,-9.5432,-9.6514,-9.7157,-9.7157,-9.7292,-9.7935,-9.9153,-9.8679,-9.8612,-9.8882,0.0,0.0,-9.8206,-9.807,-9.8003,-9.8003,-9.7867,-9.7022,-9.577,-9.5499,-9.4214,-9.2252,-9.0628,-8.9545,-8.8869,-8.8734,-8.7922,-8.6907,0.0,0.0,0.0,0.0,0.0,0.0,0.0,0.0,0.0,0.0,-5.3335,-5.6235,-5.7813,-5.9832,-6.1374,-6.2181,-5.8612,0.0,0.0,-5.7158,0.0,0.0,-6.7658,-7.0601,-7.3984,-7.5912,-7.7807,-7.9667,-8.075,-8.1663,-8.2408,-8.278,-8.3152,-8.3524,-8.3524,-8.3321,-8.2915,-8.2171,-8.1426,-8.0682,-7.9938,-7.8754,-7.713,-7.4525,-7.2834,-7.1616,-6.9755,-6.9316,-6.918,-6.617,-6.5628,-6.5662,-6.2313,-6.0486,-5.9235,0.0,0.0,0.0,0.0,0.0,0.0,0.0,0.0,0.0,0.0,0.0,0.0,0.0,0.0,-6.1704,0.0,0.0,-7.2157,-7.6657,-8.0513,-8.4268,-8.8023,-8.9816,-9.1034,-9.1812,-9.2895,-9.418,-9.5669,-9.6447,-9.7022,-9.7428,-9.8138,-9.8375,-9.8037,-9.8713,-9.9119,-9.9119,-9.9119,-9.9457,-10.0235,-9.9829,-9.9863,-10.0202,-9.9457,-9.9085,-9.9085,-9.8341,-9.8003,-9.8003,-9.7597,-9.7022,-9.6277,-9.5567,-9.4146,-9.2319,-9.1203,-9.029,-8.9613,-8.9241,-8.8632,-8.7888,0.0,0.0,0.0,0.0,0.0,0.0,0.0,0.0,0.0,0.0,0.0,-5.4179,-5.55,-5.6345,-5.6822,0.0,0.0,0.0,0.0,0.0,0.0,0.0,0.0,0.0,-7.5879,-7.686,-7.828,-8.0209,-8.1054,-8.2103,-8.3287,-8.3592,-8.4031,-8.464,-8.464,-8.4302,-8.3693,-8.3558,-8.2813,-8.1697,-8.1562,-8.1054,-8.0209,-7.828,-7.6589,-7.5202,-7.4762,-7.2597,-6.9823,-6.8707,-6.7252,-6.5628,-6.3971,-6.2956,-6.1839,-5.9099,-5.8118,0.0,0.0,0.0,0.0,0.0,0.0,0.0,0.0,0.0,-5.9573,-6.2448,-6.4783,-6.7151,-6.9891,-7.2902,-7.6589,-8.1359,-8.4031,-8.6535,-8.9545,-9.1508,-9.303,-9.4079,-9.4214,-9.4992,-9.692,-9.7225,-9.78,-9.9018,-9.9356,-9.9728,-10.0202,-10.0506,-10.0608,-10.0438,-10.0438,-10.0506,-10.0641,-10.0506,-10.0777,-10.1386,-9.9965,-9.9559,-9.9965,-9.8612,-9.8003,-9.7969,-9.7056,-9.6582,-9.6345,-9.4857,-9.3537,-9.2319,-9.144,-9.0729,-9.0121,-8.9342,-8.8903,-8.8497,0.0,0.0,0.0,0.0,0.0,0.0,0.0,0.0,0.0,0.0,0.0,0.0,0.0,0.0,0.0,0.0,0.0,0.0,0.0,0.0,0.0,0.0,0.0,0.0,0.0,-7.8145,-7.9295,-8.0209,-8.1596,-8.2374,-8.2543,-8.3862,-8.4539,-8.464,-8.464,-8.4573,-8.4437,-8.3795,-8.3389,-8.3186,-8.2543,-8.1832,-8.1054,-8.0175,-7.8889,-7.7333,-7.5337,-7.2293,-6.9316,-6.9755,-6.8504,-6.6745,-6.7151,-6.6779,-6.5358,-6.1095,0.0,-5.7239,-5.4296,-5.3619,-5.4634,-5.8321,-5.8287,-5.8998,0.0,0.0,-6.6373,-6.8707,-7.0939,-7.3003,-7.4661,-7.7942,-8.1494,-8.4742,-8.7144,-8.9647,-9.2658,-9.33,-9.4214,-9.6277,-9.6514,-9.6886,-9.78,-9.8476,-9.8916,-9.9085,-10.0371,-10.0878,-10.0235,-10.1521,-10.1927,-10.1284,-10.1284,-10.1589,-10.2231,-10.1589,-10.1284,-10.1386,-10.0506,-9.9796,-9.9187,-9.8375,-9.8003,-9.7935,-9.6514,-9.5533,-9.4823,-9.33,-9.259,-9.2286,-9.0865,-9.029,-9.0121,-8.9342,-8.826,-8.7144,0.0,0.0,0.0,0.0,0.0,0.0,0.0,0.0,0.0,0.0,0.0,0.0,0.0,0.0,0.0,0.0,0.0,0.0,0.0,0.0,0.0,0.0,0.0,0.0,0.0,0.0,-7.9464,-8.0209,-8.1697,-8.2408,-8.2441,-8.393,-8.464,-8.464,-8.464,-8.464,-8.4606,-8.4302,-8.3896,-8.3456,-8.3152,-8.234,-8.1156,-8.0006,-7.7536,-7.4559,-7.3172,-7.0838,0.0,0.0,-6.6576,-6.6203,-6.6508,-6.5831,-6.4343,-6.1603,-5.9742,0.0,-5.5987,-5.6359,0.0,0.0,-6.1907,-6.4783,-6.8944,-7.0297,-7.1345,-7.3612,-7.6183,-7.8348,-7.9397,-8.2306,-8.5249,0.0,-8.8835,-9.0628,-9.3233,-9.3199,-9.3436,-9.4789,-9.4958,-9.577,-9.78,-9.8679,-9.9288,-9.9728,-10.0777,-10.1419,-10.1521,-10.213,-10.2401,-10.1995,-10.1995,-10.2198,-10.2502,-10.2198,-10.1995,-10.1995,-10.1284,-10.0506,-9.9728,-9.8984,-9.7935,-9.6683,-9.6074,-9.4857,-9.3368,-9.3165,-9.2556,-9.1677,-9.0628,-9.0222,-9.0121,-8.9342,-8.87,-8.8057,0.0,0.0,0.0,0.0,0.0,0.0,0.0,0.0,0.0,0.0,0.0,0.0,0.0,0.0,0.0,0.0,0.0,0.0,0.0,0.0,0.0,0.0,0.0,0.0,0.0,0.0,0.0,-8.1791,-8.2731,-8.3211,-8.3245,-8.4505,-8.4943,-8.464,-8.464,-8.464,-8.464,-8.464,-8.4302,-8.3795,-8.3592,-8.2475,-8.0716,-7.845,-7.4897,-7.1075,-7.0567,-6.8098,0.0,0.0,-6.3294,-6.3396,-6.4208,-6.3903,-6.2854,-6.1163,-5.9302,-5.7679,-5.7239,0.0,0.0,-6.2212,-6.6034,-7.0094,-7.2597,-7.4289,-7.598,-7.8247,-8.0412,-8.2238,-8.3422,-8.5452,-8.7448,-8.9106,-9.0188,-9.1474,-9.3334,-9.3098,-9.2793,-9.2928,-9.2759,-9.3571,-9.5939,-9.7766,-9.9187,-10.0134,-10.1115,-10.1893,-10.2502,-10.2502,-10.2502,-10.2502,-10.2502,-10.2502,-10.2502,-10.2502,-10.2401,-10.2198,-10.1419,-10.0675,-9.9863,-9.8916,-9.7495,-9.577,-9.5364,-9.4146,-9.2421,-9.259,-9.1981,-9.0932,-9.0188,-8.9918,-8.9816,-8.9072,-8.8666,-8.8328,0.0,0.0,0.0,0.0,0.0,0.0,0.0,0.0,0.0,0.0,0.0,0.0,0.0,0.0,0.0,0.0,0.0,0.0,0.0,0.0,0.0,0.0,0.0,0.0,0.0,0.0,0.0,-8.5807,-8.5426,-8.5222,-8.5257,-8.6019,-8.5735,-8.464,-8.464,-8.464,-8.464,-8.464,-8.4606,-8.4539,-8.3795,-8.2171,-7.9735,-7.5337,-7.1312,-6.803,-6.7996,0.0,0.0,0.0,-5.8829,-5.7577,-6.052,-6.1873,0.0,-5.9742,-5.7002,0.0,0.0,0.0,-6.2482,-6.7557,-7.1075,-7.4086,-7.7096,-7.8923,-8.0615,-8.2847,-8.3355,-8.4133,-8.6366,-8.6839,-8.7617,-8.9816,-9.1406,-9.2658,-9.347,-9.3571,-9.2996,-9.1541,-9.0729,-9.0628,0.0,-9.5466,-9.8645,-10.0134,-10.1622,-10.2502,-10.2502,-10.2502,-10.2502,-10.2502,-10.2502,-10.2502,-10.2502,-10.2502,-10.2096,-10.1386,-10.0608,-9.9863,-9.9085,-9.7631,-9.6514,-9.5702,-9.4282,-9.3165,-9.2319,-9.0899,-9.029,-9.0154,-8.941,-8.9106,-8.9038,-8.8294,-8.7583,-8.6974,0.0,0.0,0.0,0.0,0.0,0.0,0.0,0.0,0.0,0.0,0.0,0.0,0.0,0.0,0.0,0.0,0.0,0.0,0.0,0.0,0.0,0.0,0.0,0.0,0.0,0.0,0.0,-8.28,-8.2914,-8.3248,-8.3768,-8.3716,-8.3823,-8.3862,-8.3862,-8.4167,-8.4606,-8.4099,-8.3592,-8.3016,-8.1291,-7.9566,-7.7502,-7.3003,-6.8368,-6.3903,0.0,0.0,0.0,0.0,0.0,0.0,-5.6359,0.0,0.0,-5.6292,-5.6765,-5.8017,0.0,0.0,-6.8199,-7.2428,-7.6082,-7.9194,-8.119,-8.2813,-8.3964,-8.42,-8.3456,-8.3016,-8.3795,-8.4302,-8.5384,-8.7651,-9.0493,-9.2692,-9.347,-9.3571,-9.2455,-8.9478,-8.9309,0.0,0.0,0.0,0.0,-9.8544,-9.966,-10.0912,-10.2401,-10.2502,-10.2502,-10.2502,-10.2502,-10.2299,-10.1792,-10.1792,-10.1386,-10.0608,-9.9829,-9.9322,-9.9018,-9.7056,-9.6041,-9.5702,-9.4214,-9.2861,-9.1643,-9.1135,-9.0357,-8.9444,-8.9173,-8.9072,-8.9004,-8.826,-8.755,-8.6839,0.0,0.0,0.0,0.0,0.0,0.0,0.0,0.0,0.0,0.0,0.0,0.0,0.0,0.0,0.0,0.0,0.0,0.0,0.0,0.0,0.0,0.0,0.0,0.0,0.0,0.0,0.0,0.0,-7.8463,-7.9091,-7.987,-8.0511,-8.0638,-8.0344,-8.095,-8.1443,-8.1832,-8.1359,-8.0412,-7.9025,-7.6826,-7.4559,-7.2022,-6.7523,-6.3226,0.0,0.0,0.0,0.0,0.0,0.0,0.0,0.0,-5.416,-5.4735,-5.5547,-5.7881,-6.0926,0.0,-6.8977,-7.3815,-7.7232,-8.0716,-8.3456,-8.4167,-8.508,-8.5418,-8.4099,-8.2441,-8.1088,-8.0547,-8.0175,-8.0919,-8.3998,-8.6738,-8.9376,-9.2015,-9.1711,-9.0493,-8.8598,-8.8091,-8.782,0.0,0.0,0.0,-9.7258,-9.851,-9.9965,-10.1995,-10.2401,-10.2502,-10.2502,-10.2502,-10.2299,-10.1792,-10.1792,-10.1284,-10.0202,-9.9187,-9.8713,-9.8645,-9.6683,-9.5669,-9.5296,-9.3537,-9.2049,-9.0865,-9.0324,-8.9545,-8.8666,-8.8395,-8.8294,-8.8226,-8.7482,-8.6907,-8.6433,0.0,0.0,0.0,0.0,0.0,0.0,0.0,0.0,0.0,0.0,0.0,0.0,0.0,0.0,0.0,0.0,0.0,0.0,0.0,0.0,0.0,0.0,0.0,0.0,0.0,0.0,0.0,0.0,-7.2513,-7.3047,-7.381,-7.6229,-7.6226,-7.4213,-7.5821,-7.6519,-7.6434,-7.6352,-7.5067,-7.2834,-7.0635,-6.759,-6.3903,-5.9471,0.0,0.0,0.0,0.0,0.0,0.0,0.0,0.0,0.0,0.0,-5.5277,-5.7611,-6.0452,-6.3971,-6.918,-7.4356,-7.8957,-8.19,-8.4776,-8.667,-8.5892,-8.5655,-8.4945,-8.2611,-8.0276,-7.8179,0.0,0.0,-7.4796,-7.9295,-8.0919,-8.3659,-8.9512,-8.8632,-8.782,0.0,0.0,0.0,0.0,0.0,0.0,-9.6447,0.0,-9.9627,-10.1284,-10.2096,-10.2502,-10.2502,-10.2502,-10.2502,-10.2401,-10.2401,-10.1622,-10.0134,-9.8713,-9.8003,-9.7901,-9.6413,-9.533,-9.4518,-9.2286,-9.0865,-9.0087,-8.8632,-8.8023,-8.7922,-8.7211,-8.6907,-8.6805,-8.6061,-8.579,-8.579,0.0,0.0,0.0,0.0,0.0,0.0,0.0,0.0,0.0,0.0,0.0,0.0,0.0,0.0,0.0,0.0,0.0,0.0,0.0,0.0,0.0,0.0,0.0,0.0,0.0,0.0,0.0,0.0,0.0,-6.7046,-6.7372,-6.8258,-6.8376,0.0,-6.8957,-6.9708,-7.0104,-6.8999,-6.7895,-6.6677,0.0,-6.2651,-6.0892,0.0,0.0,0.0,0.0,0.0,0.0,0.0,0.0,0.0,0.0,0.0,-5.866,-6.255,-6.6237,-7.006,-7.4728,-7.8991,-8.2678,-8.5148,-8.5926,-8.5858,-8.5114,-8.4065,-8.234,-7.8991,-7.5202,-7.1853,0.0,0.0,0.0,-7.6995,-8.2543,0.0,-9.1338,-9.2827,0.0,0.0,0.0,-9.1846,-9.0324,-9.0865,0.0,0.0,-9.6717,-9.8037,-10.1183,-10.2096,-10.2502,-10.2502,-10.2502,-10.2198,-10.169,-10.0506,-9.9762,-9.9356,-9.8442,-9.7698,-9.7123,-9.5669,-9.4586,-9.3774,-9.2049,-9.0865,-9.0154,-8.9207,-8.8497,-8.7922,-8.7211,-8.6907,-8.6805,-8.6061,-8.579,-8.5689,0.0,0.0,0.0,0.0,0.0,0.0,0.0,0.0,0.0,0.0,0.0,0.0,0.0,0.0,0.0,0.0,0.0,0.0,0.0,0.0,0.0,0.0,0.0,0.0,0.0,0.0,0.0,0.0,0.0,0.0,0.0,-6.1944,-6.1835,-6.1219,-6.2751,-6.3437,-6.3482,0.0,0.0,0.0,0.0,0.0,0.0,0.0,0.0,0.0,0.0,0.0,0.0,0.0,0.0,-5.5953,-5.8829,-6.0994,-6.3396,-6.8199,0.0,-7.5134,-7.9295,-8.3118,-8.6196,-8.7144,-8.7313,-8.6433,-8.3389,-8.1528,-7.8855,-7.3172,-6.9451,0.0,0.0,0.0,0.0,0.0,0.0,0.0,-9.0662,-9.2556,-9.3436,0.0,-9.4586,0.0,-9.3402,-9.3639,-9.4857,0.0,-9.6683,-9.7766,-10.1183,-10.2096,-10.2502,-10.2502,-10.2502,-10.2299,-10.1893,-10.0405,-9.9593,-9.9559,-9.851,-9.7597,-9.6853,-9.5702,-9.4417,-9.2996,0.0,-9.0696,-8.9613,-8.8564,-8.7888,-8.7414,-8.6332,-8.5892,-8.5858,-8.5418,-8.5283,-8.5215,0.0,0.0,0.0,0.0,0.0,0.0,0.0,0.0,0.0,0.0,0.0,0.0,0.0,0.0,0.0,0.0,0.0,0.0,0.0,0.0,0.0,0.0,0.0,0.0,0.0,0.0,0.0,0.0,0.0,0.0,0.0,0.0,0.0,0.0,0.0,0.0,0.0,0.0,0.0,0.0,0.0,0.0,0.0,0.0,0.0,0.0,0.0,0.0,0.0,0.0,-5.7983,-5.9573,-6.3362,-6.6203,-6.9147,-7.4289,-7.7333,-7.9803,-8.3422,-8.6839,-8.9207,-8.8463,-8.8395,-8.6974,-8.1224,-7.8314,-7.4559,-6.6576,0.0,0.0,-5.8795,0.0,-6.3903,-6.9451,0.0,-8.0344,-8.9376,-9.0763,-9.2387,-9.665,-9.6785,-9.648,-9.6379,-9.6379,-9.6954,-9.8341,-9.7766,-9.851,-10.1284,-10.2096,-10.2502,-10.2502,-10.2502,-10.2502,-10.2401,-10.0912,-10.0202,-10.0032,-9.8578,-9.7461,-9.6717,-9.5872,-9.4315,-9.2218,-9.1474,-9.0357,-8.897,-8.7516,-8.6907,-8.6771,-8.5215,-8.464,-8.464,-8.464,-8.464,-8.464,0.0,0.0,0.0,0.0,0.0,0.0,0.0,0.0,0.0,0.0,-4.3901,-4.3515,0.0,0.0,0.0,0.0,0.0,0.0,0.0,0.0,0.0,0.0,0.0,0.0,0.0,0.0,0.0,0.0,0.0,0.0,0.0,0.0,0.0,0.0,0.0,0.0,0.0,0.0,0.0,0.0,0.0,0.0,0.0,0.0,0.0,0.0,0.0,0.0,0.0,0.0,-6.167,-6.4986,-6.8774,-7.236,-7.6048,-8.0615,-8.3118,-8.5114,-8.8192,-8.9951,-9.0729,-9.0019,-8.7617,-8.42,-7.9464,-7.4356,0.0,0.0,0.0,-5.6528,-5.4769,-5.778,0.0,-6.9958,0.0,0.0,0.0,0.0,-9.5127,0.0,0.0,0.0,0.0,0.0,0.0,0.0,0.0,-10.01,-10.1284,-10.2096,-10.2502,-10.2502,-10.2502,-10.2198,-10.1589,-10.0709,-9.9897,-9.9254,-9.78,-9.6683,-9.5939,-9.4586,-9.3064,-9.144,-9.0729,0.0,-8.897,-8.7516,-8.6907,-8.6771,-8.5215,-8.464,-8.464,-8.464,-8.464,-8.464,0.0,0.0,0.0,0.0,0.0,0.0,0.0,-4.3754,-4.3938,-4.5149,-4.5002,-4.4599,-4.4158,-4.3754,0.0,0.0,0.0,0.0,0.0,0.0,0.0,0.0,0.0,0.0,0.0,0.0,0.0,0.0,0.0,0.0,0.0,0.0,0.0,0.0,0.0,0.0,0.0,0.0,0.0,0.0,0.0,0.0,0.0,0.0,0.0,0.0,0.0,0.0,0.0,0.0,-6.2144,-6.776,-7.3105,-7.7096,-8.0479,-8.42,-8.6332,-8.7989,-9.0188,-9.1913,-9.2692,-9.1169,-8.7989,-8.3456,-7.6623,0.0,0.0,0.0,0.0,-5.3619,-5.2503,0.0,0.0,0.0,0.0,0.0,0.0,0.0,0.0,0.0,0.0,0.0,0.0,0.0,0.0,0.0,0.0,-10.1183,-10.1893,-10.2299,-10.2502,-10.2502,-10.2096,-10.1792,-10.1386,-10.0202,-9.9457,-9.9085,-9.7597,-9.648,-9.5736,-9.4248,-9.2759,-9.1271,-9.0527,0.0,-8.8463,-8.7753,-8.7008,-8.623,-8.552,-8.4979,-8.464,-8.464,-8.464,-8.464,0.0,0.0,0.0,0.0,0.0,0.0,0.0,-4.4305,-4.4599,-4.6214,-4.625,-4.592,-4.5278,-4.4488,-4.3882,0.0,0.0,0.0,0.0,0.0,0.0,0.0,0.0,0.0,0.0,0.0,0.0,0.0,0.0,0.0,0.0,0.0,0.0,0.0,0.0,0.0,0.0,0.0,0.0,0.0,0.0,0.0,0.0,0.0,0.0,0.0,0.0,0.0,0.0,0.0,-6.1129,-6.732,-7.3612,-7.872,-8.2881,-8.5249,-8.7651,-8.9884,-9.1372,-9.3334,-9.4349,-9.1913,-8.8023,-8.2543,-7.3883,-6.7523,0.0,0.0,-5.2164,-5.1961,-5.1522,0.0,0.0,0.0,0.0,0.0,0.0,0.0,0.0,0.0,0.0,0.0,0.0,0.0,0.0,0.0,0.0,0.0,-10.2502,-10.2401,-10.2299,-10.2299,-10.1487,-10.1081,-10.0878,-9.9559,-9.8781,-9.8612,-9.7123,-9.6108,-9.5499,-9.4011,-9.259,-9.1271,-9.0527,0.0,-8.7989,-8.782,-8.6974,-8.5757,-8.5587,-8.5182,-8.464,-8.464,-8.464,-8.464,0.0,0.0,0.0,0.0,0.0,0.0,0.0,-4.5259,-4.625,-4.7865,-4.7443,-4.6966,-4.6892,-4.6177,-4.5076,0.0,0.0,0.0,0.0,0.0,0.0,0.0,0.0,0.0,0.0,0.0,0.0,0.0,0.0,0.0,0.0,0.0,0.0,0.0,0.0,0.0,0.0,0.0,0.0,0.0,0.0,0.0,0.0,0.0,0.0,0.0,0.0,0.0,0.0,0.0,0.0,-6.1637,-6.6373,-7.4559,-8.2475,-8.2746,0.0,0.0,-9.2962,-9.4518,-9.4992,-9.2049,-8.6467,-7.9701,-7.2124,0.0,0.0,0.0,-5.1792,-5.1488,-5.2097,-5.3687,0.0,0.0,0.0,0.0,0.0,0.0,0.0,0.0,0.0,0.0,0.0,0.0,0.0,0.0,0.0,0.0,-10.2502,-10.1893,-10.1487,-10.1487,-10.0709,-9.9999,-9.9322,-9.851,-9.7766,-9.7056,-9.5601,-9.489,-9.4755,-9.3233,-9.2083,-9.1271,-9.0527,0.0,0.0,-8.7279,-8.6535,-8.5723,-8.5012,-8.4674,-8.464,-8.464,-8.464,-8.464,0.0,0.0,0.0,0.0,0.0,0.0,-4.4599,-4.4562,-4.5223,-4.7296,-4.77,-4.781,-4.781,-4.7535,-4.6324,0.0,0.0,0.0,0.0,0.0,0.0,0.0,0.0,0.0,0.0,0.0,0.0,-4.8306,0.0,0.0,0.0,0.0,0.0,0.0,0.0,0.0,0.0,0.0,0.0,0.0,0.0,0.0,0.0,0.0,0.0,0.0,0.0,0.0,0.0,0.0,0.0,0.0,-5.9844,-6.5764,0.0,0.0,-8.3659,-8.87,-9.1981,-9.4958,-9.6311,-9.2827,-8.6602,-7.9329,-7.1887,0.0,0.0,-5.3247,-5.2063,-5.1961,-5.2266,-5.2807,-5.46,0.0,0.0,0.0,0.0,0.0,0.0,0.0,0.0,0.0,0.0,0.0,0.0,0.0,0.0,0.0,-10.1792,-10.1115,-10.0709,-10.0709,-9.9931,-9.9187,-9.8442,-9.7698,-9.6954,-9.621,-9.5195,-9.4485,-9.3977,-9.2455,-9.1102,-8.9918,-8.9207,0.0,0.0,-8.6839,-8.6196,-8.5114,-8.5249,-8.5046,-8.464,-8.464,-8.464,-8.464,0.0,0.0,0.0,0.0,0.0,-4.3754,-4.4599,-4.4415,-4.4892,-4.6856,-4.759,-4.8049,-4.8269,-4.7682,-4.6434,-4.4378,-4.4745,0.0,0.0,0.0,0.0,0.0,0.0,0.0,0.0,0.0,-4.8306,-4.8306,-4.8563,-4.8967,0.0,0.0,0.0,0.0,0.0,0.0,0.0,0.0,0.0,0.0,0.0,0.0,0.0,0.0,0.0,0.0,0.0,0.0,0.0,0.0,0.0,0.0,0.0,0.0,0.0,0.0,-7.9498,-8.5384,-8.9647,-9.3673,-9.5905,-9.259,-8.5993,-7.8483,0.0,0.0,0.0,-5.3484,-5.2672,-5.2672,-5.2672,-5.2672,-5.3416,0.0,0.0,0.0,0.0,0.0,0.0,0.0,0.0,0.0,0.0,0.0,0.0,0.0,0.0,0.0,-10.1081,-10.0303,-9.9897,-9.9897,-9.895,-9.8206,-9.7698,-9.6717,-9.5872,-9.5127,-9.4383,-9.3639,-9.2861,-9.1338,-9.0053,-8.9038,-8.8091,0.0,0.0,-8.6366,-8.579,-8.4674,-8.5215,-8.5114,-8.464,-8.464,-8.464,-8.464,0.0,0.0,0.0,0.0,0.0,0.0,-4.4599,-4.5369,-4.6177,-4.7003,-4.7113,-4.7406,-4.8233,-4.6177,-4.5039,-4.581,-4.5883,0.0,0.0,0.0,0.0,0.0,0.0,0.0,0.0,0.0,-4.8306,-4.8306,-4.915,-4.9574,-4.9517,-5.1206,0.0,0.0,0.0,0.0,0.0,0.0,0.0,0.0,0.0,0.0,0.0,0.0,0.0,0.0,0.0,0.0,0.0,0.0,0.0,0.0,0.0,0.0,0.0,0.0,-7.4322,-8.2171,-8.596,-9.0222,-9.3064,-9.0797,-8.4065,-7.6454,0.0,0.0,0.0,-5.4093,-5.3484,-5.3484,-5.3484,-5.3484,-5.3754,-5.4499,0.0,0.0,0.0,0.0,0.0,0.0,0.0,0.0,0.0,0.0,0.0,0.0,0.0,0.0,-10.0303,-9.9525,-9.9119,-9.9119,-9.7664,-9.6886,-9.6886,-9.5466,-9.4349,-9.3605,-9.2827,-9.2049,-9.1271,-8.9782,-8.9106,-8.9004,0.0,0.0,0.0,-8.579,-8.5317,-8.464,-8.464,-8.464,-8.464,-8.464,-8.464,-8.464,0.0,0.0,0.0,0.0,0.0,0.0,0.0,-4.4085,-4.4562,-4.5351,-4.5957,-4.6581,-4.7369,-4.6324,-4.5626,-4.5883,-4.5406,0.0,0.0,0.0,0.0,0.0,0.0,0.0,0.0,0.0,-4.86,-4.9206,-4.9463,-5.0161,-5.1206,-5.1756,-5.227,-5.2821,0.0,0.0,0.0,0.0,0.0,0.0,0.0,0.0,0.0,0.0,0.0,0.0,0.0,0.0,0.0,0.0,0.0,0.0,0.0,0.0,0.0,0.0,0.0,0.0,-7.7773,-8.1765,-8.4268,-8.0479,-7.5709,-7.0601,-6.5628,0.0,0.0,-5.3991,-5.3518,-5.3518,-5.3518,-5.3518,-5.4397,-5.7171,-5.8389,0.0,0.0,0.0,0.0,0.0,0.0,0.0,0.0,0.0,0.0,0.0,0.0,0.0,-9.9491,-9.8273,-9.7597,-9.7597,-9.7123,-9.6142,-9.4654,-9.418,-9.33,-9.2015,-9.1778,-9.1,-8.9748,-8.9309,-8.826,0.0,0.0,0.0,0.0,-8.4979,-8.4843,-8.464,-8.464,-8.464,-8.464,-8.464,-8.4302,-8.393,0.0,0.0,0.0,0.0,0.0,0.0,0.0,-4.3515,-4.3698,-4.4195,-4.4672,-4.5406,-4.6544,-4.5663,-4.5223,-4.5847,-4.4892,0.0,0.0,0.0,0.0,0.0,0.0,0.0,0.0,-4.759,-4.8563,-5.0031,-5.0381,-5.1169,-5.2454,-5.2747,-5.3004,-5.3203,-5.3203,0.0,0.0,0.0,0.0,0.0,0.0,0.0,-5.2401,0.0,0.0,0.0,0.0,0.0,0.0,0.0,0.0,0.0,0.0,0.0,0.0,0.0,-6.0858,0.0,0.0,-7.4965,-7.7333,-7.4796,-7.0973,0.0,0.0,0.0,0.0,0.0,-5.3518,-5.3518,-5.3518,-5.3518,-5.4262,-5.6562,0.0,0.0,0.0,0.0,0.0,0.0,0.0,0.0,0.0,0.0,0.0,0.0,0.0,0.0,-9.8747,-9.78,-9.6785,-9.5669,-9.5905,-9.5263,-9.3605,-9.33,-9.2387,-9.0865,-9.0865,-9.0121,-8.8666,-8.8395,-8.7347,0.0,0.0,0.0,0.0,-8.464,-8.464,-8.464,-8.464,-8.464,-8.4606,-8.4302,-8.3896,-8.3524,0.0,0.0,0.0,0.0,0.0,0.0,0.0,-4.3515,-4.3515,-4.3515,-4.3515,-4.4065,-4.5553,-4.4378,-4.4085,-4.559,0.0,0.0,0.0,0.0,0.0,0.0,0.0,0.0,0.0,-4.7113,-4.836,-5.0802,-5.161,-5.2454,-5.3298,-5.4106,-5.4069,-5.3277,-5.3277,-5.324,-5.324,-5.3989,-5.3519,-5.2386,-5.3871,-5.3614,0.0,0.0,0.0,0.0,0.0,0.0,0.0,0.0,0.0,0.0,0.0,0.0,0.0,0.0,0.0,0.0,0.0,0.0,0.0,0.0,0.0,0.0,0.0,0.0,0.0,0.0,0.0,0.0,0.0,0.0,-5.3619,-5.3923,0.0,0.0,0.0,0.0,0.0,0.0,0.0,0.0,0.0,0.0,0.0,0.0,0.0,0.0,-9.8037,-9.7766,-9.6413,-9.3673,-9.4112,-9.4045,-9.3334,-9.2624,-9.1541,-9.0121,-9.0087,-8.9309,-8.7888,-8.7177,-8.6433,0.0,0.0,-8.464,0.0,-8.464,-8.4606,-8.4539,-8.4539,-8.4505,-8.437,-8.3659,-8.3389,-8.3253,0.0,0.0,0.0,0.0,0.0,0.0,0.0,0.0,0.0,0.0,-4.3515,-4.3662,-4.4011,-4.3735,-4.3662,0.0,0.0,0.0,0.0,0.0,0.0,0.0,0.0,0.0,0.0,-4.7388,-4.893,-5.0802,-5.161,-5.2711,-5.4142,-5.495,-5.4876,-5.4106,-5.4106,-5.3775,-5.3219,-5.3458,-5.3358,-5.3074,-5.355,-5.3504,0.0,0.0,0.0,0.0,-5.3518,-5.3518,0.0,0.0,0.0,0.0,0.0,0.0,0.0,0.0,-5.4126,-5.5006,-5.7137,0.0,-6.1806,-6.0283,0.0,0.0,0.0,0.0,0.0,0.0,0.0,0.0,0.0,0.0,0.0,0.0,0.0,0.0,0.0,0.0,0.0,0.0,0.0,0.0,0.0,0.0,0.0,0.0,0.0,-9.8307,-9.7191,-9.5533,-9.4315,-9.3605,-9.2083,-9.1169,-9.1,-9.0831,-9.0256,-8.9342,-8.8767,-8.8057,-8.7144,-8.6399,-8.5621,-8.4877,-8.4708,-8.464,-8.464,-8.464,-8.4302,-8.3761,-8.3761,-8.3422,-8.2915,-8.2746,-8.2306,-8.1866,0.0,0.0,0.0,0.0,0.0,0.0,0.0,0.0,0.0,0.0,0.0,0.0,0.0,0.0,0.0,0.0,0.0,0.0,0.0,0.0,0.0,0.0,0.0,0.0,-4.6434,-4.7296,-4.893,-5.1353,-5.1793,-5.3004,-5.495,-5.539,-5.517,-5.4363,-5.3995,-5.3405,-5.2775,-5.3882,-5.3764,-5.2971,-5.4437,0.0,0.0,0.0,0.0,0.0,-5.3518,-5.3518,0.0,-5.3518,-5.3518,-5.3518,0.0,0.0,0.0,0.0,-5.3518,-5.3585,-5.3991,-5.575,-5.7306,-5.6427,-5.5953,-5.5615,0.0,0.0,0.0,0.0,0.0,0.0,0.0,0.0,0.0,0.0,0.0,0.0,0.0,0.0,0.0,0.0,0.0,0.0,0.0,0.0,0.0,0.0,0.0,-9.7225,-9.5466,-9.4214,-9.2962,-9.1575,-9.0324,-8.985,-9.0222,-8.9545,-8.9004,-8.8564,-8.7854,-8.711,-8.6366,-8.596,-8.5351,-8.4606,-8.4268,-8.4099,-8.4065,-8.3761,-8.3355,-8.3016,-8.3016,-8.2746,-8.2374,-8.2035,-8.1629,-8.1291,0.0,0.0,0.0,0.0,0.0,0.0,0.0,0.0,0.0,0.0,0.0,0.0,0.0,0.0,0.0,0.0,0.0,0.0,0.0,0.0,0.0,0.0,0.0,-4.5572,-4.7076,-4.7223,-4.8783,-5.183,-5.2197,-5.3592,-5.5978,-5.6198,-5.5757,-5.473,-5.3922,-5.3164,-5.2589,-5.4714,-5.4467,-5.2863,-5.5606,0.0,0.0,0.0,0.0,0.0,0.0,0.0,0.0,-5.3518,-5.3518,-5.3518,-5.3518,0.0,0.0,0.0,0.0,0.0,-5.3923,-5.5006,-5.6089,-5.6258,-5.5919,-5.5513,0.0,0.0,0.0,0.0,0.0,0.0,0.0,0.0,0.0,0.0,0.0,0.0,0.0,0.0,0.0,0.0,0.0,0.0,0.0,0.0,0.0,0.0,0.0,-9.6176,-9.3537,-9.3098,-9.1711,-8.9173,-8.8767,-8.8937,-8.9715,-8.8463,-8.782,-8.782,-8.7076,-8.6399,-8.579,-8.5655,-8.5182,-8.4403,0.0,0.0,-8.3287,-8.2678,-8.234,-8.2238,-8.2238,-8.2171,-8.2002,-8.1359,-8.1122,-8.1021,0.0,0.0,0.0,0.0,0.0,0.0,0.0,0.0,0.0,0.0,0.0,0.0,0.0,0.0,0.0,0.0,0.0,0.0,0.0,0.0,0.0,0.0,-4.6104,-4.614,-4.7076,-4.7773,-4.9077,-5.0986,-5.3041,-5.528,-5.7666,-5.9024,-5.851,-5.6418,-5.5574,-5.4796,-5.4122,-5.5148,-5.5039,-5.4261,-5.5426,0.0,0.0,0.0,0.0,0.0,0.0,0.0,0.0,-5.3518,-5.3518,-5.3518,-5.3518,0.0,0.0,0.0,0.0,0.0,-5.5784,-5.69,-5.6968,-5.46,-5.4397,-5.46,0.0,0.0,0.0,0.0,0.0,0.0,0.0,0.0,0.0,0.0,0.0,0.0,0.0,0.0,0.0,0.0,0.0,0.0,0.0,0.0,0.0,0.0,0.0,-9.3774,-9.2658,-9.0797,-8.9579,-8.9106,-8.7245,-8.667,-8.7414,-8.7177,-8.7076,-8.7076,-8.6332,-8.5892,-8.5757,-8.5114,-8.4403,-8.3659,0.0,-8.3152,-8.2577,-8.2475,-8.2035,-8.146,-8.146,-8.1088,-8.0513,-8.0412,-8.0378,-8.0344,0.0,0.0,0.0,0.0,0.0,0.0,0.0,0.0,0.0,0.0,0.0,0.0,0.0,0.0,0.0,0.0,0.0,0.0,0.0,0.0,0.0,-4.77,-4.6966,-4.6948,-4.7736,-4.9003,-5.0472,-5.2123,-5.4509,-5.6932,-5.9281,-5.9171,-5.851,-5.7373,-5.5684,-5.4773,-5.4573,-5.5733,-5.5583,-5.4654,0.0,0.0,0.0,0.0,0.0,0.0,0.0,0.0,0.0,0.0,-5.3518,-5.3518,-5.3518,0.0,0.0,0.0,0.0,0.0,-5.4735,-5.5547,-5.5987,-5.5412,-5.6156,-5.6596,0.0,0.0,0.0,0.0,0.0,0.0,0.0,0.0,0.0,0.0,0.0,0.0,0.0,0.0,0.0,0.0,0.0,0.0,0.0,0.0,0.0,0.0,0.0,0.0,-9.1305,-8.985,-8.8734,-8.7955,-8.6535,-8.5757,-8.5689,-8.5689,-8.5892,-8.6298,-8.552,-8.4945,-8.4539,-8.4167,-8.3625,-8.2881,0.0,-8.2103,-8.1765,-8.1393,-8.1021,-8.0716,-8.0716,-8.0479,-8.0209,-8.0209,-8.0209,-8.0209,0.0,0.0,0.0,0.0,0.0,0.0,0.0,0.0,0.0,0.0,0.0,0.0,0.0,0.0,0.0,0.0,0.0,0.0,0.0,0.0,-4.7021,-4.8269,-4.8067,-4.8323,-4.915,-5.0618,-5.2344,-5.4326,-5.6932,-5.9355,-6.152,-5.9869,-5.8804,-5.818,-5.5978,-5.5035,-5.5184,-5.6347,-5.6152,-5.5231,0.0,0.0,0.0,0.0,0.0,0.0,0.0,0.0,0.0,0.0,0.0,0.0,0.0,0.0,0.0,-5.3518,-5.3518,-5.3619,-5.4126,-5.4702,-5.5378,-5.6528,0.0,-5.7814,-5.7171,0.0,0.0,0.0,0.0,0.0,0.0,0.0,0.0,0.0,0.0,0.0,0.0,0.0,0.0,0.0,0.0,0.0,0.0,0.0,0.0,0.0,0.0,0.0,-8.9816,-8.897,-8.7989,-8.667,-8.5926,-8.5148,-8.437,-8.437,-8.4674,-8.5249,-8.464,-8.3964,-8.3253,-8.3253,-8.2847,-8.2103,-8.1528,-8.119,-8.0987,-8.0412,-8.0107,-7.9972,-8.0141,-8.0209,-8.0209,-8.0209,-8.0209,-8.0209,0.0,0.0,0.0,0.0,0.0,0.0,0.0,0.0,0.0,0.0,0.0,0.0,0.0,0.0,0.0,0.0,0.0,0.0,0.0,0.0,-4.8196,-4.8306,-4.9738,-5.0912,-5.172,-5.2601,-5.4546,-5.7666,-6.0823,-6.3246,-6.4934,-6.3246,-6.1239,-5.9038,-5.7373,-5.6653,-5.6644,-5.6763,-5.6757,-5.6727,-5.685,0.0,0.0,0.0,0.0,0.0,0.0,0.0,0.0,0.0,0.0,0.0,0.0,0.0,-5.3518,-5.3518,-5.3518,-5.3957,-5.5987,-5.6596,-5.6664,-5.6765,0.0,0.0,-5.9979,0.0,0.0,0.0,0.0,0.0,0.0,0.0,0.0,0.0,0.0,0.0,0.0,0.0,0.0,0.0,0.0,0.0,0.0,0.0,0.0,0.0,0.0,0.0,-8.8226,-8.7482,-8.6704,-8.5892,-8.5114,-8.4336,-8.3592,-8.3592,-8.3592,-8.3659,-8.3592,-8.3186,-8.2475,-8.2475,-8.2069,-8.1359,-8.1291,-8.0885,-8.0276,-8.0209,-7.9803,-7.9261,-7.9938,-8.0209,-8.0209,-8.0209,-8.0209,-8.0209,0.0,0.0,0.0,0.0,0.0,0.0,0.0,0.0,0.0,0.0,0.0,0.0,0.0,0.0,0.0,0.0,0.0,0.0,0.0,0.0,-4.8526,-4.9077,-4.9701,-5.0912,-5.2711,-5.55,-5.8033,-6.0236,-6.3503,-6.5191,-6.5264,-6.2585,-6.0542,-5.9111,-5.7519,-5.7079,-5.7556,-5.7556,-5.7564,-5.7522,-5.7065,-5.6259,0.0,0.0,0.0,0.0,0.0,0.0,0.0,0.0,-5.3518,-5.3518,0.0,0.0,-5.3518,-5.3518,-5.3518,-5.3687,-5.4532,-5.575,-5.7036,-5.7949,0.0,0.0,0.0,0.0,0.0,0.0,0.0,0.0,0.0,0.0,0.0,0.0,0.0,0.0,0.0,0.0,0.0,0.0,0.0,0.0,0.0,0.0,0.0,0.0,0.0,0.0,-8.738,-8.6636,-8.6095,-8.579,-8.4573,-8.3795,-8.349,-8.305,-8.2374,-8.146,-8.2374,-8.2441,-8.1697,-8.1697,-8.1291,-8.0615,-8.0615,-8.0445,-8.0175,-7.9701,-7.9363,-7.916,-7.9431,-7.9803,-8.0209,-8.0209,-8.0209,-8.0209,0.0,0.0,0.0,0.0,0.0,0.0,0.0,0.0,0.0,0.0,0.0,0.0,0.0,0.0,0.0,0.0,0.0,0.0,-4.748,-4.7993,-4.8563,-4.915,-4.9941,-5.1242,-5.3188,-5.7666,-6.075,-6.2365,-6.5668,-6.6329,-6.4457,-6.1704,-6.0126,-5.9478,-5.7629,-5.7519,-5.8731,-5.8217,-5.7997,-5.7973,-5.7449,-5.6773,0.0,0.0,0.0,0.0,0.0,0.0,0.0,0.0,0.0,0.0,0.0,0.0,0.0,0.0,-5.3518,-5.3518,-5.3518,-5.46,-5.6122,0.0,0.0,0.0,0.0,0.0,0.0,0.0,0.0,0.0,0.0,0.0,0.0,0.0,0.0,0.0,0.0,0.0,0.0,0.0,0.0,0.0,0.0,0.0,0.0,0.0,0.0,0.0,0.0,-8.5824,-8.5317,-8.508,-8.3592,-8.2678,-8.2441,-8.1731,-8.075,-7.9498,-8.0513,-8.075,-8.0242,-8.0242,-7.9972,-7.9498,-7.9498,-7.9498,-7.9464,-7.8957,-7.8754,-7.872,-7.8517,-7.8855,-7.9498,-7.9498,-7.9498,-7.9498,0.0,0.0,0.0,0.0,0.0,0.0,0.0,0.0,0.0,0.0,0.0,0.0,0.0,0.0,0.0,0.0,0.0,0.0,-4.8306,-4.8306,-4.8306,-4.8306,-5.0655,-5.238,-5.3167,-5.8694,-6.2401,-6.409,-6.7283,-6.6769,-6.2743,-6.1153,-6.0382,-6.0272,-5.7886,-5.8143,-6.0272,-5.8694,-5.7997,-5.7997,-5.7997,-5.7546,-5.6912,0.0,0.0,0.0,0.0,0.0,0.0,0.0,-5.3977,0.0,0.0,0.0,0.0,0.0,-5.3518,-5.3518,-5.3518,-5.3518,0.0,0.0,0.0,0.0,0.0,0.0,0.0,0.0,0.0,0.0,0.0,0.0,0.0,0.0,0.0,0.0,0.0,0.0,0.0,0.0,0.0,0.0,0.0,0.0,0.0,0.0,0.0,0.0,0.0,-8.5046,-8.4268,-8.349,-8.2035,-8.0919,-8.0209,-7.9464,-7.872,-7.7976,-7.7942,-7.7976,-7.7976,-7.7976,-7.7976,-7.7976,-7.7976,-7.7976,-7.7976,-7.7942,-7.7942,-7.7874,-7.7164,-7.7333,-7.7976,-7.7976,-7.7976,-7.7976,0.0,0.0,0.0,0.0,0.0,0.0,0.0,0.0,0.0,0.0,0.0,0.0,0.0,0.0,0.0,0.0,0.0,0.0,-4.8306,-4.8306,-4.8563,-4.9206,-5.0472,-5.1536,-5.2344,-5.6748,-6.1006,-6.4934,-6.5338,-6.4016,-6.108,-6.0028,-5.9245,-5.8694,-5.8584,-5.8584,-5.8694,-5.8217,-5.7997,-5.7997,-5.7997,-5.7546,-5.6861,0.0,0.0,0.0,0.0,0.0,0.0,0.0,0.0,0.0,0.0,0.0,0.0,-5.3822,-5.4228,-5.4837,-5.3788,0.0,0.0,0.0,0.0,0.0,0.0,0.0,0.0,0.0,0.0,0.0,0.0,0.0,0.0,0.0,0.0,0.0,0.0,0.0,0.0,0.0,0.0,0.0,0.0,0.0,0.0,0.0,0.0,0.0,0.0,-8.3456,-8.2712,-8.1968,-8.1021,-8.0175,-7.9431,-7.8179,-7.7164,-7.6386,-7.5845,-7.6454,-7.7976,-7.7468,-7.7232,-7.7198,-7.6623,-7.6386,-7.6318,-7.5811,-7.5608,-7.5608,-7.5371,-7.6082,-7.7232,-7.7232,-7.7536,-7.7976,0.0,0.0,0.0,0.0,0.0,0.0,0.0,0.0,0.0,0.0,0.0,0.0,0.0,0.0,0.0,0.0,0.0,0.0,0.0,-4.882,-4.9187,-5.0031,-5.0839,-5.194,-5.3408,-5.6418,-5.9134,-6.1447,-6.2254,-6.1374,-5.8988,-5.9465,-5.9612,-5.9465,-6.0639,-6.0676,-5.9905,-5.9575,-5.8877,-5.7997,-5.7997,-5.7726,-5.7241,0.0,0.0,0.0,0.0,0.0,0.0,0.0,0.0,0.0,0.0,0.0,0.0,-5.3754,-5.4126,-5.4634,-5.3754,0.0,0.0,0.0,0.0,0.0,0.0,0.0,0.0,0.0,0.0,0.0,0.0,0.0,0.0,0.0,0.0,0.0,0.0,0.0,0.0,0.0,0.0,0.0,0.0,0.0,0.0,0.0,0.0,0.0,0.0,-8.1934,-8.119,-8.0445,-7.9431,-7.8517,-7.7773,-7.6589,-7.5608,-7.4796,-7.439,-7.4864,-7.6183,-7.5743,-7.554,-7.5506,-7.5033,-7.483,-7.4796,-7.4356,-7.4153,-7.4153,-7.4153,-7.4728,-7.554,-7.554,-7.5811,-7.6183,0.0,0.0,0.0,0.0,0.0,0.0,0.0,0.0,0.0,0.0,0.0,0.0,0.0,0.0,0.0,0.0,0.0,0.0,0.0,0.0,-5.0088,-5.0875,-5.1756,-5.3261,-5.5559,-5.6969,-5.6969,-5.5486,-5.8621,-5.8988,-5.6748,-5.9245,-6.0823,-6.1667,-6.3172,-6.3429,-6.2658,-6.1667,-6.0015,-5.7997,-5.7997,-5.7997,-5.7927,-5.7091,0.0,0.0,0.0,0.0,0.0,0.0,0.0,0.0,0.0,0.0,-5.3687,-5.3551,-5.3619,-5.3721,0.0,0.0,0.0,0.0,0.0,0.0,0.0,0.0,0.0,0.0,0.0,0.0,0.0,0.0,0.0,0.0,0.0,0.0,0.0,0.0,0.0,0.0,0.0,0.0,0.0,0.0,0.0,0.0,0.0,0.0,0.0,-8.0378,-7.9566,-7.8822,-7.7435,-7.6318,-7.5506,-7.4762,-7.4052,-7.3375,-7.3308,-7.3274,-7.3274,-7.3341,-7.3341,-7.3274,-7.3274,-7.3274,-7.3274,-7.3274,-7.3274,-7.3274,-7.3274,-7.3341,-7.3375,-7.3375,-7.3443,-7.3477,0.0,0.0,0.0,0.0,0.0,0.0,0.0,0.0,0.0,0.0,0.0,0.0,0.0,0.0,0.0,0.0,0.0,0.0,0.0,0.0,-5.0912,-5.172,-5.3115,-5.4399,-5.5596,-5.5317,-5.4987,-5.4656,-5.7262,-5.7593,-5.5904,-5.8988,-6.0823,-6.163,-6.1961,-6.2034,-6.1704,-5.9648,-5.8474,-5.7997,-5.7997,-5.7997,-5.7844,-5.6501,-5.6711,0.0,0.0,0.0,0.0,0.0,0.0,0.0,-5.3551,-5.4296,-5.5006,-5.3856,-5.4329,0.0,0.0,0.0,0.0,0.0,0.0,0.0,0.0,0.0,0.0,0.0,0.0,0.0,0.0,0.0,0.0,0.0,0.0,0.0,0.0,0.0,0.0,0.0,0.0,0.0,0.0,0.0,0.0,0.0,0.0,0.0,-8.0445,-7.8653,-7.7266,-7.6454,-7.5574,-7.4728,-7.395,-7.324,-7.28,-7.2631,-7.2056,-7.1785,-7.1785,-7.236,-7.2326,-7.1785,-7.1785,-7.1785,-7.1785,-7.1785,-7.1785,-7.1785,-7.1785,-7.2124,-7.2631,-7.2631,-7.3003,-7.3477,0.0,0.0,0.0,0.0,0.0,0.0,0.0,0.0,0.0,0.0,0.0,0.0,0.0,0.0,0.0,0.0,0.0,0.0,0.0,0.0,0.0,-5.2527,-5.3739,-5.4583,-5.5023,-5.4987,-5.495,-5.495,-5.6638,-5.6785,0.0,-5.9281,-6.141,-6.2218,-6.3429,-6.3282,-6.2071,-6.0419,-5.9061,-5.7997,-5.7997,-5.7997,-5.7867,-5.6747,-5.6773,-5.7327,-5.6114,0.0,0.0,0.0,0.0,0.0,0.0,0.0,-5.4499,-5.3721,-5.4059,-5.4972,0.0,0.0,0.0,0.0,0.0,0.0,0.0,0.0,0.0,0.0,0.0,0.0,0.0,0.0,0.0,0.0,0.0,0.0,0.0,0.0,0.0,0.0,0.0,0.0,0.0,0.0,0.0,0.0,0.0,-7.9566,-7.8111,-7.6961,-7.5811,-7.4661,-7.4255,-7.3713,-7.2969,-7.2597,-7.2225,-7.1887,-7.1481,-7.1312,-7.1312,-7.1718,-7.1684,-7.1312,-7.1312,-7.1312,-7.1312,-7.1312,-7.1312,-7.1312,-7.1312,-7.1548,-7.1887,-7.1887,-7.2124,-7.2462,0.0,0.0,0.0,0.0,0.0,0.0,0.0,0.0,0.0,0.0,0.0,0.0,0.0,0.0,0.0,0.0,0.0,0.0,0.0,0.0,0.0,-5.3371,-5.4179,-5.462,-5.462,-5.539,-5.5721,-5.5596,-5.6418,0.0,0.0,0.0,0.0,-6.3135,-6.5007,-6.4714,-6.2707,-6.1484,-5.9832,-5.7997,-5.7997,-5.7997,-5.7927,-5.7166,-5.6912,-5.6835,-5.615,-5.535,-5.4637,-5.4757,0.0,0.0,0.0,0.0,-5.3518,-5.3518,-5.3518,-5.389,0.0,0.0,0.0,0.0,0.0,0.0,0.0,0.0,0.0,0.0,0.0,0.0,0.0,0.0,0.0,0.0,0.0,0.0,0.0,0.0,0.0,0.0,0.0,0.0,0.0,0.0,0.0,0.0,0.0,-7.828,-7.5642,-7.527,-7.4559,-7.3341,-7.3172,-7.2834,-7.2225,-7.2225,-7.1921,-7.1312,-7.1312,-7.1312,-7.1312,-7.1312,-7.1312,-7.1312,-7.1312,-7.1312,-7.1312,-7.1312,-7.1312,-7.1312,-7.1312,-7.1312,-7.1312,-7.1312,-7.1312,-7.1312,0.0,0.0,0.0,0.0,0.0,0.0,0.0,0.0,0.0,0.0,0.0,0.0,0.0,0.0,0.0,0.0,0.0,0.0,0.0,0.0,0.0,-5.4216,-5.4987,-5.5427,-5.5427,-5.6235,-5.6308,-5.5596,0.0,0.0,0.0,0.0,0.0,-6.3906,0.0,-6.311,-6.2597,-5.9722,-5.829,-5.7997,-5.7997,-5.7997,-5.7927,-5.7166,-5.6912,-5.6887,-5.6773,-5.5816,-5.4695,-5.535,-5.4637,0.0,0.0,0.0,-5.3518,-5.3518,-5.3518,0.0,0.0,0.0,0.0,0.0,0.0,0.0,0.0,0.0,0.0,0.0,0.0,0.0,0.0,0.0,0.0,0.0,0.0,0.0,0.0,0.0,0.0,0.0,0.0,0.0,0.0,0.0,0.0,0.0,-7.7435,-7.5845,-7.4796,-7.3544,-7.2732,-7.2563,-7.1921,-7.1548,-7.1447,-7.1447,-7.1413,-7.1312,-7.1312,-7.1312,-7.1312,-7.1312,-7.1312,-7.1312,-7.1312,-7.1312,-7.1312,-7.1312,-7.1312,-7.1312,-7.1312,-7.1312,-7.1312,-7.1312,-7.1312,-7.1312,0.0,0.0,0.0,0.0,0.0,0.0,0.0,0.0,0.0,0.0,0.0,0.0,0.0,0.0,0.0,0.0,0.0,0.0,0.0,0.0,0.0,-5.4363,-5.473,-5.5354,-5.6235,-5.6638,-5.6859,-5.6932,0.0,0.0,0.0,-6.3833,-6.5154,0.0,0.0,0.0,0.0,0.0,0.0,-5.7997,-5.7997,-5.8253,-5.8503,-5.6839,-5.6788,-5.7385,-5.607,-5.5179,-5.4695,-5.5466,-5.473,-5.3551,-5.4011,0.0,0.0,0.0,-5.3518,0.0,0.0,0.0,0.0,0.0,0.0,0.0,0.0,0.0,0.0,0.0,0.0,0.0,0.0,0.0,0.0,0.0,0.0,0.0,0.0,0.0,0.0,0.0,0.0,0.0,0.0,0.0,0.0,0.0,-7.5879,-7.4593,-7.3443,-7.2766,-7.2225,-7.1819,-7.1481,-7.1109,-7.0703,-7.0669,-7.0466,-7.006,-7.006,-7.006,-7.006,-7.006,-7.0534,-7.1312,-7.1312,-7.1312,-7.1312,-7.1312,-7.1312,-7.1312,-7.1312,-7.1312,-7.1312,-7.1312,-7.1312,-7.1312,0.0,0.0,0.0,0.0,0.0,0.0,0.0,0.0,0.0,0.0,0.0,0.0,0.0,0.0,0.0,0.0,0.0,0.0,0.0,0.0,0.0,-5.4363,-5.4583,-5.528,-5.6455,-5.6895,-5.7299,0.0,0.0,0.0,-6.5007,-6.5852,-6.7834,0.0,-6.8421,0.0,0.0,0.0,0.0,0.0,0.0,-5.8364,-5.8723,-5.7205,-5.6958,-5.7299,-5.5982,-5.5131,-5.4695,-5.5243,-5.4683,-5.3822,-5.4205,-5.3946,0.0,0.0,0.0,0.0,0.0,0.0,0.0,0.0,0.0,0.0,0.0,0.0,0.0,0.0,0.0,0.0,0.0,0.0,0.0,0.0,0.0,0.0,0.0,0.0,0.0,0.0,0.0,0.0,0.0,0.0,0.0,0.0,-7.4458,-7.3477,-7.2191,-7.2124,-7.1988,-7.1688,-7.1243,-7.087,-7.0565,-7.0168,-6.962,-6.9113,-6.9113,-6.9113,-6.9113,-6.9113,-6.9688,-7.0737,-7.0737,-7.0872,-7.1007,-7.0838,-7.0973,-7.1312,-7.1109,-7.1142,-7.1312,-7.1312,-7.1312,-7.1312,0.0,0.0,0.0,0.0,0.0,0.0,0.0,0.0,0.0,0.0,0.0,0.0,-5.194,-5.2637,-5.3093,-5.3151,0.0,0.0,0.0,0.0,0.0,-5.4363,-5.5133,0.0,-5.5647,-5.7152,0.0,0.0,0.0,0.0,-6.7504,-6.8348,-7.1211,-7.5542,-7.1651,-6.8164,-6.5118,0.0,0.0,0.0,0.0,0.0,0.0,-5.8747,-5.7691,-5.6007,-5.7388,-5.6475,-5.4601,-5.4629,-5.4585,-5.4431,-5.3788,-5.3517,-5.3518,0.0,0.0,0.0,0.0,0.0,0.0,0.0,0.0,0.0,0.0,0.0,0.0,0.0,0.0,0.0,0.0,0.0,0.0,0.0,0.0,0.0,0.0,0.0,0.0,0.0,0.0,0.0,0.0,0.0,0.0,0.0,-7.2935,-7.2191,-7.1413,-7.1379,-7.1766,-7.2673,-7.1147,-7.0686,-7.1607,-6.9979,-6.9147,-6.9113,-6.9113,-6.9113,-6.9113,-6.9113,-6.9147,-6.9214,-6.9214,-6.962,-7.0195,-6.9485,-7.006,-7.1244,-7.0534,-7.0669,-7.1312,-7.1312,-7.1312,-7.1312,0.0,0.0,0.0,0.0,0.0,0.0,0.0,0.0,0.0,0.0,0.0,0.0,0.0,-5.3041,-5.3203,-5.3203,-5.3203,0.0,0.0,0.0,0.0,-5.5097,-5.5427,-5.6088,-5.7116,-5.7703,0.0,0.0,0.0,-6.0236,-6.4604,-6.6476,-6.8825,-7.1468,-7.1064,-6.9669,-6.7393,-6.3613,0.0,0.0,0.0,0.0,0.0,0.0,0.0,0.0,0.0,0.0,-5.6152,-5.6663,-5.6141,-5.5279,-5.5001,-5.4597,-5.4093,-5.3653,-5.3518,0.0,0.0,0.0,0.0,0.0,0.0,0.0,0.0,0.0,0.0,0.0,0.0,0.0,0.0,0.0,0.0,0.0,0.0,0.0,0.0,0.0,0.0,0.0,0.0,0.0,0.0,0.0,0.0,0.0,0.0,-7.1582,-7.1312,-7.1312,-7.1253,-7.1113,-7.1105,-7.0874,-7.0356,-6.8758,-6.7942,-6.7942,-6.7942,-6.8221,-6.8673,-6.8049,-6.8005,-6.8486,-6.7886,-6.8335,-6.9451,-6.9214,-6.9688,-7.0567,-7.0297,-7.0635,-7.1312,-7.1312,-7.1312,-7.1312,0.0,0.0,0.0,0.0,0.0,0.0,0.0,0.0,0.0,-5.1096,0.0,0.0,0.0,0.0,-5.3702,-5.3995,-5.3995,-5.3995,-5.3995,-5.3995,-5.462,-5.5941,-5.5978,-5.6638,-5.796,0.0,0.0,0.0,0.0,0.0,0.0,-6.4787,-6.6843,-6.8935,-6.9449,-6.9853,0.0,0.0,0.0,-6.387,0.0,0.0,-6.1875,0.0,0.0,0.0,0.0,0.0,0.0,-5.8194,-5.7573,-5.6808,-5.6248,-5.5574,-5.4821,-5.4083,-5.3848,0.0,0.0,0.0,0.0,0.0,0.0,0.0,0.0,0.0,0.0,0.0,0.0,0.0,0.0,0.0,0.0,0.0,0.0,0.0,0.0,0.0,0.0,0.0,0.0,0.0,0.0,0.0,0.0,0.0,0.0,0.0,-7.0939,-7.0939,-7.0507,-6.9561,-7.0175,-6.9969,-6.8823,-6.7517,-6.6813,-6.6813,-6.7129,-6.7411,-6.7621,-6.7539,-6.781,-6.8264,-6.7565,-6.7792,-6.8673,-6.8436,-6.891,-6.9823,-6.9823,-7.0263,-7.0973,-7.121,-7.1312,-7.1312,0.0,0.0,0.0,0.0,0.0,0.0,0.0,0.0,-5.1096,-5.1867,0.0,0.0,0.0,0.0,0.0,-5.5596,-5.5647,-5.5669,-5.5596,-5.5596,-5.5941,-5.6785,0.0,0.0,0.0,0.0,0.0,0.0,0.0,0.0,0.0,0.0,-6.5705,-6.8641,-6.7173,-6.8678,-7.2239,0.0,-6.9486,-6.8458,0.0,-6.2218,-6.3172,0.0,0.0,0.0,-6.3912,-6.3196,0.0,-5.9236,0.0,0.0,0.0,-5.6361,-5.5559,-5.4818,-5.4606,0.0,0.0,0.0,0.0,0.0,0.0,0.0,0.0,0.0,0.0,0.0,0.0,0.0,0.0,0.0,0.0,0.0,0.0,0.0,0.0,0.0,0.0,0.0,0.0,0.0,0.0,0.0,0.0,0.0,-7.1334,-7.0995,-7.0284,-7.0226,-6.9612,-6.8289,-6.827,-6.7957,-6.7337,-6.6382,-6.5902,-6.5939,-6.6813,-6.6848,-6.6046,-6.7764,-6.8539,-6.8504,-6.8299,-6.8086,-6.7802,-6.7083,-6.7692,-6.9122,-6.9079,-6.9562,-7.0307,-7.1007,-7.1312,-7.1312,0.0,0.0,0.0,0.0,0.0,0.0,-5.0325,-5.0655,-5.1096,0.0,0.0,0.0,-5.3995,-5.5831,-5.7079,-5.7299,-5.7336,-5.6822,-5.5706,-5.5596,-5.5941,-5.6785,-5.6822,-5.7189,0.0,0.0,0.0,0.0,0.0,0.0,0.0,0.0,0.0,0.0,-6.5888,-6.7136,-6.8017,-6.5778,0.0,0.0,-6.464,-6.4934,0.0,0.0,0.0,0.0,0.0,-6.6308,-6.6587,0.0,-6.35,-6.2025,0.0,0.0,0.0,0.0,0.0,0.0,-5.4359,0.0,0.0,0.0,0.0,0.0,0.0,0.0,0.0,0.0,0.0,0.0,0.0,0.0,0.0,0.0,0.0,0.0,0.0,0.0,0.0,0.0,0.0,0.0,0.0,0.0,0.0,0.0,-7.2084,-7.1625,-7.1455,-7.0368,-6.991,-7.023,-6.8587,-6.768,-6.7505,-6.6678,-6.6264,-6.6264,-6.6523,-6.7158,-6.8072,-6.8458,-6.8626,-6.8629,-6.8504,-6.7673,-6.6465,-6.6697,-6.7781,-6.922,-6.8498,-6.945,-7.1137,-7.0673,-7.0838,-7.1312,0.0,0.0,0.0,0.0,0.0,-5.1353,-5.2197,-5.2307,-5.2601,0.0,0.0,0.0,-5.5757,-5.8657,-6.0126,-5.9098,-5.8988,-5.8474,-5.7189,-5.6785,-5.6822,-5.7299,-5.7299,-5.7519,-5.7997,0.0,0.0,0.0,0.0,0.0,0.0,0.0,0.0,0.0,0.0,0.0,0.0,0.0,0.0,0.0,-6.6402,0.0,0.0,-6.8421,-6.9265,0.0,0.0,0.0,-7.1035,-6.8743,-6.6424,0.0,0.0,0.0,0.0,0.0,0.0,0.0,0.0,0.0,0.0,0.0,0.0,0.0,-5.9207,-6.0006,0.0,0.0,0.0,0.0,0.0,0.0,0.0,0.0,0.0,0.0,0.0,0.0,0.0,0.0,0.0,0.0,0.0,-7.2897,-7.2844,-7.3102,-7.2678,-7.1971,-7.0979,-6.946,-6.8919,-6.9521,-6.7514,-6.6659,-6.7157,-6.6293,-6.5862,-6.5862,-6.6584,-6.7251,-6.7875,-6.8495,-6.877,-6.8777,-6.8626,-6.8001,-6.706,-6.7017,-6.758,-6.8423,-6.813,-6.9282,-7.1069,-7.0463,-7.0669,-7.1312,0.0,0.0,0.0,-5.0875,-5.2344,-5.3628,-5.4546,-5.4656,-5.495,0.0,-5.5537,-5.6345,-5.9061,-6.2438,-6.3576,-6.1263,-6.0823,-6.0272,-5.9258,-5.8437,-5.7997,-5.7997,-5.7997,-5.7997,-5.7997,-5.7997,0.0,0.0,0.0,0.0,0.0,0.0,0.0,0.0,0.0,0.0,0.0,0.0,0.0,-6.6256,-6.8054,-6.9449,0.0,0.0,-7.3854,-7.4111,-7.4111,-7.4625,-7.4808,-7.1468,-6.8274,0.0,0.0,0.0,0.0,0.0,-5.8185,0.0,0.0,0.0,0.0,0.0,0.0,0.0,-6.0463,-5.964,-5.835,0.0,0.0,0.0,0.0,0.0,0.0,0.0,0.0,0.0,0.0,0.0,0.0,0.0,0.0,0.0,-7.2106,-7.33,-7.3824,-7.3187,-7.2974,-7.1943,-6.9741,-6.825,-6.7511,-6.7511,-6.5935,-6.5428,-6.6196,-6.5488,-6.5104,-6.5141,-6.6652,-6.7053,-6.647,-6.8041,-6.8715,-6.8623,-6.8681,-6.8569,-6.8242,-6.7593,-6.7306,-6.7301,-6.7877,-6.9011,-7.0349,-7.0054,-7.0466,-7.1176,0.0,0.0,-5.0271,-5.238,-5.3518,-5.4656,-5.6124,-5.6345,-5.6638,-5.7409,-5.9648,-6.2842,-6.7247,-6.7283,-6.6512,-6.5411,-6.3503,-6.1447,-5.9331,-5.8437,-5.7997,-5.7997,-5.7997,-5.7997,-5.7997,-5.7997,-5.7997,0.0,0.0,0.0,0.0,0.0,0.0,0.0,0.0,0.0,0.0,0.0,0.0,-6.3796,-6.6733,0.0,-7.3046,-7.3523,-7.4918,-7.6576,-7.6576,-7.7157,-7.7268,-7.334,-7.033,-6.7424,0.0,0.0,0.0,-5.8738,0.0,0.0,0.0,0.0,0.0,0.0,-6.0643,0.0,-5.8555,-5.8959,-5.9838,0.0,0.0,0.0,0.0,0.0,0.0,0.0,0.0,0.0,0.0,0.0,0.0,0.0,0.0,0.0,-7.4224,-7.3261,-7.29,-7.353,-7.2358,-7.1155,-7.0055,-6.9107,-6.8288,-6.7689,-6.671,-6.5621,-6.444,-6.4874,-6.5104,-6.5075,-6.5381,-6.5806,-6.644,-6.7415,-6.7474,-6.696,-6.8296,-6.7692,-6.5821,-6.7076,-6.7873,-6.8151,-6.7519,-6.8215,-6.952,-6.8659,-6.9214,-7.0531,0.0,0.0,-5.1426,-5.3445,-5.5133,-5.6859,-5.8877,-5.9208,-5.9795,-6.1447,-6.5154,-6.7834,-6.8274,-6.9009,-6.8348,-6.5558,-6.3392,-6.152,-5.9881,-5.8657,-5.7997,-5.7997,-5.7997,-5.7997,-5.7997,-5.7997,-5.7997,-5.7997,0.0,0.0,0.0,0.0,0.0,0.0,0.0,0.0,0.0,0.0,-6.1961,-6.3796,-6.7871,0.0,-7.3891,-7.5506,-7.7121,-7.8552,-7.8552,-7.8589,-7.8038,-7.4331,-7.2018,0.0,-6.5496,-6.4109,-6.3711,0.0,-6.1071,-6.0861,0.0,0.0,0.0,-6.0537,-6.1053,0.0,0.0,-5.8707,-5.8457,0.0,0.0,0.0,0.0,0.0,0.0,0.0,0.0,0.0,0.0,0.0,0.0,0.0,0.0,0.0,-7.2382,-7.2345,-7.2237,-7.1916,-7.0036,-6.8752,-6.8311,-6.754,-6.6916,-6.6512,-6.5705,-6.4862,-6.4012,-6.4776,-6.5176,-6.5213,-6.5967,-6.6368,-6.6434,-6.7252,-6.6944,-6.5779,-6.7547,-6.7302,-6.5811,-6.7137,-6.7547,-6.7268,-6.7198,-6.8138,-6.9462,-6.886,-6.9921,-7.1694,-4.77,0.0,-5.227,-5.3885,-5.6308,-5.8694,-6.0823,-6.141,-6.2658,-6.5632,-6.9669,-7.1321,-6.8862,-7.0367,-7.022,-6.6916,-6.3833,-6.1998,-6.1814,-5.9575,-5.8143,-5.7997,-5.7997,-5.807,-5.8217,-5.807,-5.807,-5.8217,0.0,0.0,0.0,0.0,0.0,0.0,0.0,0.0,0.0,0.0,0.0,-6.5154,0.0,-7.1835,-7.3377,-7.679,-7.8626,-7.936,-7.9653,-7.936,-7.8332,-7.5028,-7.3413,-7.2063,-6.8184,-6.6956,0.0,0.0,0.0,0.0,0.0,0.0,0.0,0.0,0.0,-6.1116,0.0,0.0,0.0,0.0,0.0,0.0,0.0,0.0,0.0,0.0,0.0,0.0,0.0,0.0,0.0,0.0,0.0,0.0,-6.9508,-7.0617,-7.0697,-6.9082,-6.7283,-6.6182,-6.6035,-6.5558,-6.5228,-6.5081,-6.442,-6.4016,-6.3833,-6.4824,-6.5301,-6.5338,-6.6746,-6.7089,-6.6434,-6.7146,-6.6634,-6.5326,-6.6816,-6.7024,-6.6464,-6.7174,-6.6819,-6.5992,-6.7153,-6.8256,-6.9208,-6.9383,-7.0842,-7.2717,-4.9353,-5.0178,0.0,-5.3078,-5.5904,-5.8327,-5.9294,-6.0676,-6.3246,-6.7907,-7.022,-7.2614,-7.5732,0.0,0.0,0.0,-6.8458,-6.4677,-6.6733,-6.1961,-5.8767,-5.8033,-5.7997,-5.8327,-5.9038,-5.8364,-5.8364,-5.9038,0.0,0.0,0.0,0.0,0.0,0.0,-5.8767,0.0,0.0,0.0,-6.3723,0.0,-6.9449,-7.033,0.0,-7.4882,-7.69,-7.7781,-7.925,-7.9727,-7.914,0.0,-7.4221,-7.2996,0.0,-6.8611,-6.8284,-6.6606,0.0,0.0,0.0,0.0,0.0,0.0,-6.6439,-6.7183,-6.0799,0.0,-6.1263,-5.8359,0.0,0.0,0.0,0.0,0.0,0.0,0.0,0.0,0.0,0.0,0.0,0.0,0.0,0.0,0.0,-6.7486,-6.6512,-6.4897,-6.5191,-6.5118,-6.442,-6.4971,-6.4971,-6.4237,-6.4127,-6.3723,-6.2989,-6.453,-6.5301,-6.5312,-6.6147,-6.6493,-6.6404,-6.6493,-6.6434,-6.6247,-6.6464,-6.6493,-6.6404,-6.6493,-6.6007,-6.5349,-6.7665,-6.8074,-6.7553,-6.91,-7.0273,-7.1303,-4.961,-5.0618,0.0,0.0,-5.5794,-5.807,-6.0272,-6.4383,-6.8128,-7.066,-7.323,0.0,0.0,0.0,0.0,0.0,0.0,-6.6733,0.0,0.0,-6.0456,-6.0089,-5.9648,-5.9538,-5.9905,-5.9134,-5.8621,-5.851,-5.818,0.0,0.0,0.0,0.0,0.0,-5.9038,0.0,-6.1814,0.0,-6.4127,0.0,0.0,0.0,0.0,-7.5652,-7.8038,-7.8772,-7.9029,-7.9103,-7.8662,0.0,-7.4698,0.0,0.0,0.0,0.0,-6.8893,0.0,0.0,0.0,0.0,0.0,0.0,0.0,0.0,-6.2842,-6.1704,-6.0896,-5.9098,0.0,0.0,0.0,0.0,0.0,0.0,-5.9134,0.0,0.0,0.0,0.0,0.0,0.0,0.0,0.0,0.0,0.0,0.0,-6.2548,-6.2328,-6.1961,-6.2291,-6.2511,-6.2658,-6.2658,-6.2695,-6.278,-6.4016,-6.4861,-6.5338,-6.608,-6.6445,-6.6434,-6.691,-6.6582,-6.5649,-6.67,-6.6881,-6.6434,-6.6939,-6.6641,-6.6012,-6.8028,-6.8502,-6.8282,-6.9902,-7.1336,-7.2581,-5.0198,0.0,0.0,0.0,0.0,-5.796,-6.141,-6.6145,0.0,0.0,0.0,0.0,-7.9029,-7.7781,0.0,0.0,-7.3854,-7.022,0.0,0.0,-6.2548,-6.163,-6.0823,-6.0493,-6.0713,-5.9722,-5.9001,-5.8657,0.0,0.0,0.0,0.0,0.0,0.0,0.0,-6.1667,-6.3514,0.0,0.0,-6.8898,-6.9816,-7.0954,-7.2496,-7.6423,-7.8552,-7.9396,-7.8809,-7.8589,-7.8259,-7.5983,-7.5249,0.0,-7.3597,-7.2606,-7.1798,0.0,0.0,0.0,-6.8898,0.0,0.0,0.0,0.0,0.0,-6.3796,-6.2548,-6.1337,-5.9808,-6.0089,0.0,0.0,0.0,0.0,0.0,0.0,-5.8474,0.0,0.0,0.0,0.0,0.0,0.0,0.0,0.0,0.0,-6.0309,-5.9758,-5.9501,-5.9722,-5.9942,-6.0456,-6.1263,-6.1484,-6.1887,-6.2475,-6.3539,-6.4494,-6.5301,-6.6109,-6.661,-6.6794,-6.7433,-6.6959,-6.5806,-6.6874,-6.7146,-6.6794,-6.7174,-6.7117,-6.6896,-6.8348,-6.9003,-6.9334,-7.0646,-7.2097,-7.3377,-5.1756,-5.194,0.0,0.0,0.0,0.0,0.0,0.0,0.0,0.0,0.0,0.0,0.0,0.0,0.0,0.0,0.0,-7.6166,-7.687,0.0,-6.4934,0.0,-6.0823,-6.075,-6.152,-6.0015,-5.9551,-6.0309,0.0,0.0,0.0,0.0,0.0,0.0,0.0,-6.442,-6.5411,-6.8531,-7.1725,-7.4588,-7.3854,-7.4955,-7.698,0.0,-7.7194,-7.8626,-7.8589,0.0,0.0,-7.6644,-7.6056,0.0,0.0,0.0,0.0,0.0,0.0,0.0,0.0,0.0,0.0,-6.8458,0.0,0.0,0.0,-6.3466,-6.4237,-6.1043,-6.2254,-6.3209,-6.0786,-6.0309,-6.0089,-5.9294,0.0,0.0,0.0,0.0,0.0,0.0,0.0,0.0,0.0,0.0,-5.7776,-5.7005,-5.6932,-5.7262,-5.8033,-5.8841,-5.9588,-6.0419,-6.119,-6.1594,-6.163,-6.3282,-6.4494,-6.5301,-6.6109,-6.6916,-6.766,-6.7687,-6.7687,-6.7569,-6.6794,-6.691,-6.7606,-6.6794,-6.691,-6.7734,-6.8568,-6.9348,-7.0155,-7.0971,-7.1806,-7.2642,0.0,0.0,0.0,0.0,0.0,0.0,0.0,-6.5264,0.0,0.0,-7.6827,0.0,0.0,-8.6407,-8.6628,0.0,0.0,-8.1489,-7.9103,-7.4625,0.0,-6.9669,-6.7797,-6.6182,-6.4861,-6.3796,-6.2328,-6.0419,0.0,0.0,0.0,0.0,0.0,0.0,0.0,-6.431,0.0,0.0,0.0,0.0,0.0,-7.5983,-7.8075,0.0,-7.7268,-7.7745,-7.7745,-7.7745,0.0,-7.7121,-7.6533,-7.6056,-7.5799,-7.5139,-7.4331,-7.3523,-7.367,-7.3927,0.0,0.0,-7.3964,-7.022,0.0,0.0,0.0,-6.4714,-6.5154,-6.1851,-6.3172,-6.398,-6.097,-6.0419,-6.0162,-5.9331,-5.9184,0.0,0.0,0.0,0.0,0.0,0.0,0.0,0.0,0.0,0.0,-5.6051,-5.6014,-5.6124,-5.6381,-5.7189,-5.8194,-5.9551,-6.0382,-6.1337,-6.2401,-6.2952,-6.3686,-6.453,-6.5338,-6.6145,-6.6916,-6.7467,-6.7687,-6.7687,-6.7405,-6.7433,-6.7687,-6.7405,-6.7433,-6.7724,-6.7981,-6.8898,-7.0183,-7.1027,-7.1835,-7.2532,-5.4106,0.0,0.0,0.0,0.0,0.0,0.0,0.0,0.0,0.0,-8.0277,0.0,-8.9931,0.0,-9.0188,0.0,-8.9197,-8.5967,-8.1379,-7.9103,0.0,-7.3817,-7.2202,-7.0257,-6.7834,-6.699,-6.4824,-6.1263,0.0,-6.0432,0.0,0.0,0.0,0.0,0.0,0.0,-6.6329,0.0,-7.2422,0.0,0.0,-7.6717,0.0,0.0,-7.7494,-7.7745,0.0,-7.7273,-7.7273,-7.7273,-7.6943,-7.6533,-7.6533,-7.5983,-7.5175,-7.4368,-7.4478,-7.4735,-7.3927,-7.4441,-7.4551,-7.1651,-7.0734,-6.9633,-6.6145,-6.6623,-6.6953,-6.3943,-6.4604,-6.5081,-6.2952,-6.1594,-6.0676,-6.0162,-5.9551,-5.8914,0.0,-5.7997,0.0,0.0,0.0,0.0,0.0,0.0,-5.5721,-5.5207,-5.4913,-5.4987,0.0,-5.6088,-5.7116,-5.8731,-5.9832,-6.0896,-6.1961,-6.2511,-6.3246,-6.409,-6.464,-6.5301,-6.6109,-6.6916,-6.7247,-6.7283,-6.7577,-6.7687,-6.7687,-6.7687,-6.7687,-6.7724,-6.8017,-6.8935,-7.0146,-7.0697,-7.1578,-7.2496,-5.5757,0.0,0.0,0.0,-5.7152,0.0,0.0,0.0,-7.4845,0.0,-8.2406,-8.6444,-9.0482,-9.0959,-9.1877,-9.4153,-9.2905,-8.9674,-8.4242,-8.3765,0.0,0.0,-7.4258,-7.301,-7.0513,-6.9596,-6.7173,0.0,0.0,0.0,0.0,0.0,0.0,0.0,-6.3466,0.0,-6.5742,-7.2092,-7.4845,-7.5102,-7.665,-7.731,-7.7347,-7.7273,-7.7781,-7.8405,-7.7561,-7.7237,-7.7237,-7.7237,-7.7273,-7.7273,-7.7273,-7.679,-7.6019,-7.5212,-7.4992,-7.4845,-7.4037,-7.3854,-7.367,-7.2826,-7.2018,-7.0807,-6.8421,-6.9082,-6.9522,-6.71,-6.6659,-6.6623,-6.6476,-6.3833,-6.163,0.0,-6.0199,-5.8877,0.0,0.0,0.0,0.0,0.0,0.0,0.0,-5.5317,-5.4363,-5.4326,-5.3628,-5.3885,0.0,-5.5596,-5.6345,-5.796,-5.9575,-6.0419,-6.0456,-6.2034,-6.3209,-6.4016,-6.4053,-6.4494,-6.5264,-6.6109,-6.6512,-6.6549,-6.7357,-6.7687,-6.7687,-6.7687,-6.7687,-6.776,-6.8531,-6.9376,-7.011,-7.0183,-7.1174,-7.2496,-5.589,-5.6895,-5.7973,0.0,-5.818,-6.0236,0.0,0.0,0.0,0.0,-8.6554,-9.0629,-9.4703,-9.5658,-9.5804,-9.5254,-9.4813,0.0,0.0,0.0,0.0,-8.4572,-8.2186,-7.9213,-7.5616,-7.3523,-7.077,-6.7357,0.0,0.0,-6.3943,0.0,0.0,0.0,0.0,0.0,-6.5632,-7.0881,-7.4147,-7.5873,-7.687,-7.7708,-7.8148,0.0,-7.6937,-7.7561,-7.6717,-7.6423,-7.6423,-7.6423,-7.6827,-7.7273,-7.7273,-7.7163,-7.6827,-7.6019,-7.624,-7.6503,-7.5689,-7.5909,-7.6056,-7.4625,-7.367,-7.2606,-7.0807,-7.1174,-7.1211,-6.8788,-6.8752,-6.8458,-6.6072,-6.3906,-6.2108,0.0,0.0,0.0,0.0,0.0,0.0,-5.7997,0.0,0.0,-5.5904,-5.4987,-5.4142,-5.3555,-5.3314,-5.3665,-5.4656,0.0,-5.6345,-5.796,-5.9575,-6.0676,-6.13,-6.2291,-6.2915,-6.3135,-6.3796,-6.42,-6.4457,-6.5852,-6.6512,-6.6549,-6.7357,-6.7687,-6.7687,-6.7687,-6.7687,-6.7724,-6.7907,-6.8862,-7.022,-7.1431,-7.2165,-7.2496,-5.7813,0.0,0.0,-6.2328,0.0,0.0,-6.9192,-7.2165,0.0,-8.3177,-8.7876,0.0,-9.4263,-9.6245,-9.7163,-9.6612,-9.6245,0.0,-9.2684,0.0,0.0,-8.8316,-8.6481,-8.3471,-7.9066,-7.6533,-7.3193,-6.8898,-6.4714,0.0,-6.4127,0.0,0.0,0.0,0.0,-6.3649,0.0,-6.9926,-7.378,-7.6607,-7.6319,-7.6754,0.0,-7.6056,-7.5652,-7.5689,-7.5212,-7.5285,-7.5616,-7.5983,-7.6423,-7.679,-7.679,-7.7047,-7.7053,-7.5909,-7.6166,-7.6607,-7.5799,-7.5909,-7.613,-7.5579,-7.5065,-7.4404,-7.3156,-7.2679,-7.2129,-7.077,-6.9449,-6.8201,-6.71,-6.464,-6.2181,0.0,0.0,0.0,0.0,0.0,0.0,0.0,-5.6895,0.0,-5.5633,-5.4546,-5.3702,-5.3203,-5.3203,-5.3555,0.0,0.0,-5.6161,-5.7446,-6.0052,-6.1337,-6.108,-6.2952,-6.3539,-6.278,-6.3319,-6.3539,-6.3576,-6.5228,-6.5999,-6.6035,-6.7173,-6.7687,-6.7687,-6.7687,-6.7687,-6.776,-6.8458,-6.9706,-7.1248,-7.2165,-7.2496,-7.2496,-6.0456,0.0,0.0,0.0,0.0,0.0,0.0,-7.6423,0.0,-8.3838,0.0,-9.1913,-9.2391,-9.518,-9.7199,-9.7676,0.0,-9.5437,-9.2464,-9.3529,-9.2648,-8.9014,-8.8647,-8.6334,-8.1746,-7.8919,-7.4808,-6.9376,-6.5705,-6.3539,0.0,0.0,0.0,0.0,0.0,0.0,0.0,-6.9119,-7.3164,-7.6576,-7.5395,-7.5395,-7.6019,-7.5102,-7.4294,-7.367,-7.356,-7.4074,-7.4845,-7.5542,-7.5946,-7.6093,-7.6093,-7.6644,-7.7017,-7.5652,-7.5652,-7.5983,-7.5395,-7.5139,-7.5249,-7.6056,-7.6166,-7.5909,-7.5212,-7.3817,-7.2679,-7.2679,-6.9633,-6.732,-6.8531,-6.5301,0.0,0.0,0.0,0.0,0.0,0.0,0.0,0.0,0.0,0.0,0.0,-5.4289,-5.3314,-5.3203,-5.3203,0.0,0.0,0.0,-5.5978,-5.6785,-6.0493,-6.1998,-6.0896,-6.3723,-6.4567,-6.3466,-6.3246,-6.3099,-6.3025,-6.4604,-6.5301,-6.5375,-6.688,-6.7577,-6.7687,-6.7687,-6.7687,-6.7834,-6.9449,-7.0954,-7.2202,-7.2422,-7.2496,-7.2496,0.0,0.0,0.0,0.0,0.0,-7.646,-7.9947,-8.2663,-8.5527,-8.8904,-9.4189,-9.7163,-9.5988,-9.753,-9.819,-9.7016,-9.6795,0.0,0.0,0.0,0.0,-9.2317,-9.0922,-8.8536,-8.5049,-8.0645,-7.624,-7.1872,-6.5925,-6.2952,-6.2732,0.0,0.0,0.0,0.0,0.0,-6.6219,-6.8421,0.0,-7.345,-7.4478,-7.5395,-7.5946,-7.4478,-7.3817,-7.3597,-7.2936,-7.323,-7.3927,-7.4074,-7.4992,-7.6093,-7.6093,-7.6644,-7.7237,-7.6943,-7.6533,-7.6203,-7.6723,-7.6423,-7.6093,-7.69,-7.6607,-7.6056,-7.5909,-7.4625,-7.3487,-7.3487,-7.1358,-6.9155,-6.8091,-6.4016,-6.0456,0.0,0.0,0.0,0.0,0.0,0.0,0.0,0.0,-5.6748,0.0,0.0,0.0,0.0,0.0,0.0,0.0,0.0,-5.5978,0.0,-5.9428,-6.1667,0.0,0.0,-6.5154,-6.6806,-6.5521,-6.453,-6.3906,-6.4861,-6.5301,-6.5375,-6.6292,-6.71,-6.7687,-6.7687,-6.7687,-6.7834,-6.9449,-7.0257,-7.066,-7.2018,-7.2496,-7.2496,0.0,0.0,0.0,0.0,0.0,0.0,0.0,-8.872,-9.0629,-9.0078,-9.2721,-9.4556,-9.4226,-9.6392,-9.7713,-9.7346,-9.6942,-9.6355,-9.5547,-9.474,-9.3932,-9.3125,-9.1877,-8.9528,-8.5857,-8.1489,-7.7011,-7.2496,-6.5999,-6.2585,-6.2108,0.0,0.0,0.0,0.0,-6.3833,0.0,0.0,0.0,-7.3193,-7.3964,-7.4771,-7.5322,-7.3707,-7.3083,-7.3046,-7.2642,-7.2753,-7.312,-7.356,-7.4478,-7.5469,-7.5469,-7.635,-7.7127,-7.6283,-7.6093,-7.6093,-7.6093,-7.5799,-7.5689,-7.6497,-7.6093,-7.5579,-7.6019,-7.4845,-7.3707,-7.3707,-7.2129,-7.011,-6.8054,-6.4383,-6.152,-6.1129,-5.9685,-5.8621,0.0,0.0,-5.7997,0.0,0.0,0.0,0.0,0.0,0.0,0.0,0.0,-5.335,-5.3775,0.0,-5.5757,0.0,0.0,0.0,-6.2181,0.0,-6.5485,-6.5815,-6.5485,-6.5118,-6.4751,-6.5558,-6.5925,-6.5962,-6.6769,-6.732,-6.7687,-6.7687,-6.8164,-6.9009,-6.9779,-7.0624,-7.1431,-7.2202,-7.2496,-7.2496,0.0,-7.3156,0.0,0.0,-8.2223,0.0,-8.916,-9.3161,-9.463,-9.14,-9.1657,-9.2354,-9.2868,-9.5327,-9.7126,-9.7603,-9.7052,-9.6282,-9.5327,-9.4666,-9.3859,-9.2868,-9.1987,-8.9821,-8.6151,-8.2113,-7.7488,-7.2239,-6.6256,-6.2585,-6.1043,0.0,0.0,0.0,0.0,0.0,0.0,0.0,-7.1248,-7.345,-7.3817,-7.4331,-7.4735,-7.3303,-7.2642,-7.2496,-7.2496,-7.2496,-7.2606,-7.323,-7.3964,-7.4661,-7.4661,-7.5763,-7.6827,-7.5542,-7.5616,-7.6019,-7.5542,-7.5285,-7.5359,-7.6166,-7.5763,-7.5285,-7.5726,-7.4735,-7.3634,-7.3487,-7.2165,-7.0367,-6.8091,-6.5301,-6.3184,-6.2853,-6.0909,-5.9404,0.0,0.0,-5.818,0.0,0.0,0.0,-5.6014,0.0,0.0,0.0,0.0,-5.3203,-5.3203,-5.473,-5.5596,0.0,0.0,-6.2034,-6.1447,0.0,-6.5962,-6.5375,-6.5668,-6.5742,-6.5595,-6.6219,-6.6512,-6.6549,-6.7173,-6.754,-6.7687,-6.7687,-6.8531,-6.9853,-7.0036,-7.0991,-7.2275,-7.2459,-7.2496,-7.2496,0.0,0.0,0.0,0.0,0.0,-8.9234,-9.0335,-9.3969,-9.6465,-9.6061,-9.6722,-9.6979,-9.6318,-9.7163,-9.753,-9.6869,-9.6722,-9.6061,-9.452,-9.4336,-9.3565,-9.1987,-9.1143,-8.9528,-8.6958,-8.2957,-7.7781,-7.1403,-6.7173,-6.311,-5.9404,0.0,0.0,0.0,0.0,0.0,0.0,-6.7981,-7.0403,-7.2753,-7.4221,-7.4845,-7.4808,-7.3927,-7.312,-7.2496,-7.2496,-7.2496,-7.2496,-7.2606,-7.3156,-7.3817,-7.3817,-7.4918,-7.6166,-7.6019,-7.6056,-7.624,-7.687,-7.6533,-7.6166,-7.698,-7.6607,-7.5836,-7.5175,-7.4331,-7.3487,-7.2753,-7.1321,-6.9706,-6.7981,-6.6256,-6.4567,-6.3037,-6.141,-6.0052,0.0,0.0,-5.8841,-5.8107,0.0,0.0,-5.6859,-5.6014,0.0,0.0,-5.3665,-5.3203,-5.3203,-5.473,-5.5596,-5.5596,-5.8877,-6.1998,-6.4824,-6.5228,-6.6806,-6.9522,-6.8128,-6.71,-6.6402,-6.6476,-6.6512,-6.6512,-6.6586,-6.7026,-6.7687,-6.7687,-6.8201,-6.9082,-6.9816,-7.066,-7.1476,-7.2239,-7.2496,-7.2496,0.0,0.0,0.0,0.0,0.0,0.0,0.0,-9.5658,-9.6685,-9.6685,-9.6979,-9.7052,-9.6722,-9.6979,-9.6869,-9.6061,-9.5988,-9.529,-9.3675,-9.3565,-9.3051,-9.184,-9.1033,-8.9491,-8.7068,-8.3544,-7.8772,-7.2753,-6.9192,-6.5375,-6.1349,-6.086,0.0,0.0,0.0,-6.4457,-6.6916,-6.9816,-7.1908,-7.3303,-7.4441,-7.4918,-7.4771,-7.3487,-7.2789,-7.2459,-7.1945,-7.2092,-7.2422,-7.1945,-7.2642,-7.3707,-7.3707,-7.4478,-7.5469,-7.5946,-7.6093,-7.6276,-7.7053,-7.7053,-7.69,-7.72,-7.6717,-7.5909,-7.5102,-7.4294,-7.345,-7.2679,-7.1211,-6.9889,-6.9265,-6.743,-6.5632,-6.4494,-6.2511,0.0,0.0,0.0,0.0,-5.8033,0.0,-5.8033,0.0,-5.6051,0.0,0.0,0.0,-5.3408,-5.3885,-5.4987,-5.5794,-5.6308,0.0,-6.1263,-6.3062,-6.4567,-6.6182,-6.7944,-6.776,-6.7504,-6.721,-6.721,-6.721,-6.721,-6.721,-6.7393,-6.7687,-6.7687,-6.8164,-6.8972,-6.9779,-7.0587,-7.1431,-7.2202,-7.2496,-7.2496,-8.5416,0.0,-8.5894,0.0,-9.0959,-9.1767,-9.6061,-9.6685,-9.6685,-9.6685,-9.6685,-9.6685,-9.6685,-9.6685,-9.6465,-9.5914,-9.5658,-9.4923,-9.3529,-9.3235,-9.2721,-9.184,-9.0812,0.0,-8.7399,-8.4205,-7.9984,-7.4771,-7.1541,-6.7871,-6.387,-6.3062,0.0,0.0,-6.4861,-6.6366,-6.8568,-7.1321,-7.3083,-7.4111,-7.4918,-7.5139,-7.4771,-7.3377,-7.2716,-7.2422,-7.1872,-7.2018,-7.2422,-7.1835,-7.2422,-7.334,-7.334,-7.4074,-7.4992,-7.5285,-7.5909,-7.6533,-7.6864,-7.6974,-7.698,-7.7237,-7.6717,-7.5946,-7.5395,-7.4625,-7.3744,-7.2716,-7.1394,-7.0367,-7.0146,-6.8495,-6.6806,-6.5521,-6.3429,0.0,0.0,-5.9208,0.0,-5.8033,-5.8217,-5.796,-5.6895,-5.6308,0.0,0.0,0.0,-5.4142,-5.473,-5.528,-5.5978,0.0,0.0,0.0,-6.1924,-6.42,-6.5962,-6.721,-6.754,-6.7797,-6.8017,-6.7797,-6.7687,-6.7687,-6.7687,-6.7687,-6.7687,-6.7687,-6.8311,-6.9302,-6.9889,-7.0734,-7.1725,-7.2312,-7.2496,-7.2496,-8.7692,-8.8793,-9.0372,-9.3675,-9.4887,-9.5694,-9.6575,-9.6685,-9.6685,-9.6685,-9.6685,-9.6685,-9.6685,-9.6685,-9.6685,-9.6685,-9.5951,-9.5144,-9.4336,-9.3529,-9.2721,0.0,0.0,-8.905,-8.8206,-8.5049,-8.1346,-7.7237,0.0,0.0,-6.6439,0.0,-6.6109,-6.7614,-6.7677,-6.8531,-7.0183,-7.1798,-7.3413,-7.4955,-7.5763,-7.5616,-7.4808,-7.4001,-7.3193,-7.2496,-7.2496,-7.2496,-7.2496,-7.2496,-7.2496,-7.2496,-7.2496,-7.3634,-7.4771,-7.3964,-7.5432,-7.709,-7.635,-7.613,-7.6313,-7.709,-7.6717,-7.6093,-7.6093,-7.5469,-7.4441,-7.2826,-7.1872,-7.1064,-7.0257,-6.9412,-6.8091,-6.5705,-6.3906,0.0,0.0,-5.9698,0.0,-5.8107,-5.8694,-5.8561,-5.6969,-5.6785,0.0,0.0,0.0,0.0,0.0,0.0,0.0,-5.6785,-5.9134,0.0,-6.2743,-6.4457,-6.6512,-6.8862,-6.8091,-6.8128,-6.8862,-6.8054,-6.7687,-6.7687,-6.7687,-6.7687,-6.7687,-6.7687,-6.8641,-7.0073,-7.011,-7.1064,-7.2496,-7.2496,-7.2496,-7.2496,-9.0408,-9.1363,-9.2427,-9.4006,-9.496,-9.5584,-9.5841,-9.5878,-9.5694,-9.5144,-9.507,-9.507,-9.507,-9.6025,-9.6025,0.0,-9.452,-9.4079,0.0,-9.2354,-9.2097,-9.1803,-9.0262,-8.8793,-8.7435,-8.4792,-8.1383,-7.7273,0.0,0.0,0.0,-6.8972,-6.9155,-7.0183,-7.0734,-7.1541,-7.2642,-7.4258,-7.5249,-7.5689,-7.5395,-7.5139,-7.4771,-7.3413,-7.2386,-7.1615,-7.1064,-7.0844,-7.0844,-7.0844,-7.1248,-7.1798,-7.2349,-7.2863,-7.334,-7.3597,-7.4221,-7.5028,-7.5873,-7.6093,-7.6276,-7.709,-7.709,-7.679,-7.624,-7.5065,-7.378,-7.2716,-7.1872,-7.1064,-7.0257,-6.8972,-6.7467,-6.5595,-6.3429,-6.1594,-6.0566,0.0,-5.829,-5.8033,-5.8217,-5.818,-5.7666,-5.7116,0.0,0.0,0.0,0.0,0.0,0.0,0.0,0.0,-6.0236,0.0,-6.3686,-6.5301,-6.7063,-6.8898,-6.8091,-6.8128,-6.8898,-6.8641,-6.8531,-6.8495,-6.7944,-6.7687,-6.7687,-6.7687,-6.7981,-6.8568,-6.9669,-7.0403,-7.0991,-7.2092,-7.2496,-7.2496,-9.217,-9.2978,-9.3712,-9.4189,-9.4703,-9.507,-9.507,-9.507,-9.4887,-9.4373,-9.4299,-9.4189,-9.3859,-9.5034,0.0,-9.3675,-9.3712,-9.3418,-9.2354,-9.1987,-9.1803,-9.1803,-9.0262,-8.894,-8.7949,-8.5233,0.0,-7.914,-7.679,-7.4625,-7.2642,-7.1835,-7.1872,-7.265,-7.3193,-7.367,-7.4258,-7.5542,-7.5946,-7.5616,-7.5102,-7.4735,-7.4331,-7.301,-7.2018,-7.1219,-7.0734,-7.055,-7.055,-7.055,-7.1101,-7.1835,-7.2349,-7.2496,-7.2606,-7.3083,-7.367,-7.4294,-7.4992,-7.5432,-7.5836,-7.6644,-7.6864,-7.6717,-7.6203,-7.4845,-7.356,-7.3046,-7.2092,-7.1064,-7.0257,-6.8788,-6.7063,-6.5154,-6.3025,-6.119,-6.0126,-5.8841,-5.7997,-5.7997,-5.7997,-5.7997,-5.7997,-5.7556,-5.7446,0.0,0.0,0.0,0.0,0.0,-5.7997,-5.9588,-6.1227,-6.2989,-6.4971,-6.6292,-6.7907,-6.9816,-6.9302,-6.9155,-6.9339,-6.9339,-6.9339,-6.9302,-6.8495,-6.8128,-6.8128,-6.7797,-6.7871,-6.8274,-6.9596,-7.0293,-7.0697,-7.2018,-7.2496,-7.2496,-9.3015,-9.3639,-9.4226,-9.4226,-9.4263,-9.4263,-9.4226,-9.4226,-9.4189,-9.4116,-9.4116,-9.3822,-9.3088,-9.3675,-9.4116,-9.4116,0.0,0.0,-9.3015,-9.2244,-9.1767,-9.173,-9.0225,-8.9345,-8.9235,-8.6187,-8.3765,-8.2039,-7.7341,-7.5065,-7.5065,-7.4294,-7.4368,-7.5065,-7.5065,-7.5065,-7.5065,-7.5836,-7.5689,-7.4918,-7.4918,-7.4441,-7.3597,-7.2826,-7.2018,-7.1293,-7.1293,-7.1256,-7.1219,-7.1256,-7.1798,-7.2422,-7.2496,-7.2496,-7.2496,-7.2496,-7.356,-7.4588,-7.3891,-7.4294,-7.5102,-7.5909,-7.613,-7.6166,-7.613,-7.4882,-7.378,-7.3707,-7.2459,-7.1138,-7.0257,-6.8788,-6.6906,-6.4494,-6.2658,-6.097,-5.9404,-5.851,-5.7997,-5.7997,0.0,0.0,-5.807,-5.807,-5.8107,0.0,0.0,0.0,0.0,0.0,-5.8951,-6.0456,-6.2181,-6.42,-6.6549,-6.743,-6.8972,-7.1219,-7.1329,-7.0954,-7.0183,-7.0183,-7.0183,-7.0146,-6.9339,-6.8972,-6.8862,-6.8091,-6.8201,-6.8898,-6.9743,-7.055,-7.1321,-7.2202,-7.2496,-7.2496,0.0,0.0,-9.3382,-9.3382,-9.3896,-9.4079,-9.3492,-9.3382,-9.3161,-9.2464,-9.2391,-9.2317,-9.2134,-9.2281,-9.2391,-9.2391,-9.2831,-9.2831,-9.2134,-9.1913,-9.1546,-9.0922,-8.9931,-8.883,-8.7619,-8.5637,-8.3214,-8.0351,-7.7928,-7.6723,-7.6723,-7.654,-7.654,-7.6723,-7.6723,-7.6387,-7.5873,-7.668,-7.6203,-7.4918,-7.4918,-7.4441,-7.3597,-7.2826,-7.2018,-7.1293,-7.1293,-7.0917,-7.0477,-7.1101,-7.1431,-7.1688,-7.2312,-7.2496,-7.2496,-7.2496,-7.2789,-7.3156,-7.356,-7.4294,-7.5102,-7.5909,-7.657,-7.6864,-7.624,-7.5322,-7.4441,-7.3817,-7.2899,-7.1798,-7.0367,-6.8788,-6.6906,-6.4494,-6.2181,-6.0346,-5.9331,-5.851,-5.7997,-5.7997,-5.8547,-5.8914,-5.8914,-5.8914,-5.9171,0.0,0.0,-5.8731,-5.9795,-6.0419,-6.0933,-6.13,-6.4127,-6.6182,-6.7393,-6.8825,-6.9816,-7.0403,-7.1651,-7.1798,-7.1027,-7.1027,-7.1027,-7.0991,-7.0183,-6.9486,-6.8898,-6.8678,-6.8385,-6.8128,-6.9559,-7.022,-7.055,-7.1982,-7.2496,-7.2496,-9.2391,-9.2794,-9.3088,-9.3088,-9.3125,-9.3015,-9.2574,-9.2501,-9.2354,-9.184,-9.1803,-9.1803,-9.1803,-9.1803,-9.1803,-9.1803,-9.2244,-9.2281,-9.184,-9.1473,-9.1069,-9.0629,-8.9124,-8.7912,-8.7031,-8.4719,-8.2113,-7.925,-7.7965,-7.7273,-7.7273,-7.7273,-7.7273,-7.7273,-7.7273,-7.7053,-7.668,-7.709,-7.6607,-7.5432,-7.5065,-7.4441,-7.3597,-7.2826,-7.2018,-7.1293,-7.1293,-7.1027,-7.0734,-7.1174,-7.1541,-7.1945,-7.2349,-7.2496,-7.2496,-7.2496,-7.2496,-7.2606,-7.3046,-7.4001,-7.5175,-7.6387,-7.6423,-7.6276,-7.6607,-7.5175,-7.3891,-7.4184,-7.3303,-7.2018,-7.0403,-6.8458,-6.6329,-6.3906,-6.1447,-5.9575,-5.8767,-5.829,-5.8253,-5.9024,-5.9501,-6.0028,-6.0762,-6.0529,-6.0346,-6.0382,-5.9942,0.0,-6.0382,-6.2585,-6.3686,-6.3282,-6.5742,-6.7797,-6.9339,-7.0587,-7.1211,-7.1211,-7.2092,-7.2275,-7.1872,-7.1872,-7.1872,-7.1798,-7.0991,-7.0403,-6.9963,-6.9192,-6.8641,-6.8348,-6.9596,-6.9889,-6.9779,-7.1762,-7.2275,-7.2018,-9.2905,-9.2905,-9.2905,-9.2905,-9.2281,-9.1803,-9.1803,-9.1803,-9.1803,-9.1803,-9.1803,-9.1803,-9.1803,-9.1803,-9.1803,-9.1803,-9.1693,-9.162,-9.162,-9.0886,-9.0372,-9.0262,-8.8169,-8.6958,-8.6811,-8.3654,-8.0938,-7.8772,-7.7818,-7.7273,-7.7273,-7.7273,-7.7273,-7.7273,-7.7273,-7.7273,-7.7273,-7.7273,-7.6864,-7.6019,-7.5212,-7.4441,-7.3597,-7.2826,-7.2092,-7.1505,-7.1505,-7.1505,-7.1505,-7.1505,-7.1945,-7.2496,-7.2496,-7.2496,-7.2496,-7.2496,-7.2496,-7.2496,-7.2496,-7.367,-7.5285,-7.6907,-7.6173,-7.5432,-7.6796,-7.4918,-7.323,-7.4478,-7.3634,-7.2165,-7.0403,-6.8238,-6.5815,-6.322,-6.0872,-5.9061,-5.8143,-5.8107,-5.8731,-6.0236,-6.075,-6.1557,-6.3,-6.2658,-6.2071,-6.1374,-6.1741,-6.1777,-6.1337,-6.4604,-6.6366,-6.6035,-6.7467,-6.9302,-7.1468,-7.2165,-7.2496,-7.2496,-7.2496,-7.2496,-7.2496,-7.2496,-7.2496,-7.2459,-7.1798,-7.1403,-7.1183,-6.9853,-6.9192,-6.9155,-6.9963,-6.9853,-6.9522,-7.1688,-7.2092,-7.1578,-9.1987,-9.1987,-9.1987,-9.1987,-9.1877,-9.1803,-9.1803,-9.1803,-9.1803,-9.1803,-9.1803,-9.1803,-9.1803,-9.1803,-9.1803,-9.1803,-9.1179,-9.0812,-9.0812,-9.0041,-8.9307,-8.861,-8.7582,-8.6701,-8.6004,-8.2847,-8.0681,-7.958,-7.8075,-7.7273,-7.7273,-7.7273,-7.7273,-7.7273,-7.7273,-7.7273,-7.7273,-7.7273,-7.6864,-7.6019,-7.5212,-7.4441,-7.3597,-7.2826,-7.2422,-7.2312,-7.2312,-7.2312,-7.2312,-7.2312,-7.2422,-7.2496,-7.2496,-7.2496,-7.2496,-7.2496,-7.2496,-7.2496,-7.2496,-7.367,-7.5285,-7.6907,-7.6607,-7.5983,-7.624,-7.5395,-7.4404,-7.3964,-7.367,-7.2789,-7.0513,-6.8678,-6.6476,-6.3319,-6.1374,-5.9722,-5.8217,0.0,-5.9355,-6.0309,-6.2254,-6.3906,-6.4824,-6.5411,-6.5705,-6.5558,-6.442,-6.4237,-6.5485,-6.6145,-6.7393,-6.9302,-7.0257,-7.1248,-7.2312,-7.2459,-7.2496,-7.2496,-7.2496,-7.2496,-7.2496,-7.2496,-7.2496,-7.2496,-7.2386,-7.1945,-7.1256,-7.0999,-7.055,-7.0,-7.0807,-7.1064,-7.1064,-7.2129,-7.2422,-7.2349,-9.1803,-9.1803,-9.1803,-9.1803,-9.1803,-9.1803,-9.1803,-9.1803,-9.1803,-9.1803,-9.1803,-9.1803,-9.1803,-9.1803,-9.1803,-9.1803,-9.0665,-8.9968,-8.9968,-8.9197,-8.861,-8.8206,-8.6591,-8.4719,-8.259,-8.1085,-7.9727,-7.8442,-7.7708,-7.7273,-7.7273,-7.7273,-7.7273,-7.7273,-7.7273,-7.7273,-7.7273,-7.7273,-7.709,-7.668,-7.5873,-7.5065,-7.4258,-7.345,-7.2899,-7.2496,-7.2496,-7.2496,-7.2496,-7.2496,-7.2496,-7.2496,-7.2496,-7.2496,-7.2496,-7.2496,-7.2826,-7.323,-7.367,-7.4661,-7.5836,-7.7017,-7.6717,-7.6203,-7.6644,-7.5799,-7.4918,-7.4992,-7.4294,-7.323,-7.1688,-6.9009,-6.6696,-6.5632,-6.2254,-5.9942,-6.0529,-6.0162,-6.0639,-6.2805,-6.442,-6.6035,-6.7724,-6.7834,-6.7614,-6.7173,-6.6439,-6.6366,-6.71,-6.7981,-6.9155,-7.0697,-7.1541,-7.2129,-7.2496,-7.2496,-7.2716,-7.3156,-7.3156,-7.3156,-7.3156,-7.3156,-7.2899,-7.2496,-7.2496,-7.2312,-7.1908,-7.1505,-7.1101,-7.077,-7.1174,-7.1064,-7.0807,-7.2055,-7.2239,-7.1945,-9.1803,-9.1803,-9.1803,-9.1803,-9.1803,-9.1803,-9.1803,-9.1803,-9.1803,-9.1803,-9.1803,-9.1803,-9.1803,-9.1803,-9.1803,-9.1803,-9.0335,-8.9382,-8.9382,-8.8463,-8.7912,-8.7912,-8.5783,-8.3177,-8.0131,-7.9874,-7.9066,-7.7598,-7.7384,-7.7273,-7.7273,-7.7273,-7.7273,-7.7273,-7.7273,-7.7273,-7.7273,-7.7273,-7.7273,-7.7237,-7.6423,-7.5616,-7.4808,-7.4001,-7.3193,-7.2496,-7.2496,-7.2496,-7.2532,-7.2716,-7.2642,-7.2569,-7.2936,-7.2936,-7.2826,-7.301,-7.3634,-7.4404,-7.5028,-7.5616,-7.6276,-7.709,-7.6717,-7.6276,-7.687,-7.6093,-7.5322,-7.5726,-7.4992,-7.3891,-7.2716,-6.9816,-6.7504,-6.7173,-6.3466,-6.1129,-6.2597,-6.2071,-6.2622,-6.5521,-6.6733,-6.8128,-7.0183,-7.0,-6.9412,-6.8605,-6.8531,-6.8531,-6.8531,-6.9706,-7.077,-7.1578,-7.2202,-7.2496,-7.2496,-7.2496,-7.2899,-7.3707,-7.3707,-7.378,-7.3964,-7.378,-7.334,-7.2789,-7.2569,-7.2496,-7.2459,-7.1835,-7.1578,-7.1578,-7.1578,-7.1211,-7.0807,-7.2055,-7.2129,-7.1688,-9.1803,-9.1803,-9.1803,-9.1803,-9.1803,-9.1803,-9.1803,-9.1803,-9.1803,-9.1803,-9.1803,-9.1803,-9.1803,-9.1803,-9.1803,-9.1803,-9.0335,-8.9382,-8.9382,-8.7949,-8.7105,-8.7105,-8.549,-8.3434,-8.0975,-8.0167,-7.936,-7.8516,-7.7708,-7.7273,-7.7273,-7.7273,-7.7273,-7.7273,-7.7273,-7.7273,-7.7273,-7.7273,-7.7273,-7.7237,-7.6423,-7.5616,-7.4808,-7.4001,-7.3193,-7.2496,-7.2496,-7.2496,-7.2606,-7.334,-7.312,-7.2753,-7.4258,-7.4221,-7.3744,-7.4515,-7.5285,-7.5946,-7.5983,-7.6056,-7.6276,-7.709,-7.6717,-7.613,-7.6166,-7.6093,-7.5836,-7.5139,-7.5506,-7.5212,-7.2936,-7.1651,-6.9752,-6.6072,0.0,0.0,-6.2964,-6.4053,-6.5595,-6.732,-6.8898,-7.0183,-7.1109,-7.1835,-7.1908,-7.1101,-7.0999,-7.0999,-7.0999,-7.1174,-7.1578,-7.2386,-7.2459,-7.2496,-7.2496,-7.2496,-7.2899,-7.3707,-7.3707,-7.4074,-7.4808,-7.4037,-7.367,-7.356,-7.2826,-7.2496,-7.2496,-7.2459,-7.2422,-7.2422,-7.2422,-7.2386,-7.2349,-7.2459,-7.2459,-7.2422,-9.1803,-9.1803,-9.1803,-9.1803,-9.1803,-9.1803,-9.1803,-9.1803,-9.1803,-9.1803,-9.1803,-9.1803,-9.1803,-9.1803,-9.1803,-9.1803,-9.0335,-8.9382,-8.9382,-8.7435,-8.604,-8.5527,-8.4462,-8.2737,-8.0314,-7.9947,-7.914,-7.7818,-7.7457,-7.7273,-7.7273,-7.7273,-7.7273,-7.7273,-7.7273,-7.7273,-7.7273,-7.7273,-7.7273,-7.7273,-7.6974,-7.6387,-7.5616,-7.5285,-7.4368,-7.323,-7.323,-7.2936,-7.2606,-7.3413,-7.3156,-7.2789,-7.4404,-7.4368,-7.3964,-7.5249,-7.5873,-7.6203,-7.6717,-7.6864,-7.6937,-7.72,-7.7053,-7.6864,-7.6864,-7.6864,-7.679,-7.643,-7.624,-7.5836,-7.4918,-7.3266,-7.1725,-7.066,0.0,-6.6916,-6.7283,-6.7467,-6.8128,-6.9743,-7.0917,-7.1908,-7.2716,-7.2606,-7.2569,-7.2789,-7.2789,-7.301,-7.3523,-7.3083,-7.2716,-7.2496,-7.2973,-7.301,-7.2496,-7.2973,-7.3634,-7.4441,-7.4955,-7.5359,-7.5616,-7.4808,-7.4184,-7.367,-7.2863,-7.2496,-7.2496,-7.2496,-7.2496,-7.2496,-7.2496,-7.2496,-7.2496,-7.2496,-7.2496,-7.2496,-9.1803,-9.1803,-9.1803,-9.1803,-9.1803,-9.1803,-9.1803,-9.1803,-9.1803,-9.1803,-9.1803,-9.1803,-9.1803,-9.1803,-9.1693,-9.1436,-9.0188,-8.9272,-8.905,-8.6775,-8.5049,-8.4278,-8.3691,-8.2406,-8.0204,-8.0167,-7.936,-7.7708,-7.7708,-7.7598,-7.7273,-7.7273,-7.7273,-7.7273,-7.7273,-7.7273,-7.7273,-7.7273,-7.7273,-7.7273,-7.7273,-7.6827,-7.6093,-7.6093,-7.5249,-7.4074,-7.4074,-7.3707,-7.3377,-7.4184,-7.3927,-7.3523,-7.5175,-7.5285,-7.5065,-7.6166,-7.6497,-7.6607,-7.7127,-7.7273,-7.7273,-7.7273,-7.7273,-7.7273,-7.7273,-7.7273,-7.7273,-7.7273,-7.6864,-7.6387,-7.6166,-7.4735,-7.356,-7.334,-7.1211,-6.9889,-7.0734,-7.0587,-7.0807,-7.1945,-7.2532,-7.3083,-7.3634,-7.3193,-7.3193,-7.4037,-7.4074,-7.4331,-7.4882,-7.4368,-7.3817,-7.3266,-7.378,-7.3817,-7.3266,-7.3817,-7.4478,-7.5285,-7.5836,-7.624,-7.646,-7.5652,-7.4845,-7.4037,-7.323,-7.2716,-7.2496,-7.2496,-7.2496,-7.2496,-7.2496,-7.2496,-7.2496,-7.2496,-7.2496,-7.2496,-9.1803,-9.1803,-9.1803,-9.1803,-9.1803,-9.1803,-9.1803,-9.1803,-9.1803,-9.1803,-9.1803,-9.1803,-9.1803,-9.1803,-9.1473,-9.0665,-8.9858,-8.905,-8.8243,-8.593,-8.4242,-8.3471,-8.3398,-8.2663,-8.1048,-8.1012,-8.0204,-7.8589,-7.8589,-7.8148,-7.731,-7.7273,-7.7273,-7.7273,-7.7273,-7.7273,-7.7273,-7.7273,-7.7273,-7.7273,-7.7273,-7.6827,-7.6093,-7.6093,-7.5616,-7.4918,-7.4918,-7.4918,-7.5028,-7.5836,-7.5579,-7.5175,-7.6796,-7.7273,-7.7273,-7.7273,-7.7273,-7.7273,-7.7273,-7.7273,-7.7273,-7.7273,-7.7273,-7.7273,-7.7273,-7.7273,-7.7273,-7.7273,-7.7273,-7.7053,-7.6276,-7.6093,-7.5322,-7.2936,-7.3193,-7.345,-7.2642,-7.3193,-7.3707,-7.3707,-7.3707,-7.3707,-7.3707,-7.3707,-7.4037,-7.4845,-7.4918,-7.4918,-7.4918,-7.4918,-7.4918,-7.4918,-7.4918,-7.4918,-7.4918,-7.4918,-7.5322,-7.6093,-7.6093,-7.6533,-7.7273,-7.646,-7.5652,-7.4882,-7.4037,-7.323,-7.2496,-7.2496,-7.2496,-7.2496,-7.2496,-7.2496,-7.2496,-7.2496,-7.2496,-7.2496,-9.1693,-9.1803,-9.1803,-9.1803,-9.1803,-9.1803,-9.1803,-9.1803,-9.1803,-9.1803,-9.1803,-9.1583,-9.1033,-9.0959,-9.0629,-8.9858,-8.9014,-8.7986,-8.6591,-8.582,-8.5086,-8.4278,-8.3177,-8.2076,-8.1012,-8.1012,-8.0498,-7.9433,-7.8883,-7.8479,-7.8222,-7.7567,-7.7273,-7.7273,-7.7273,-7.7273,-7.7273,-7.7273,-7.7273,-7.7273,-7.7273,-7.7163,-7.6937,-7.6937,-7.646,-7.5726,-7.5726,-7.5395,-7.5028,-7.5836,-7.5579,-7.5102,-7.613,-7.6864,-7.7273,-7.7273,-7.7273,-7.7273,-7.7273,-7.7273,-7.7273,-7.7273,-7.7273,-7.7273,-7.7273,-7.7273,-7.7273,-7.7273,-7.7273,-7.7237,-7.698,-7.6937,-7.6533,-7.5249,-7.5212,-7.5102,-7.4294,-7.4882,-7.5175,-7.4625,-7.5028,-7.4955,-7.3817,-7.4221,-7.4661,-7.4882,-7.5983,-7.635,-7.5763,-7.5726,-7.5469,-7.4918,-7.5469,-7.5726,-7.5726,-7.5726,-7.5873,-7.6093,-7.668,-7.7053,-7.7273,-7.646,-7.5983,-7.5689,-7.4294,-7.356,-7.3303,-7.2716,-7.2496,-7.2496,-7.2496,-7.2496,-7.2496,-7.2496,-7.2496,-7.2496,-9.1583,-9.1546,-9.1436,-9.173,-9.1803,-9.1803,-9.1803,-9.1803,-9.1803,-9.1803,-9.1803,-9.1473,-9.0702,-9.0592,-9.0152,-8.905,-8.8206,-8.7178,-8.5857,-8.5783,-8.5416,-8.4646,-8.3361,-8.2443,-8.1966,-8.1636,-8.1085,-8.0277,-7.947,-7.8919,-7.8589,-7.7708,-7.7273,-7.7273,-7.7273,-7.7273,-7.7273,-7.7273,-7.7273,-7.7273,-7.7273,-7.7273,-7.7273,-7.7273,-7.7011,-7.657,-7.657,-7.6276,-7.5916,-7.6423,-7.6276,-7.5946,-7.6423,-7.6937,-7.7273,-7.7273,-7.7273,-7.7273,-7.7273,-7.7273,-7.7273,-7.7273,-7.7273,-7.7273,-7.7273,-7.7273,-7.7273,-7.7273,-7.7273,-7.7273,-7.7273,-7.7273,-7.7127,-7.6644,-7.657,-7.6423,-7.5916,-7.6276,-7.6276,-7.5469,-7.5799,-7.5726,-7.4735,-7.5102,-7.5506,-7.5806,-7.6723,-7.709,-7.6607,-7.657,-7.635,-7.5842,-7.6313,-7.657,-7.657,-7.657,-7.657,-7.6607,-7.7053,-7.7273,-7.7273,-7.6827,-7.6423,-7.6019,-7.4735,-7.4184,-7.4074,-7.2973,-7.2679,-7.2936,-7.2606,-7.2496,-7.2496,-7.2496,-7.2496,-7.2496,-9.1363,-9.1106,-9.0849,-9.1657,-9.1803,-9.1803,-9.1803,-9.1803,-9.1803,-9.1803,-9.173,-9.14,-9.0702,-9.0482,-8.9821,-8.8316,-8.7472,-8.6701,-8.5967,-8.5894,-8.5563,-8.4866,-8.4058,-8.3618,-8.3618,-8.27,-8.1819,-8.1122,-8.0241,-7.9433,-7.8699,-7.7745,-7.7273,-7.7273,-7.7273,-7.7273,-7.7273,-7.7273,-7.7273,-7.7273,-7.7273,-7.7273,-7.7273,-7.7273,-7.7273,-7.7273,-7.7273,-7.7273,-7.7273,-7.7273,-7.7273,-7.7273,-7.7273,-7.7273,-7.7273,-7.7273,-7.7273,-7.7273,-7.7273,-7.7273,-7.7273,-7.7273,-7.7273,-7.7273,-7.7273,-7.7273,-7.7273,-7.7273,-7.7273,-7.7273,-7.7273,-7.7273,-7.7273,-7.7273,-7.7273,-7.7273,-7.7273,-7.7273,-7.698,-7.6203,-7.6166,-7.6166,-7.6019,-7.6056,-7.6423,-7.7237,-7.7273,-7.7273,-7.7273,-7.7273,-7.7273,-7.7273,-7.7273,-7.7273,-7.7273,-7.7273,-7.7273,-7.7273,-7.7273,-7.7273,-7.7273,-7.7273,-7.69,-7.6166,-7.5285,-7.4955,-7.4882,-7.3266,-7.3046,-7.3634,-7.2899,-7.2569,-7.2496,-7.2496,-7.2496,-7.2496,-9.0662,-9.0739,-9.0849,-9.1657,-9.1803,-9.1803,-9.1803,-9.1803,-9.1803,-9.1803,-9.1253,-9.0812,-9.0629,-8.9491,-8.8573,-8.8243,-8.7472,-8.6921,-8.6775,-8.6738,-8.6664,-8.6518,-8.571,-8.527,-8.527,-8.3251,-8.2113,-8.1929,-8.0498,-7.969,-7.9507,-7.8002,-7.7273,-7.7273,-7.7273,-7.7273,-7.7273,-7.7273,-7.7273,-7.7273,-7.7273,-7.7273,-7.7273,-7.7273,-7.7273,-7.7273,-7.7273,-7.7273,-7.7273,-7.7273,-7.7273,-7.7273,-7.7273,-7.7273,-7.7273,-7.7273,-7.7273,-7.7273,-7.7273,-7.7273,-7.7273,-7.7273,-7.7273,-7.7273,-7.7273,-7.7273,-7.7273,-7.7273,-7.7273,-7.7273,-7.7273,-7.7273,-7.7273,-7.7273,-7.7273,-7.7273,-7.7273,-7.7273,-7.698,-7.6203,-7.668,-7.654,-7.5285,-7.5726,-7.6423,-7.7237,-7.7273,-7.7273,-7.7273,-7.7273,-7.7273,-7.7273,-7.7273,-7.7273,-7.7273,-7.7273,-7.7273,-7.7273,-7.7273,-7.7273,-7.7273,-7.7273,-7.72,-7.6943,-7.5542,-7.5285,-7.5726,-7.4111,-7.3523,-7.367,-7.3487,-7.3046,-7.2496,-7.2496,-7.2496,-7.2496,-9.0795,-9.0732,-9.0717,-9.1586,-9.1407,-9.1306,-9.1729,-9.1473,-9.1363,-9.173,-9.1436,-9.1033,-9.0629,-8.9528,-8.8463,-8.7692,-8.7252,-8.6995,-8.6995,-8.6995,-8.6995,-8.6995,-8.6224,-8.5783,-8.5783,-8.3801,-8.2774,-8.2774,-8.0755,-7.98,-7.9764,-7.8075,-7.7273,-7.7273,-7.7273,-7.7273,-7.7273,-7.7273,-7.7273,-7.7273,-7.7273,-7.7273,-7.7273,-7.7273,-7.7273,-7.7273,-7.7273,-7.7273,-7.7273,-7.7273,-7.7273,-7.7273,-7.7273,-7.7273,-7.7273,-7.7273,-7.7273,-7.7273,-7.7273,-7.7273,-7.7273,-7.7273,-7.7273,-7.7273,-7.7273,-7.7273,-7.7273,-7.7273,-7.7273,-7.7273,-7.7273,-7.7273,-7.7273,-7.7273,-7.7273,-7.7273,-7.7273,-7.7273,-7.7127,-7.6717,-7.7017,-7.6943,-7.6099,-7.646,-7.6864,-7.7273,-7.7273,-7.7273,-7.7273,-7.7273,-7.7273,-7.7273,-7.7273,-7.7273,-7.7273,-7.7273,-7.7273,-7.7273,-7.7273,-7.7273,-7.7273,-7.7273,-7.709,-7.668,-7.5836,-7.5726,-7.6019,-7.4771,-7.4258,-7.4221,-7.3854,-7.3193,-7.2496,-7.2496,-7.2496,-7.2496,-9.1019,-9.0766,-9.0604,-9.1514,-9.1093,-9.0913,-9.1634,-9.1309,-9.12,-9.1688,-9.1798,-9.1543,-9.0886,-8.9968,-8.8721,-8.7142,-8.6995,-8.6995,-8.6995,-8.6995,-8.6995,-8.6995,-8.6371,-8.6004,-8.6004,-8.4425,-8.3544,-8.3398,-8.1122,-7.991,-7.9764,-7.8259,-7.742,-7.7273,-7.7273,-7.7273,-7.7273,-7.7273,-7.7273,-7.7273,-7.7273,-7.7273,-7.7273,-7.7273,-7.7273,-7.7273,-7.7273,-7.7273,-7.7273,-7.7273,-7.7273,-7.7273,-7.7273,-7.7273,-7.7273,-7.7273,-7.7273,-7.7273,-7.7273,-7.7273,-7.7273,-7.7273,-7.7273,-7.7273,-7.7273,-7.7273,-7.7273,-7.7273,-7.7273,-7.7273,-7.7273,-7.7273,-7.7273,-7.7273,-7.7273,-7.7273,-7.7273,-7.7273,-7.7273,-7.7273,-7.7273,-7.7273,-7.7273,-7.7273,-7.7273,-7.7273,-7.7273,-7.7273,-7.7273,-7.7273,-7.7273,-7.7273,-7.7273,-7.7273,-7.7273,-7.7273,-7.7273,-7.7273,-7.7273,-7.7273,-7.7273,-7.7273,-7.6937,-7.6313,-7.6166,-7.6166,-7.624,-7.5285,-7.4918,-7.4845,-7.4001,-7.3193,-7.2496,-7.2496,-7.2496,-7.2496,-9.037,-9.0378,-9.0578,-9.1384,-9.1432,-9.1404,-9.1518,-9.2081,-9.233,-9.1779,-9.1715,-9.1713,-9.1655,-9.0298,-8.8721,-8.7142,-8.6995,-8.6995,-8.6995,-8.6995,-8.6995,-8.6995,-8.6921,-8.6848,-8.6848,-8.527,-8.4095,-8.3398,-8.1672,-8.0461,-7.9764,-7.8846,-7.8038,-7.7273,-7.7273,-7.7273,-7.7273,-7.7273,-7.7273,-7.7273,-7.7273,-7.7273,-7.7273,-7.7273,-7.7273,-7.7273,-7.7273,-7.7273,-7.7273,-7.7273,-7.7273,-7.7273,-7.7273,-7.7273,-7.7273,-7.7273,-7.7273,-7.7273,-7.7273,-7.7273,-7.7273,-7.7273,-7.7273,-7.7273,-7.7273,-7.7273,-7.7273,-7.7273,-7.7273,-7.7273,-7.7273,-7.7273,-7.7273,-7.7273,-7.7273,-7.7273,-7.7273,-7.7273,-7.7273,-7.7273,-7.7273,-7.7273,-7.7273,-7.7273,-7.7273,-7.7273,-7.7273,-7.7273,-7.7273,-7.7273,-7.7273,-7.7273,-7.7273,-7.7273,-7.7273,-7.7273,-7.7273,-7.7273,-7.7273,-7.7273,-7.7273,-7.7273,-7.7237,-7.709,-7.6423,-7.6497,-7.7017,-7.5542,-7.4918,-7.4845,-7.4001,-7.3193,-7.2496,-7.2496,-7.2496,-7.2496,-9.078,-9.0814,-9.0933,-9.1363,-9.1049,-9.1079,-9.2065,-9.2151,-9.2343,-9.2943,-9.3026,-9.2877,-9.2495,-9.0654,-8.894,-8.7766,-8.7252,-8.6995,-8.6995,-8.6995,-8.6995,-8.6995,-8.6995,-8.6811,-8.6334,-8.5196,-8.4205,-8.3398,-8.1342,-8.0131,-7.9764,-7.8479,-7.7671,-7.7273,-7.7273,-7.7273,-7.7273,-7.7273,-7.7273,-7.7273,-7.7273,-7.7273,-7.7273,-7.7273,-7.7273,-7.7273,-7.7273,-7.7273,-7.7273,-7.7273,-7.7273,-7.7273,-7.7273,-7.7273,-7.7273,-7.7273,-7.7273,-7.7273,-7.7273,-7.7273,-7.7273,-7.7273,-7.7273,-7.7273,-7.7273,-7.7273,-7.7273,-7.7273,-7.7273,-7.7273,-7.7273,-7.7273,-7.7273,-7.7273,-7.7273,-7.7273,-7.7273,-7.7273,-7.7273,-7.7273,-7.7273,-7.7273,-7.7273,-7.7273,-7.7273,-7.7273,-7.7273,-7.7273,-7.7273,-7.7273,-7.7273,-7.7273,-7.7273,-7.7273,-7.7273,-7.7273,-7.7273,-7.7273,-7.7273,-7.7273,-7.7273,-7.7273,-7.7053,-7.6644,-7.6754,-7.646,-7.5916,-7.5689,-7.5028,-7.4184,-7.3817,-7.3193,-7.2496,-7.2496,-7.2496,-7.2496]},{"header":{"parameterUnit":"m.s-1","parameterCategory":1,"la1":30.6,"la2":28.766,"lo1":-90.7593,"lo2":-88.6598,"dy":0.0162,"dx":0.0183,"nx":116,"ny":114,"refTime":"2023-06-11T12:00:00:Z","depth":0,"parameterNumber":3,"parameterNumberName":"V-component_of_WINDS"},"data":[0.0,0.0,0.0,0.0,0.0,0.0,0.0,0.0,0.0,0.0,0.0,0.0,0.0,0.0,0.0,0.0,0.0,0.0,0.0,0.0,0.0,0.0,0.0,0.0,0.0,0.0,0.0,0.0,0.0,0.0,0.0,0.0,0.0,0.0,0.0,0.0,0.0,0.0,0.0,0.0,0.0,0.0,0.0,0.0,0.0,0.0,0.0,0.0,0.0,0.0,0.0,0.0,0.0,0.0,0.0,0.0,0.0,0.0,0.0,0.0,0.0,0.0,0.0,0.0,0.0,0.0,0.0,0.0,0.0,0.0,0.0,0.0,0.0,0.0,0.0,0.0,0.0,0.0,0.0,0.0,0.0,0.0,0.0,0.0,0.0,0.0,0.0,0.0,0.0,0.0,0.0,0.0,0.0,0.0,0.0,0.0,0.0,0.0,0.0,0.0,0.0,0.0,0.0,0.0,0.0,0.0,0.0,0.0,0.0,0.0,0.0,0.0,0.0,0.0,0.0,0.0,0.0,0.0,0.0,0.0,0.0,0.0,0.0,0.0,0.0,0.0,0.0,0.0,0.0,0.0,0.0,0.0,0.0,0.0,0.0,0.0,0.0,0.0,0.0,0.0,0.0,0.0,0.0,0.0,0.0,0.0,0.0,0.0,0.0,0.0,0.0,0.0,0.0,0.0,0.0,0.0,0.0,0.0,0.0,0.0,0.0,0.0,0.0,0.0,0.0,0.0,0.0,0.0,0.0,0.0,0.0,0.0,0.0,0.0,0.0,0.0,0.0,0.0,0.0,0.0,0.0,0.0,0.0,0.0,0.0,0.0,0.0,0.0,0.0,0.0,0.0,0.0,0.0,0.0,0.0,0.0,0.0,0.0,0.0,0.0,0.0,0.0,0.0,0.0,0.0,0.0,0.0,0.0,0.0,0.0,0.0,0.0,0.0,0.0,0.0,0.0,0.0,0.0,0.0,0.0,0.0,0.0,0.0,0.0,0.0,0.0,0.0,0.0,0.0,0.0,0.0,0.0,0.0,0.0,0.0,0.0,0.0,0.0,0.0,0.0,0.0,0.0,0.0,0.0,0.0,0.0,0.0,0.0,0.0,0.0,0.0,0.0,0.0,0.0,0.0,0.0,0.0,0.0,0.0,0.0,0.0,0.0,0.0,0.0,0.0,0.0,0.0,0.0,0.0,0.0,0.0,0.0,0.0,0.0,0.0,0.0,0.0,0.0,0.0,0.0,0.0,0.0,0.0,0.0,0.0,0.0,0.0,0.0,0.0,0.0,0.0,0.0,0.0,0.0,0.0,0.0,0.0,0.0,0.0,0.0,0.0,0.0,0.0,0.0,0.0,0.0,0.0,0.0,0.0,0.0,0.0,0.0,0.0,0.0,0.0,0.0,0.0,0.0,0.0,0.0,0.0,0.0,0.0,0.0,0.0,0.0,0.0,0.0,0.0,0.0,0.0,0.0,0.0,0.0,0.0,0.0,0.0,0.0,0.0,0.0,0.0,0.0,0.0,0.0,0.0,0.0,0.0,0.0,0.0,0.0,0.0,0.0,0.0,0.0,0.0,0.0,0.0,0.0,0.0,0.0,0.0,0.0,0.0,0.0,0.0,0.0,0.0,0.0,0.0,0.0,0.0,0.0,0.0,0.0,0.0,0.0,0.0,0.0,0.0,0.0,0.0,0.0,0.0,0.0,0.0,0.0,0.0,0.0,0.0,0.0,0.0,0.0,0.0,0.0,0.0,0.0,0.0,0.0,0.0,0.0,0.0,0.0,0.0,0.0,0.0,0.0,0.0,0.0,0.0,0.0,0.0,0.0,0.0,0.0,0.0,0.0,0.0,0.0,0.0,0.0,0.0,0.0,0.0,0.0,0.0,0.0,0.0,0.0,0.0,0.0,0.0,0.0,0.0,0.0,0.0,0.0,0.0,0.0,0.0,0.0,0.0,0.0,0.0,0.0,0.0,0.0,0.0,0.0,0.0,0.0,0.0,0.0,0.0,0.0,0.0,0.0,0.0,0.0,0.0,0.0,0.0,0.0,0.0,0.0,0.0,0.0,0.0,0.0,0.0,0.0,0.0,0.0,0.0,0.0,0.0,0.0,0.0,0.0,0.0,0.0,0.0,0.0,0.0,0.0,0.0,0.0,0.0,0.0,0.0,0.0,0.0,0.0,0.0,0.0,0.0,0.0,0.0,0.0,0.0,0.0,0.0,0.0,0.0,0.0,0.0,0.0,0.0,0.0,0.0,0.0,0.0,0.0,0.0,0.0,0.0,0.0,0.0,0.0,0.0,0.0,0.0,0.0,0.0,0.0,0.0,0.0,0.0,0.0,0.0,0.0,0.0,0.0,0.0,0.0,0.0,0.0,0.0,0.0,0.0,0.0,0.0,0.0,0.0,0.0,0.0,0.0,0.0,0.0,0.0,0.0,0.0,0.0,0.0,0.0,0.0,0.0,0.0,0.0,0.0,0.0,0.0,0.0,0.0,0.0,0.0,0.0,0.0,0.0,0.0,0.0,0.0,0.0,0.0,0.0,0.0,0.0,0.0,0.0,0.0,0.0,0.0,0.0,0.0,0.0,0.0,0.0,0.0,0.0,0.0,0.0,0.0,0.0,0.0,0.0,0.0,0.0,0.0,0.0,0.0,0.0,0.0,0.0,0.0,0.0,0.0,0.0,0.0,0.0,0.0,0.0,0.0,0.0,0.0,0.0,0.0,0.0,0.0,0.0,0.0,0.0,0.0,0.0,0.0,0.0,0.0,0.0,0.0,0.0,0.0,0.0,0.0,0.0,0.0,0.0,0.0,0.0,0.0,0.0,0.0,0.0,0.0,0.0,0.0,0.0,0.0,0.0,0.0,0.0,0.0,0.0,0.0,0.0,0.0,0.0,0.0,0.0,0.0,0.0,0.0,0.0,0.0,0.0,0.0,0.0,0.0,0.0,0.0,0.0,0.0,0.0,0.0,0.0,0.0,0.0,0.0,0.0,0.0,0.0,0.0,0.0,0.0,0.0,0.0,0.0,0.0,0.0,0.0,0.0,0.0,0.0,0.0,0.0,0.0,0.0,0.0,0.0,0.0,0.0,0.0,0.0,0.0,0.0,0.0,0.0,0.0,0.0,0.0,0.0,0.0,0.0,0.0,0.0,0.0,0.0,0.0,0.0,0.0,0.0,0.0,0.0,0.0,0.0,0.0,0.0,0.0,0.0,0.0,0.0,0.0,0.0,0.0,0.0,0.0,0.0,0.0,0.0,0.0,0.0,0.0,0.0,0.0,0.0,0.0,0.0,0.0,0.0,0.0,0.0,0.0,0.0,0.0,0.0,0.0,0.0,0.0,0.0,0.0,0.0,0.0,0.0,0.0,0.0,0.0,0.0,0.0,0.0,0.0,0.0,0.0,0.0,0.0,0.0,0.0,0.0,0.0,0.0,0.0,0.0,0.0,0.0,0.0,0.0,0.0,0.0,0.0,0.0,0.0,0.0,0.0,0.0,0.0,0.0,0.0,0.0,0.0,0.0,0.0,0.0,0.0,0.0,0.0,0.0,0.0,0.0,0.0,0.0,0.0,0.0,0.0,0.0,0.0,0.0,0.0,0.0,0.0,0.0,0.0,0.0,0.0,0.0,0.0,0.0,0.0,0.0,0.0,0.0,0.0,0.0,0.0,0.0,0.0,0.0,0.0,0.0,0.0,0.0,0.0,0.0,0.0,0.0,0.0,0.0,0.0,0.0,0.0,0.0,0.0,0.0,0.0,0.0,0.0,0.0,0.0,0.0,0.0,0.0,0.0,0.0,0.0,0.0,0.0,0.0,0.0,0.0,0.0,0.0,0.0,0.0,0.0,0.0,0.0,0.0,0.0,0.0,0.0,0.0,0.0,0.0,0.0,0.0,0.0,0.0,0.0,0.0,0.0,0.0,0.0,0.0,0.0,0.0,0.0,0.0,0.0,0.0,0.0,0.0,0.0,0.0,0.0,0.0,0.0,0.0,0.0,0.0,0.0,0.0,0.0,0.0,0.0,0.0,0.0,0.0,0.0,0.0,0.0,0.0,0.0,0.0,0.0,0.0,0.0,0.0,0.0,0.0,0.0,0.0,0.0,0.0,0.0,0.0,0.0,0.0,0.0,0.0,0.0,0.0,0.0,0.0,0.0,0.0,0.0,0.0,0.0,0.0,0.0,0.0,0.0,0.0,0.0,0.0,0.0,0.0,0.0,0.0,0.0,0.0,0.0,0.0,0.0,0.0,0.0,0.0,0.0,0.0,0.0,0.0,0.0,0.0,0.0,0.0,0.0,0.0,0.0,0.0,0.0,0.0,0.0,0.0,0.0,0.0,0.0,0.0,0.0,0.0,0.0,0.0,0.0,0.0,0.0,0.0,0.0,0.0,0.0,0.0,0.0,0.0,0.0,0.0,0.0,0.0,0.0,0.0,0.0,0.0,0.0,0.0,0.0,0.0,0.0,0.0,0.0,0.0,0.0,0.0,0.0,0.0,0.0,0.0,0.0,0.0,0.0,0.0,0.0,0.0,0.0,0.0,0.0,0.0,0.0,0.0,0.0,0.0,0.0,0.0,0.0,0.0,0.0,0.0,0.0,0.0,0.0,0.0,0.0,0.0,0.0,0.0,0.0,0.0,0.0,0.0,0.0,0.0,0.0,0.0,0.0,0.0,0.0,0.0,0.0,0.0,0.0,0.0,0.0,0.0,0.0,0.0,0.0,0.0,0.0,0.0,0.0,0.0,0.0,0.0,0.0,0.0,0.0,0.0,0.0,0.0,0.0,0.0,0.0,0.0,0.0,0.0,0.0,0.0,0.0,0.0,0.0,0.0,0.0,0.0,0.0,0.0,0.0,0.0,0.0,0.0,0.0,0.0,0.0,0.0,0.0,0.0,0.0,0.0,0.0,0.0,0.0,0.0,0.0,0.0,0.0,0.0,0.0,0.0,0.0,0.0,0.0,0.0,0.0,0.0,0.0,0.0,0.0,0.0,0.0,0.0,0.0,0.0,0.0,0.0,0.0,0.0,0.0,0.0,0.0,0.0,0.0,0.0,0.0,0.0,0.0,0.0,0.0,0.0,0.0,0.0,0.0,0.0,0.0,0.0,0.0,0.0,0.0,0.0,0.0,0.0,0.0,0.0,0.0,0.0,0.0,0.0,0.0,0.0,0.0,0.0,0.0,0.0,0.0,0.0,0.0,0.0,0.0,0.0,0.0,0.0,0.0,0.0,0.0,0.0,0.0,0.0,0.0,0.0,0.0,0.0,0.0,0.0,0.0,0.0,0.0,0.0,0.0,0.0,0.0,0.0,0.0,0.0,0.0,0.0,0.0,0.0,0.0,0.0,0.0,0.0,0.0,0.0,0.0,0.0,0.0,0.0,0.0,0.0,0.0,0.0,0.0,0.0,0.0,0.0,0.0,0.0,0.0,0.0,0.0,0.0,0.0,0.0,0.0,0.0,0.0,0.0,0.0,0.0,0.0,0.0,0.0,0.0,0.0,0.0,0.0,0.0,0.0,0.0,0.0,0.0,0.0,0.0,0.0,0.0,0.0,0.0,0.0,0.0,0.0,0.0,0.0,0.0,0.0,0.0,0.0,0.0,0.0,0.0,0.0,0.0,0.0,0.0,0.0,0.0,0.0,0.0,0.0,0.0,0.0,0.0,0.0,0.0,0.0,0.0,0.0,0.0,0.0,0.0,0.0,0.0,0.0,0.0,0.0,0.0,0.0,0.0,0.0,0.0,0.0,0.0,0.0,0.0,0.0,0.0,0.0,0.0,0.0,0.0,0.0,0.0,0.0,0.0,0.0,0.0,0.0,0.0,0.0,0.0,0.0,0.0,0.0,0.0,0.0,0.0,0.0,0.0,0.0,0.0,0.0,0.0,0.0,0.0,0.0,0.0,0.0,0.0,0.0,0.0,0.0,0.0,0.0,0.0,0.0,0.0,0.0,0.0,0.0,0.0,0.0,0.0,0.0,0.0,0.0,0.0,0.0,0.0,0.0,0.0,0.0,0.0,0.0,0.0,0.0,0.0,0.0,0.0,0.0,0.0,0.0,0.0,0.0,0.0,0.0,0.0,0.0,0.0,0.0,0.0,0.0,0.0,-3.3333,0.0,0.0,0.0,0.0,0.0,0.0,0.0,0.0,0.0,0.0,0.0,0.0,0.0,0.0,0.0,0.0,0.0,0.0,0.0,0.0,0.0,0.0,0.0,0.0,0.0,0.0,0.0,0.0,0.0,0.0,0.0,0.0,0.0,0.0,0.0,0.0,0.0,0.0,0.0,0.0,0.0,0.0,0.0,0.0,0.0,0.0,0.0,0.0,0.0,0.0,0.0,0.0,0.0,0.0,0.0,0.0,0.0,0.0,0.0,0.0,0.0,0.0,0.0,0.0,0.0,0.0,0.0,0.0,0.0,0.0,0.0,0.0,0.0,0.0,0.0,0.0,0.0,0.0,0.0,0.0,0.0,0.0,0.0,0.0,0.0,0.0,0.0,0.0,0.0,0.0,0.0,0.0,0.0,0.0,0.0,0.0,0.0,0.0,0.0,0.0,0.0,0.0,0.0,0.0,0.0,0.0,0.0,0.0,0.0,0.0,0.0,0.0,0.0,0.0,0.0,0.0,-3.4777,0.0,0.0,0.0,0.0,0.0,0.0,0.0,0.0,0.0,0.0,0.0,0.0,0.0,0.0,0.0,0.0,0.0,0.0,0.0,0.0,0.0,0.0,0.0,0.0,0.0,0.0,0.0,0.0,0.0,0.0,0.0,0.0,0.0,0.0,0.0,0.0,0.0,0.0,0.0,0.0,0.0,0.0,0.0,0.0,0.0,0.0,0.0,0.0,0.0,0.0,0.0,0.0,0.0,0.0,0.0,0.0,0.0,0.0,0.0,0.0,0.0,0.0,0.0,0.0,0.0,0.0,0.0,0.0,0.0,0.0,0.0,0.0,0.0,0.0,0.0,0.0,0.0,0.0,0.0,0.0,0.0,0.0,0.0,0.0,0.0,0.0,0.0,0.0,0.0,0.0,0.0,0.0,0.0,0.0,0.0,0.0,0.0,0.0,0.0,0.0,0.0,0.0,0.0,0.0,0.0,0.0,0.0,0.0,-4.0675,-4.2263,-4.2436,-4.4811,-4.7072,-4.8666,-4.2993,-3.9842,-3.8712,-3.8222,0.0,0.0,0.0,0.0,0.0,0.0,0.0,0.0,0.0,0.0,0.0,0.0,0.0,0.0,0.0,0.0,0.0,0.0,0.0,0.0,0.0,0.0,0.0,0.0,0.0,0.0,0.0,0.0,0.0,0.0,0.0,0.0,0.0,0.0,0.0,0.0,0.0,0.0,-3.3672,-3.4434,-3.4805,-3.4687,-3.207,0.0,0.0,0.0,0.0,0.0,0.0,0.0,0.0,0.0,0.0,0.0,0.0,0.0,0.0,0.0,0.0,0.0,0.0,0.0,0.0,0.0,0.0,0.0,0.0,0.0,0.0,0.0,0.0,0.0,0.0,0.0,0.0,0.0,0.0,0.0,0.0,0.0,0.0,0.0,0.0,0.0,0.0,0.0,-2.9434,-2.9473,0.0,0.0,0.0,0.0,0.0,0.0,0.0,0.0,0.0,0.0,0.0,0.0,0.0,-3.6504,-3.7402,-4.1295,-4.2015,-3.9567,-4.5856,-4.7166,-4.4217,-4.7425,-5.0063,-5.2092,-5.1692,0.0,-4.562,-4.2879,0.0,0.0,0.0,0.0,0.0,0.0,0.0,0.0,0.0,0.0,0.0,0.0,0.0,0.0,0.0,0.0,0.0,0.0,0.0,0.0,0.0,0.0,0.0,0.0,0.0,0.0,0.0,0.0,0.0,0.0,0.0,0.0,0.0,0.0,0.0,0.0,-3.3262,-3.4316,-3.5176,-3.5566,-3.5742,-3.5684,-3.4355,-3.3418,-3.2754,-3.2207,0.0,0.0,0.0,0.0,0.0,0.0,0.0,0.0,0.0,0.0,0.0,0.0,0.0,0.0,0.0,0.0,0.0,0.0,0.0,0.0,0.0,0.0,0.0,0.0,0.0,0.0,0.0,0.0,0.0,0.0,0.0,0.0,0.0,0.0,0.0,0.0,0.0,0.0,0.0,-3.0019,-3.0762,-3.0019,-3.0957,-3.1211,0.0,0.0,0.0,0.0,0.0,0.0,0.0,0.0,0.0,-3.7187,-3.8281,-3.9355,-4.0449,-4.42,-4.5885,-4.5614,-5.1459,-5.37,-5.2966,-5.5708,-5.7631,-5.8809,-5.7694,-5.639,-5.4647,-4.9197,-4.507,-4.2016,0.0,0.0,0.0,0.0,-3.7172,-3.7012,0.0,0.0,0.0,0.0,0.0,0.0,0.0,0.0,0.0,0.0,0.0,0.0,0.0,0.0,0.0,-2.0548,0.0,0.0,0.0,0.0,0.0,0.0,0.0,0.0,0.0,0.0,0.0,0.0,-3.5117,-3.6191,-3.7168,-3.7402,-3.75,-3.75,-3.7383,-3.6016,-3.375,-3.3184,-3.248,0.0,0.0,0.0,0.0,0.0,0.0,0.0,0.0,0.0,0.0,0.0,0.0,0.0,0.0,0.0,0.0,0.0,0.0,0.0,0.0,0.0,0.0,0.0,0.0,0.0,0.0,0.0,0.0,0.0,0.0,0.0,0.0,0.0,0.0,0.0,0.0,0.0,0.0,-3.1113,-3.2012,-3.0684,-3.2461,-3.2969,0.0,0.0,0.0,0.0,0.0,0.0,-3.6289,-3.7285,-3.8652,-4.0469,-4.1484,-4.2617,-4.3887,-4.7093,-4.9364,-5.0929,-5.5869,-5.851,-5.9115,-6.1934,-6.3119,-6.2909,-6.1741,-6.1478,-6.1537,-5.4517,-5.0055,-4.7376,-4.5711,-4.3871,-4.2198,-4.1954,-4.1286,-4.0529,0.0,0.0,0.0,0.0,0.0,0.0,0.0,0.0,0.0,0.0,0.0,0.0,0.0,0.0,-2.1534,-2.1547,-2.1764,-2.2507,0.0,0.0,0.0,0.0,0.0,0.0,0.0,0.0,0.0,-3.5293,-3.7363,-3.9043,-4.0312,-4.1133,-4.1504,-4.1484,-4.1094,-3.9258,-3.6348,-3.4277,-3.3594,-3.373,0.0,0.0,0.0,0.0,0.0,0.0,0.0,0.0,0.0,0.0,0.0,0.0,0.0,0.0,0.0,0.0,0.0,0.0,0.0,0.0,0.0,0.0,0.0,0.0,0.0,0.0,0.0,0.0,0.0,0.0,0.0,0.0,0.0,0.0,0.0,0.0,0.0,0.0,0.0,-3.1601,-3.4414,0.0,0.0,0.0,0.0,-3.5195,-3.6367,-3.7637,-3.8945,-4.0234,-4.1933,-4.4062,-4.5351,-4.6621,-4.791,-5.1133,-5.2785,-5.3071,-5.8232,-5.9558,-5.7779,-6.2312,-6.3235,-6.1222,-6.3345,-6.4295,-6.3811,-5.7437,-5.3932,-5.245,-5.077,-4.9132,-4.7459,-4.5209,-4.4854,-4.5215,0.0,0.0,0.0,0.0,0.0,0.0,0.0,0.0,0.0,0.0,0.0,0.0,0.0,-2.163,-2.2418,-2.3193,-2.318,-2.4062,-2.627,0.0,0.0,0.0,0.0,0.0,0.0,0.0,-3.543,-3.7851,-3.918,-4.0625,-4.2168,-4.248,-4.2617,-4.2617,-4.2461,-4.1191,-3.9004,-3.6836,-3.5039,-3.3574,-3.2519,-3.1621,0.0,0.0,0.0,0.0,0.0,0.0,0.0,0.0,0.0,0.0,0.0,0.0,0.0,0.0,0.0,0.0,0.0,0.0,0.0,0.0,0.0,0.0,0.0,0.0,0.0,0.0,0.0,0.0,0.0,0.0,0.0,0.0,0.0,0.0,0.0,0.0,0.0,-3.5293,-3.8027,0.0,-3.6914,-3.7383,-3.8086,-3.8652,-3.9883,-4.1289,-4.2871,-4.418,-4.5605,-4.7226,-4.7988,-4.873,-4.9473,-5.2374,-5.4634,-5.6434,-6.0349,-6.2752,-6.3705,-6.5695,-6.5232,-6.2784,-6.1803,-6.1094,-6.0407,-5.622,-5.5111,-5.57,-5.2155,-4.9641,-4.7956,-4.7399,-4.6722,-4.6105,0.0,0.0,0.0,0.0,0.0,0.0,0.0,0.0,0.0,0.0,0.0,-2.0187,-2.155,-2.2579,-2.3527,-2.4422,-2.4235,-2.5102,-2.7501,0.0,0.0,0.0,0.0,0.0,0.0,-3.498,-3.7266,-3.9863,-4.1035,-4.2324,-4.373,-4.373,-4.373,-4.373,-4.3594,-4.2812,-4.1484,-3.9766,-3.7363,-3.4648,-3.3633,-3.2988,-3.2422,0.0,0.0,0.0,0.0,0.0,0.0,0.0,0.0,0.0,0.0,0.0,0.0,0.0,0.0,0.0,0.0,0.0,0.0,0.0,0.0,0.0,0.0,0.0,0.0,0.0,0.0,0.0,0.0,0.0,0.0,0.0,0.0,0.0,0.0,0.0,-3.8223,-3.8359,-4.1055,-4.2207,-4.0449,-4.082,-4.1465,-4.2207,-4.3437,-4.4805,-4.623,-4.7266,-4.834,-4.9473,-4.9941,-5.0391,-5.082,-5.2786,-5.5104,-5.7743,-5.9966,-6.2455,-6.5084,-6.5446,-6.4745,-6.2898,-6.088,-5.9729,-5.9092,-5.5885,-5.5444,-5.6541,-5.3801,-5.2024,-5.0804,-5.0122,-4.9271,-4.8302,0.0,0.0,0.0,0.0,0.0,0.0,0.0,0.0,0.0,0.0,-1.9519,-2.0708,-2.1897,-2.3607,-2.4796,-2.5117,-2.4823,-2.5469,-2.7448,-2.6029,0.0,0.0,0.0,0.0,-3.3535,-3.6875,-3.9492,-4.125,-4.291,-4.418,-4.5039,-4.5039,-4.5039,-4.5019,-4.4629,-4.418,-4.3672,-4.2832,-4.0527,-3.7285,-3.5098,-3.4941,-3.5684,0.0,0.0,0.0,0.0,0.0,0.0,0.0,0.0,0.0,0.0,0.0,0.0,0.0,0.0,0.0,0.0,0.0,0.0,0.0,0.0,0.0,0.0,0.0,0.0,0.0,0.0,0.0,0.0,0.0,0.0,0.0,0.0,0.0,-3.4785,-3.7832,-4.0195,-4.0664,-4.3359,-4.4531,-4.2832,-4.4219,-4.5391,-4.5801,-4.7012,-4.8086,-4.8926,-4.9394,-5.0019,-5.0859,-5.1289,-5.1699,-5.2129,-5.2558,-5.4224,-5.7018,-5.7039,-5.8642,-6.146,-6.1482,-6.1386,-6.1267,-6.0874,-6.0556,-6.0232,-5.6558,-5.5063,-5.5083,-5.5946,-5.6265,-5.5955,-5.3294,-5.2318,-5.1958,0.0,0.0,0.0,0.0,0.0,0.0,0.0,0.0,0.0,0.0,-1.988,-2.1403,-2.2806,-2.4342,-2.5651,-2.6587,-2.5224,-2.5511,-2.8473,0.0,0.0,0.0,0.0,0.0,-3.6621,-3.8555,-4.0684,-4.3008,-4.3808,-4.4648,-4.5508,-4.5508,-4.5508,-4.5488,-4.5371,-4.4902,-4.418,-4.3594,-4.2637,-4.125,-3.8457,-3.6621,-3.5371,0.0,0.0,0.0,0.0,0.0,0.0,0.0,0.0,0.0,0.0,0.0,0.0,0.0,0.0,0.0,0.0,0.0,0.0,0.0,0.0,0.0,0.0,0.0,0.0,0.0,0.0,0.0,0.0,0.0,0.0,0.0,0.0,-3.7832,-3.7949,-4.0937,-4.3633,-4.5,-4.7285,-4.8574,-4.8086,-4.9023,-4.959,-4.9414,-5.0586,-5.1269,-5.1191,-5.1601,-5.209,-5.2637,-5.2773,-5.3047,-5.3496,-5.3926,-5.5305,-5.752,-5.8289,-5.9755,-6.1995,-6.2352,-6.1524,-5.9755,-5.9265,-5.7912,-5.5727,-5.4444,-5.3507,-5.2887,-5.2209,-5.1962,-5.1869,-5.1116,-5.0597,-5.0225,0.0,0.0,0.0,0.0,0.0,0.0,0.0,0.0,0.0,0.0,-2.0013,-2.167,-2.3166,-2.4529,-2.5651,-2.6466,-2.5445,-2.5603,-2.7659,0.0,0.0,0.0,0.0,-3.5684,-3.8398,-4.0098,-4.2031,-4.4258,-4.4707,-4.5469,-4.6465,-4.6289,-4.6308,-4.6465,-4.6465,-4.5996,-4.5176,-4.4902,-4.4433,-4.373,-4.1797,-3.9844,-3.7851,-3.582,-3.5117,-3.5019,-3.3555,-3.3594,-3.4101,-3.248,0.0,0.0,0.0,0.0,0.0,0.0,0.0,0.0,0.0,0.0,0.0,0.0,0.0,0.0,0.0,0.0,0.0,0.0,0.0,0.0,0.0,0.0,0.0,0.0,-3.8691,-4.1211,-4.2285,-4.416,-4.6211,-4.8301,-4.9668,-5.0723,-5.1445,-5.1797,-5.2012,-5.2148,-5.2851,-5.3164,-5.291,-5.3125,-5.3379,-5.3633,-5.3808,-5.4043,-5.4297,-5.4726,-5.5686,-5.727,-5.7595,-5.8624,-6.012,-6.0306,-5.9551,-5.8126,-5.7555,-5.6328,-5.4512,-5.3906,-5.3242,0.0,0.0,0.0,0.0,0.0,-5.0019,-4.9785,0.0,0.0,0.0,0.0,0.0,0.0,0.0,0.0,0.0,0.0,0.0,-2.159,-2.2979,-2.4182,-2.501,-2.5344,-2.5185,-2.5404,0.0,0.0,0.0,-3.3086,-3.5605,-3.7754,-3.9453,-4.1562,-4.3457,-4.5098,-4.5586,-4.6387,-4.75,-4.7168,-4.7207,-4.7578,-4.7578,-4.7148,-4.6445,-4.6348,-4.5859,-4.5137,-4.4648,-4.3457,-4.1641,-3.875,-3.8105,-3.8496,-3.6719,-3.5742,-3.5117,-3.4062,0.0,0.0,0.0,0.0,0.0,0.0,0.0,0.0,0.0,0.0,0.0,0.0,0.0,0.0,0.0,0.0,0.0,0.0,0.0,0.0,0.0,0.0,0.0,0.0,-4.1543,-4.4414,-4.6992,-4.7402,-4.832,-5.0664,-5.1074,-5.1777,-5.3359,-5.3242,-5.3379,-5.4121,-5.4258,-5.4277,-5.418,0.0,0.0,0.0,0.0,-5.4941,-5.5039,-5.5371,-5.5898,-5.666,-5.6269,-5.6445,-5.7129,-5.6758,-5.6582,-5.6562,-5.6172,-5.5742,-5.5254,-5.4492,-5.3848,-5.3242,-5.1992,-5.125,-5.082,-5.0449,-5.0254,-5.0117,0.0,0.0,0.0,0.0,0.0,0.0,0.0,0.0,0.0,-1.8343,-1.9813,-2.1056,-2.1817,-2.2953,-2.3875,-2.4409,-2.3363,-2.3941,0.0,0.0,0.0,-3.5293,-3.7519,-3.9531,-4.125,-4.3086,-4.4512,-4.5547,-4.6308,-4.6816,-4.7051,-4.7324,-4.75,-4.7578,-4.7578,-4.748,-4.7285,-4.6601,-4.6211,-4.5996,-4.5215,-4.4082,-4.2617,-4.0644,-3.9785,-3.9375,-3.7285,-3.7559,-3.8555,-3.6289,-3.6328,-3.6934,-3.4668,0.0,0.0,0.0,0.0,0.0,0.0,0.0,0.0,0.0,0.0,0.0,0.0,0.0,0.0,0.0,0.0,0.0,0.0,0.0,0.0,-4.1289,-4.4219,-4.709,-4.9687,-5.0351,-5.0879,-5.1738,-5.2773,-5.3672,-5.4355,-5.4961,-5.5234,-5.5078,-5.5703,-5.5781,-5.5098,-5.5723,-5.6094,-5.6094,-5.6172,-5.6543,-5.7246,-5.6973,-5.6933,-5.709,0.0,0.0,-5.6699,-5.6621,-5.6582,-5.6582,-5.6504,-5.6015,-5.5293,-5.5137,-5.4394,-5.3262,-5.2324,-5.1699,-5.1308,-5.123,-5.0762,-5.0176,0.0,0.0,0.0,0.0,0.0,0.0,0.0,0.0,0.0,0.0,-1.9412,-2.0468,-2.1042,-2.1777,-2.2338,-2.2632,-2.3014,0.0,0.0,-3.1358,0.0,0.0,-3.9062,-4.0762,-4.2715,-4.3828,-4.4922,-4.5996,-4.6621,-4.7148,-4.7578,-4.7793,-4.8008,-4.8223,-4.8223,-4.8105,-4.7871,-4.7441,-4.7012,-4.6582,-4.6152,-4.5469,-4.4531,-4.3027,-4.2051,-4.1348,-4.0273,-4.0019,-3.9941,-3.8203,-3.7891,-3.791,-3.5976,-3.4922,-3.4199,0.0,0.0,0.0,0.0,0.0,0.0,0.0,0.0,0.0,0.0,0.0,0.0,0.0,0.0,-3.5625,0.0,0.0,-4.166,-4.4258,-4.6484,-4.8652,-5.082,-5.1855,-5.2558,-5.3008,-5.3633,-5.4375,-5.5234,-5.5683,-5.6015,-5.625,-5.666,-5.6797,-5.6601,-5.6992,-5.7226,-5.7226,-5.7226,-5.7422,-5.7871,-5.7637,-5.7656,-5.7851,-5.7422,-5.7207,-5.7207,-5.6777,-5.6582,-5.6582,-5.6348,-5.6015,-5.5586,-5.5176,-5.4355,-5.3301,-5.2656,-5.2129,-5.1738,-5.1523,-5.1172,-5.0742,0.0,0.0,0.0,0.0,0.0,0.0,0.0,0.0,0.0,0.0,0.0,-1.972,-2.0201,-2.0508,-2.0681,0.0,0.0,0.0,0.0,0.0,0.0,0.0,0.0,0.0,-4.3808,-4.4375,-4.5195,-4.6308,-4.6797,-4.7402,-4.8086,-4.8262,-4.8516,-4.8867,-4.8867,-4.8672,-4.832,-4.8242,-4.7812,-4.7168,-4.709,-4.6797,-4.6308,-4.5195,-4.4219,-4.3418,-4.3164,-4.1914,-4.0312,-3.9668,-3.8828,-3.7891,-3.6934,-3.6348,-3.5703,-3.4121,-3.3555,0.0,0.0,0.0,0.0,0.0,0.0,0.0,0.0,0.0,-3.4394,-3.6055,-3.7402,-3.8769,-4.0351,-4.209,-4.4219,-4.6973,-4.8516,-4.9961,-5.1699,-5.2832,-5.3711,-5.4316,-5.4394,-5.4844,-5.5957,-5.6133,-5.6465,-5.7168,-5.7363,-5.7578,-5.7851,-5.8027,-5.8086,-5.7988,-5.7988,-5.8027,-5.8105,-5.8027,-5.8183,-5.8535,-5.7715,-5.748,-5.7715,-5.6933,-5.6582,-5.6562,-5.6035,-5.5762,-5.5625,-5.4765,-5.4004,-5.3301,-5.2793,-5.2383,-5.2031,-5.1582,-5.1328,-5.1094,0.0,0.0,0.0,0.0,0.0,0.0,0.0,0.0,0.0,0.0,0.0,0.0,0.0,0.0,0.0,0.0,0.0,0.0,0.0,0.0,0.0,0.0,0.0,0.0,0.0,-4.5117,-4.5781,-4.6308,-4.7109,-4.7558,-4.7656,-4.8418,-4.8808,-4.8867,-4.8867,-4.8828,-4.875,-4.8379,-4.8144,-4.8027,-4.7656,-4.7246,-4.6797,-4.6289,-4.5547,-4.4648,-4.3496,-4.1738,-4.0019,-4.0273,-3.9551,-3.8535,-3.8769,-3.8555,-3.7734,-3.5273,0.0,-3.3047,-3.1348,-3.0957,-3.1543,-3.3672,-3.3652,-3.4062,0.0,0.0,-3.832,-3.9668,-4.0957,-4.2148,-4.3105,-4.5,-4.7051,-4.8926,-5.0312,-5.1758,-5.3496,-5.3867,-5.4394,-5.5586,-5.5723,-5.5937,-5.6465,-5.6855,-5.7109,-5.7207,-5.7949,-5.8242,-5.7871,-5.8613,-5.8848,-5.8476,-5.8476,-5.8652,-5.9023,-5.8652,-5.8476,-5.8535,-5.8027,-5.7617,-5.7265,-5.6797,-5.6582,-5.6543,-5.5723,-5.5156,-5.4746,-5.3867,-5.3457,-5.3281,-5.2461,-5.2129,-5.2031,-5.1582,-5.0957,-5.0312,0.0,0.0,0.0,0.0,0.0,0.0,0.0,0.0,0.0,0.0,0.0,0.0,0.0,0.0,0.0,0.0,0.0,0.0,0.0,0.0,0.0,0.0,0.0,0.0,0.0,0.0,-4.5879,-4.6308,-4.7168,-4.7578,-4.7598,-4.8457,-4.8867,-4.8867,-4.8867,-4.8867,-4.8848,-4.8672,-4.8437,-4.8183,-4.8008,-4.7539,-4.6855,-4.6191,-4.4766,-4.3047,-4.2246,-4.0898,0.0,0.0,-3.8437,-3.8223,-3.8398,-3.8008,-3.7148,-3.5566,-3.4492,0.0,-3.2324,-3.2539,0.0,0.0,-3.5742,-3.7402,-3.9805,-4.0586,-4.1191,-4.25,-4.3984,-4.5234,-4.584,-4.7519,-4.9219,0.0,-5.1289,-5.2324,-5.3828,-5.3808,-5.3945,-5.4726,-5.4824,-5.5293,-5.6465,-5.6973,-5.7324,-5.7578,-5.8183,-5.8555,-5.8613,-5.8965,-5.9121,-5.8887,-5.8887,-5.9004,-5.918,-5.9004,-5.8887,-5.8887,-5.8476,-5.8027,-5.7578,-5.7148,-5.6543,-5.582,-5.5469,-5.4765,-5.3906,-5.3789,-5.3437,-5.293,-5.2324,-5.209,-5.2031,-5.1582,-5.1211,-5.084,0.0,0.0,0.0,0.0,0.0,0.0,0.0,0.0,0.0,0.0,0.0,0.0,0.0,0.0,0.0,0.0,0.0,0.0,0.0,0.0,0.0,0.0,0.0,0.0,0.0,0.0,0.0,-4.4525,-4.5977,-4.672,-4.6739,-4.7446,-4.8181,-4.8867,-4.8867,-4.8867,-4.8867,-4.8867,-4.8672,-4.8379,-4.8262,-4.7617,-4.6601,-4.5293,-4.3242,-4.1035,-4.0742,-3.9316,0.0,0.0,-3.6543,-3.6601,-3.707,-3.6894,-3.6289,-3.5312,-3.4238,-3.3301,-3.3047,0.0,0.0,-3.5918,-3.8125,-4.0469,-4.1914,-4.2891,-4.3867,-4.5176,-4.6426,-4.748,-4.8164,-4.9336,-5.0488,-5.1445,-5.207,-5.2812,-5.3887,-5.375,-5.3574,-5.3652,-5.3555,-5.4023,-5.539,-5.6445,-5.7265,-5.7812,-5.8379,-5.8828,-5.918,-5.918,-5.918,-5.918,-5.918,-5.918,-5.918,-5.918,-5.9121,-5.9004,-5.8555,-5.8125,-5.7656,-5.7109,-5.6289,-5.5293,-5.5058,-5.4355,-5.3359,-5.3457,-5.3105,-5.25,-5.207,-5.1914,-5.1855,-5.1426,-5.1191,-5.0996,0.0,0.0,0.0,0.0,0.0,0.0,0.0,0.0,0.0,0.0,0.0,0.0,0.0,0.0,0.0,0.0,0.0,0.0,0.0,0.0,0.0,0.0,0.0,0.0,0.0,0.0,0.0,-4.0127,-4.3058,-4.4482,-4.45,-4.4898,-4.6429,-4.8867,-4.8867,-4.8867,-4.8867,-4.8867,-4.8848,-4.8808,-4.8379,-4.7441,-4.6035,-4.3496,-4.1172,-3.9277,-3.9258,0.0,0.0,0.0,-3.3965,-3.3242,-3.4941,-3.5723,0.0,-3.4492,-3.291,0.0,0.0,0.0,-3.6074,-3.9004,-4.1035,-4.2773,-4.4512,-4.5566,-4.6543,-4.7832,-4.8125,-4.8574,-4.9863,-5.0137,-5.0586,-5.1855,-5.2773,-5.3496,-5.3965,-5.4023,-5.3691,-5.2851,-5.2383,-5.2324,0.0,-5.5117,-5.6953,-5.7812,-5.8672,-5.918,-5.918,-5.918,-5.918,-5.918,-5.918,-5.918,-5.918,-5.918,-5.8945,-5.8535,-5.8086,-5.7656,-5.7207,-5.6367,-5.5723,-5.5254,-5.4433,-5.3789,-5.3301,-5.248,-5.2129,-5.2051,-5.1621,-5.1445,-5.1406,-5.0976,-5.0566,-5.0215,0.0,0.0,0.0,0.0,0.0,0.0,0.0,0.0,0.0,0.0,0.0,0.0,0.0,0.0,0.0,0.0,0.0,0.0,0.0,0.0,0.0,0.0,0.0,0.0,0.0,0.0,0.0,-3.872,-4.1792,-4.3452,-4.3723,-4.5809,-4.7304,-4.8418,-4.8418,-4.8594,-4.8848,-4.8555,-4.8262,-4.793,-4.6933,-4.5937,-4.4746,-4.2148,-3.9473,-3.6894,0.0,0.0,0.0,0.0,0.0,0.0,-3.2539,0.0,0.0,-3.25,-3.2773,-3.3496,0.0,0.0,-3.9375,-4.1816,-4.3926,-4.5723,-4.6875,-4.7812,-4.8476,-4.8613,-4.8183,-4.793,-4.8379,-4.8672,-4.9297,-5.0605,-5.2246,-5.3516,-5.3965,-5.4023,-5.3379,-5.166,-5.1562,0.0,0.0,0.0,0.0,-5.6894,-5.7539,-5.8262,-5.9121,-5.918,-5.918,-5.918,-5.918,-5.9062,-5.8769,-5.8769,-5.8535,-5.8086,-5.7637,-5.7344,-5.7168,-5.6035,-5.5449,-5.5254,-5.4394,-5.3613,-5.291,-5.2617,-5.2168,-5.1641,-5.1484,-5.1426,-5.1387,-5.0957,-5.0547,-5.0137,0.0,0.0,0.0,0.0,0.0,0.0,0.0,0.0,0.0,0.0,0.0,0.0,0.0,0.0,0.0,0.0,0.0,0.0,0.0,0.0,0.0,0.0,0.0,0.0,0.0,0.0,0.0,0.0,-3.711,-3.9218,-4.0367,-4.1688,-4.3783,-4.6387,-4.5799,-4.6196,-4.7246,-4.6973,-4.6426,-4.5625,-4.4355,-4.3047,-4.1582,-3.8984,-3.6504,0.0,0.0,0.0,0.0,0.0,0.0,0.0,0.0,-3.1269,-3.1601,-3.207,-3.3418,-3.5176,0.0,-3.9824,-4.2617,-4.459,-4.6601,-4.8183,-4.8594,-4.9121,-4.9316,-4.8555,-4.7598,-4.6816,-4.6504,-4.6289,-4.6719,-4.8496,-5.0078,-5.1601,-5.3125,-5.2949,-5.2246,-5.1152,-5.0859,-5.0703,0.0,0.0,0.0,-5.6152,-5.6875,-5.7715,-5.8887,-5.9121,-5.918,-5.918,-5.918,-5.9062,-5.8769,-5.8769,-5.8476,-5.7851,-5.7265,-5.6992,-5.6953,-5.582,-5.5234,-5.5019,-5.4004,-5.3144,-5.2461,-5.2148,-5.1699,-5.1191,-5.1035,-5.0976,-5.0937,-5.0508,-5.0176,-4.9902,0.0,0.0,0.0,0.0,0.0,0.0,0.0,0.0,0.0,0.0,0.0,0.0,0.0,0.0,0.0,0.0,0.0,0.0,0.0,0.0,0.0,0.0,0.0,0.0,0.0,0.0,0.0,0.0,-2.9389,-3.2236,-3.4614,-3.3442,-3.6358,-4.2631,-4.1275,-4.1871,-4.4018,-4.4082,-4.334,-4.2051,-4.0781,-3.9023,-3.6894,-3.4336,0.0,0.0,0.0,0.0,0.0,0.0,0.0,0.0,0.0,0.0,-3.1914,-3.3262,-3.4902,-3.6934,-3.9941,-4.293,-4.5586,-4.7285,-4.8945,-5.0039,-4.959,-4.9453,-4.9043,-4.7695,-4.6348,-4.5137,0.0,0.0,-4.3183,-4.5781,-4.6719,-4.8301,-5.168,-5.1172,-5.0703,0.0,0.0,0.0,0.0,0.0,0.0,-5.5683,0.0,-5.7519,-5.8476,-5.8945,-5.918,-5.918,-5.918,-5.918,-5.9121,-5.9121,-5.8672,-5.7812,-5.6992,-5.6582,-5.6523,-5.5664,-5.5039,-5.457,-5.3281,-5.2461,-5.2012,-5.1172,-5.082,-5.0762,-5.0351,-5.0176,-5.0117,-4.9687,-4.9531,-4.9531,0.0,0.0,0.0,0.0,0.0,0.0,0.0,0.0,0.0,0.0,0.0,0.0,0.0,0.0,0.0,0.0,0.0,0.0,0.0,0.0,0.0,0.0,0.0,0.0,0.0,0.0,0.0,0.0,0.0,-2.9676,-3.1506,-3.2193,-3.4184,0.0,-3.7052,-3.7553,-3.846,-3.9237,-3.9199,-3.8496,0.0,-3.6172,-3.5156,0.0,0.0,0.0,0.0,0.0,0.0,0.0,0.0,0.0,0.0,0.0,-3.3867,-3.6113,-3.8242,-4.0449,-4.3144,-4.5605,-4.7734,-4.916,-4.9609,-4.957,-4.9141,-4.8535,-4.7539,-4.5605,-4.3418,-4.1484,0.0,0.0,0.0,-4.4453,-4.7656,0.0,-5.2734,-5.3594,0.0,0.0,0.0,-5.3027,-5.2148,-5.2461,0.0,0.0,-5.584,-5.6601,-5.8418,-5.8945,-5.918,-5.918,-5.918,-5.9004,-5.8711,-5.8027,-5.7598,-5.7363,-5.6836,-5.6406,-5.6074,-5.5234,-5.4609,-5.4141,-5.3144,-5.2461,-5.2051,-5.1504,-5.1094,-5.0762,-5.0351,-5.0176,-5.0117,-4.9687,-4.9531,-4.9473,0.0,0.0,0.0,0.0,0.0,0.0,0.0,0.0,0.0,0.0,0.0,0.0,0.0,0.0,0.0,0.0,0.0,0.0,0.0,0.0,0.0,0.0,0.0,0.0,0.0,0.0,0.0,0.0,0.0,0.0,0.0,-2.7498,-2.9328,-3.2636,-3.2406,-3.3288,-3.5098,0.0,0.0,0.0,0.0,0.0,0.0,0.0,0.0,0.0,0.0,0.0,0.0,0.0,0.0,-3.2305,-3.3965,-3.5215,-3.6601,-3.9375,0.0,-4.3379,-4.5781,-4.7988,-4.9766,-5.0312,-5.041,-4.9902,-4.8144,-4.707,-4.5527,-4.2246,-4.0098,0.0,0.0,0.0,0.0,0.0,0.0,0.0,-5.2344,-5.3437,-5.3945,0.0,-5.4609,0.0,-5.3926,-5.4062,-5.4765,0.0,-5.582,-5.6445,-5.8418,-5.8945,-5.918,-5.918,-5.918,-5.9062,-5.8828,-5.7969,-5.75,-5.748,-5.6875,-5.6348,-5.5918,-5.5254,-5.4512,-5.3691,0.0,-5.2363,-5.1738,-5.1133,-5.0742,-5.0469,-4.9844,-4.959,-4.957,-4.9316,-4.9238,-4.9199,0.0,0.0,0.0,0.0,0.0,0.0,0.0,0.0,0.0,0.0,0.0,0.0,0.0,0.0,0.0,0.0,0.0,0.0,0.0,0.0,0.0,0.0,0.0,0.0,0.0,0.0,0.0,0.0,0.0,0.0,0.0,0.0,0.0,0.0,0.0,0.0,0.0,0.0,0.0,0.0,0.0,0.0,0.0,0.0,0.0,0.0,0.0,0.0,0.0,0.0,-3.3476,-3.4394,-3.6582,-3.8223,-3.9922,-4.2891,-4.4648,-4.6074,-4.8164,-5.0137,-5.1504,-5.1074,-5.1035,-5.0215,-4.6894,-4.5215,-4.3047,-3.8437,0.0,0.0,-3.3945,0.0,-3.6894,-4.0098,0.0,-4.6387,-5.1601,-5.2402,-5.334,-5.5801,-5.5879,-5.5703,-5.5644,-5.5644,-5.5976,-5.6777,-5.6445,-5.6875,-5.8476,-5.8945,-5.918,-5.918,-5.918,-5.918,-5.9121,-5.8262,-5.7851,-5.7754,-5.6914,-5.6269,-5.584,-5.5351,-5.4453,-5.3242,-5.2812,-5.2168,-5.1367,-5.0527,-5.0176,-5.0098,-4.9199,-4.8867,-4.8867,-4.8867,-4.8867,-4.8867,0.0,0.0,0.0,0.0,0.0,0.0,0.0,0.0,0.0,0.0,-1.5979,-1.5784,0.0,0.0,0.0,0.0,0.0,0.0,0.0,0.0,0.0,0.0,0.0,0.0,0.0,0.0,0.0,0.0,0.0,0.0,0.0,0.0,0.0,0.0,0.0,0.0,0.0,0.0,0.0,0.0,0.0,0.0,0.0,0.0,0.0,0.0,0.0,0.0,0.0,0.0,-3.5605,-3.7519,-3.9707,-4.1777,-4.3906,-4.6543,-4.7988,-4.9141,-5.0918,-5.1933,-5.2383,-5.1973,-5.0586,-4.8613,-4.5879,-4.293,0.0,0.0,0.0,-3.2637,-3.1621,-3.3359,0.0,-4.0391,0.0,0.0,0.0,0.0,-5.4922,0.0,0.0,0.0,0.0,0.0,0.0,0.0,0.0,-5.7793,-5.8476,-5.8945,-5.918,-5.918,-5.918,-5.9004,-5.8652,-5.8144,-5.7676,-5.7305,-5.6465,-5.582,-5.539,-5.4609,-5.373,-5.2793,-5.2383,0.0,-5.1367,-5.0527,-5.0176,-5.0098,-4.9199,-4.8867,-4.8867,-4.8867,-4.8867,-4.8867,0.0,0.0,0.0,0.0,0.0,0.0,0.0,-1.5925,-1.5992,-1.6433,-1.638,-1.6233,-1.6072,-1.5925,0.0,0.0,0.0,0.0,0.0,0.0,0.0,0.0,0.0,0.0,0.0,0.0,0.0,0.0,0.0,0.0,0.0,0.0,0.0,0.0,0.0,0.0,0.0,0.0,0.0,0.0,0.0,0.0,0.0,0.0,0.0,0.0,0.0,0.0,0.0,0.0,-3.5879,-3.9121,-4.2207,-4.4512,-4.6465,-4.8613,-4.9844,-5.0801,-5.207,-5.3066,-5.3516,-5.2637,-5.0801,-4.8183,-4.4238,0.0,0.0,0.0,0.0,-3.0957,-3.0312,0.0,0.0,0.0,0.0,0.0,0.0,0.0,0.0,0.0,0.0,0.0,0.0,0.0,0.0,0.0,0.0,-5.8418,-5.8828,-5.9062,-5.918,-5.918,-5.8945,-5.8769,-5.8535,-5.7851,-5.7422,-5.7207,-5.6348,-5.5703,-5.5273,-5.4414,-5.3555,-5.2695,-5.2266,0.0,-5.1074,-5.0664,-5.0234,-4.9785,-4.9375,-4.9062,-4.8867,-4.8867,-4.8867,-4.8867,0.0,0.0,0.0,0.0,0.0,0.0,0.0,-1.6126,-1.6233,-1.682,-1.6834,-1.6714,-1.6536,-1.6192,-1.5917,0.0,0.0,0.0,0.0,0.0,0.0,0.0,0.0,0.0,0.0,0.0,0.0,0.0,0.0,0.0,0.0,0.0,0.0,0.0,0.0,0.0,0.0,0.0,0.0,0.0,0.0,0.0,0.0,0.0,0.0,0.0,0.0,0.0,0.0,0.0,-3.5293,-3.8867,-4.25,-4.5449,-4.7851,-4.9219,-5.0605,-5.1894,-5.2754,-5.3887,-5.4473,-5.3066,-5.082,-4.7656,-4.2656,-3.8984,0.0,0.0,-3.0117,-3.0,-2.9746,0.0,0.0,0.0,0.0,0.0,0.0,0.0,0.0,0.0,0.0,0.0,0.0,0.0,0.0,0.0,0.0,0.0,-5.918,-5.9121,-5.9062,-5.9062,-5.8594,-5.8359,-5.8242,-5.748,-5.7031,-5.6933,-5.6074,-5.5488,-5.5137,-5.4277,-5.3457,-5.2695,-5.2266,0.0,-5.0801,-5.0703,-5.0215,-4.9512,-4.9414,-4.918,-4.8867,-4.8867,-4.8867,-4.8867,0.0,0.0,0.0,0.0,0.0,0.0,0.0,-1.6473,-1.6834,-1.7422,-1.7326,-1.7152,-1.7125,-1.6807,-1.6406,0.0,0.0,0.0,0.0,0.0,0.0,0.0,0.0,0.0,0.0,0.0,0.0,0.0,0.0,0.0,0.0,0.0,0.0,0.0,0.0,0.0,0.0,0.0,0.0,0.0,0.0,0.0,0.0,0.0,0.0,0.0,0.0,0.0,0.0,0.0,0.0,-3.5586,-3.832,-4.3047,-4.7617,-4.7773,0.0,0.0,-5.3672,-5.457,-5.4844,-5.3144,-4.9922,-4.6016,-4.1641,0.0,0.0,0.0,-2.9902,-2.9726,-3.0078,-3.0996,0.0,0.0,0.0,0.0,0.0,0.0,0.0,0.0,0.0,0.0,0.0,0.0,0.0,0.0,0.0,0.0,-5.918,-5.8828,-5.8594,-5.8594,-5.8144,-5.7734,-5.7344,-5.6875,-5.6445,-5.6035,-5.5195,-5.4785,-5.4707,-5.3828,-5.3164,-5.2695,-5.2266,0.0,0.0,-5.0391,-4.9961,-4.9492,-4.9082,-4.8887,-4.8867,-4.8867,-4.8867,-4.8867,0.0,0.0,0.0,0.0,0.0,0.0,-1.6233,-1.6219,-1.646,-1.7273,-1.742,-1.746,-1.746,-1.7301,-1.686,0.0,0.0,0.0,0.0,0.0,0.0,0.0,0.0,0.0,0.0,0.0,0.0,-1.7582,0.0,0.0,0.0,0.0,0.0,0.0,0.0,0.0,0.0,0.0,0.0,0.0,0.0,0.0,0.0,0.0,0.0,0.0,0.0,0.0,0.0,0.0,0.0,0.0,-3.4551,-3.7969,0.0,0.0,-4.8301,-5.1211,-5.3105,-5.4824,-5.5605,-5.3594,-5.0,-4.5801,-4.1504,0.0,0.0,-3.0742,-3.0059,-3.0,-3.0176,-3.0488,-3.1523,0.0,0.0,0.0,0.0,0.0,0.0,0.0,0.0,0.0,0.0,0.0,0.0,0.0,0.0,0.0,-5.8769,-5.8379,-5.8144,-5.8144,-5.7695,-5.7265,-5.6836,-5.6406,-5.5976,-5.5547,-5.4961,-5.4551,-5.4258,-5.3379,-5.2598,-5.1914,-5.1504,0.0,0.0,-5.0137,-4.9766,-4.9141,-4.9219,-4.9101,-4.8867,-4.8867,-4.8867,-4.8867,0.0,0.0,0.0,0.0,0.0,-1.5925,-1.6233,-1.6166,-1.6339,-1.7112,-1.738,-1.7488,-1.7569,-1.7355,-1.6901,-1.6152,-1.6286,0.0,0.0,0.0,0.0,0.0,0.0,0.0,0.0,0.0,-1.7582,-1.7582,-1.7675,-1.7822,0.0,0.0,0.0,0.0,0.0,0.0,0.0,0.0,0.0,0.0,0.0,0.0,0.0,0.0,0.0,0.0,0.0,0.0,0.0,0.0,0.0,0.0,0.0,0.0,0.0,0.0,-4.5898,-4.9297,-5.1758,-5.4082,-5.5371,-5.3457,-4.9648,-4.5312,0.0,0.0,0.0,-3.0879,-3.041,-3.041,-3.041,-3.041,-3.084,0.0,0.0,0.0,0.0,0.0,0.0,0.0,0.0,0.0,0.0,0.0,0.0,0.0,0.0,0.0,-5.8359,-5.791,-5.7676,-5.7676,-5.7129,-5.6699,-5.6406,-5.584,-5.5351,-5.4922,-5.4492,-5.4062,-5.3613,-5.2734,-5.1992,-5.1406,-5.0859,0.0,0.0,-4.9863,-4.9531,-4.8887,-4.9199,-4.9141,-4.8867,-4.8867,-4.8867,-4.8867,0.0,0.0,0.0,0.0,0.0,0.0,-1.6233,-1.6513,-1.6807,-1.7166,-1.7206,-1.7313,-1.7555,-1.6807,-1.6393,-1.6673,-1.67,0.0,0.0,0.0,0.0,0.0,0.0,0.0,0.0,0.0,-1.7582,-1.7582,-1.7889,-1.7982,-1.8023,-1.8637,0.0,0.0,0.0,0.0,0.0,0.0,0.0,0.0,0.0,0.0,0.0,0.0,0.0,0.0,0.0,0.0,0.0,0.0,0.0,0.0,0.0,0.0,0.0,0.0,-4.291,-4.7441,-4.9629,-5.209,-5.373,-5.2422,-4.8535,-4.4141,0.0,0.0,0.0,-3.123,-3.0879,-3.0879,-3.0879,-3.0879,-3.1035,-3.1465,0.0,0.0,0.0,0.0,0.0,0.0,0.0,0.0,0.0,0.0,0.0,0.0,0.0,0.0,-5.791,-5.7461,-5.7226,-5.7226,-5.6387,-5.5937,-5.5937,-5.5117,-5.4473,-5.4043,-5.3594,-5.3144,-5.2695,-5.1836,-5.1445,-5.1387,0.0,0.0,0.0,-4.9531,-4.9258,-4.8867,-4.8867,-4.8867,-4.8867,-4.8867,-4.8867,-4.8867,0.0,0.0,0.0,0.0,0.0,0.0,0.0,-1.6046,-1.6219,-1.6563,-1.6727,-1.6954,-1.73,-1.686,-1.6607,-1.67,-1.6526,0.0,0.0,0.0,0.0,0.0,0.0,0.0,0.0,0.0,-1.7689,-1.7849,-1.7942,-1.8195,-1.8637,-1.8838,-1.9025,-1.9225,0.0,0.0,0.0,0.0,0.0,0.0,0.0,0.0,0.0,0.0,0.0,0.0,0.0,0.0,0.0,0.0,0.0,0.0,0.0,0.0,0.0,0.0,0.0,0.0,-4.4902,-4.7207,-4.8652,-4.6465,-4.3711,-4.0762,-3.7891,0.0,0.0,-3.1172,-3.0898,-3.0898,-3.0898,-3.0898,-3.1406,-3.3008,-3.3711,0.0,0.0,0.0,0.0,0.0,0.0,0.0,0.0,0.0,0.0,0.0,0.0,0.0,-5.7441,-5.6738,-5.6348,-5.6348,-5.6074,-5.5508,-5.4648,-5.4375,-5.3867,-5.3125,-5.2988,-5.2539,-5.1816,-5.1562,-5.0957,0.0,0.0,0.0,0.0,-4.9062,-4.8984,-4.8867,-4.8867,-4.8867,-4.8867,-4.8867,-4.8672,-4.8457,0.0,0.0,0.0,0.0,0.0,0.0,0.0,-1.5784,-1.5851,-1.6086,-1.6259,-1.6526,-1.6941,-1.662,-1.646,-1.6687,-1.6339,0.0,0.0,0.0,0.0,0.0,0.0,0.0,0.0,-1.738,-1.7675,-1.821,-1.8275,-1.8624,-1.9092,-1.9199,-1.9292,-1.943,-1.943,0.0,0.0,0.0,0.0,0.0,0.0,0.0,-3.0254,0.0,0.0,0.0,0.0,0.0,0.0,0.0,0.0,0.0,0.0,0.0,0.0,0.0,-3.5137,0.0,0.0,-4.3281,-4.4648,-4.3183,-4.0976,0.0,0.0,0.0,0.0,0.0,-3.0898,-3.0898,-3.0898,-3.0898,-3.1328,-3.2656,0.0,0.0,0.0,0.0,0.0,0.0,0.0,0.0,0.0,0.0,0.0,0.0,0.0,0.0,-5.7012,-5.6465,-5.5879,-5.5234,-5.5371,-5.5,-5.4043,-5.3867,-5.334,-5.2461,-5.2461,-5.2031,-5.1191,-5.1035,-5.043,0.0,0.0,0.0,0.0,-4.8867,-4.8867,-4.8867,-4.8867,-4.8867,-4.8848,-4.8672,-4.8437,-4.8223,0.0,0.0,0.0,0.0,0.0,0.0,0.0,-1.5784,-1.5784,-1.5784,-1.5784,-1.5984,-1.658,-1.6152,-1.6046,-1.6593,0.0,0.0,0.0,0.0,0.0,0.0,0.0,0.0,0.0,-1.7206,-1.7661,-1.849,-1.8784,-1.9092,-1.9399,-1.9693,-1.9679,-1.9457,-1.9457,-1.9444,-1.9444,-1.9784,-2.1759,-2.4637,-2.5335,-2.7539,0.0,0.0,0.0,0.0,0.0,0.0,0.0,0.0,0.0,0.0,0.0,0.0,0.0,0.0,0.0,0.0,0.0,0.0,0.0,0.0,0.0,0.0,0.0,0.0,0.0,0.0,0.0,0.0,0.0,0.0,-3.0957,-3.1133,0.0,0.0,0.0,0.0,0.0,0.0,0.0,0.0,0.0,0.0,0.0,0.0,0.0,0.0,-5.6601,-5.6445,-5.5664,-5.4082,-5.4336,-5.4297,-5.3887,-5.3476,-5.2851,-5.2031,-5.2012,-5.1562,-5.0742,-5.0332,-4.9902,0.0,0.0,-4.8867,0.0,-4.8867,-4.8848,-4.8808,-4.8808,-4.8789,-4.8711,-4.8301,-4.8144,-4.8066,0.0,0.0,0.0,0.0,0.0,0.0,0.0,0.0,0.0,0.0,-1.5784,-1.5838,-1.6019,-1.5864,-1.5838,0.0,0.0,0.0,0.0,0.0,0.0,0.0,0.0,0.0,0.0,-1.7248,-1.7809,-1.849,-1.8784,-1.9185,-1.9706,-2.0,-1.9973,-1.9693,-1.9693,-1.9573,-1.9502,-2.0856,-2.2855,-2.5102,-2.6626,-2.8674,0.0,0.0,0.0,0.0,-3.0898,-3.0898,0.0,0.0,0.0,0.0,0.0,0.0,0.0,0.0,-3.125,-3.1758,-3.2988,0.0,-3.5684,-3.4805,0.0,0.0,0.0,0.0,0.0,0.0,0.0,0.0,0.0,0.0,0.0,0.0,0.0,0.0,0.0,0.0,0.0,0.0,0.0,0.0,0.0,0.0,0.0,0.0,0.0,-5.6758,-5.6113,-5.5156,-5.4453,-5.4043,-5.3164,-5.2637,-5.2539,-5.2441,-5.2109,-5.1582,-5.125,-5.084,-5.0312,-4.9883,-4.9433,-4.9004,-4.8906,-4.8867,-4.8867,-4.8867,-4.8672,-4.8359,-4.8359,-4.8164,-4.7871,-4.7773,-4.7519,-4.7266,0.0,0.0,0.0,0.0,0.0,0.0,0.0,0.0,0.0,0.0,0.0,0.0,0.0,0.0,0.0,0.0,0.0,0.0,0.0,0.0,0.0,0.0,0.0,0.0,-1.6901,-1.7273,-1.7809,-1.8691,-1.8851,-1.9292,-2.0,-2.016,-2.008,-1.9786,-1.9653,-1.9901,-2.0457,-2.0953,-2.3099,-2.6123,-2.5965,0.0,0.0,0.0,0.0,0.0,-3.0898,-3.0898,0.0,-3.0898,-3.0898,-3.0898,0.0,0.0,0.0,0.0,-3.0898,-3.0937,-3.1172,-3.2187,-3.3086,-3.2578,-3.2305,-3.2109,0.0,0.0,0.0,0.0,0.0,0.0,0.0,0.0,0.0,0.0,0.0,0.0,0.0,0.0,0.0,0.0,0.0,0.0,0.0,0.0,0.0,0.0,0.0,-5.6133,-5.5117,-5.4394,-5.3672,-5.2871,-5.2148,-5.1875,-5.209,-5.1699,-5.1387,-5.1133,-5.0723,-5.0293,-4.9863,-4.9629,-4.9277,-4.8848,-4.8652,-4.8555,-4.8535,-4.8359,-4.8125,-4.793,-4.793,-4.7773,-4.7558,-4.7363,-4.7129,-4.6933,0.0,0.0,0.0,0.0,0.0,0.0,0.0,0.0,0.0,0.0,0.0,0.0,0.0,0.0,0.0,0.0,0.0,0.0,0.0,0.0,0.0,0.0,0.0,-1.6643,-1.7192,-1.7246,-1.7756,-1.8865,-1.8998,-1.9506,-2.0374,-2.0454,-2.0294,-1.992,-1.9626,-2.0208,-2.1247,-2.0525,-2.284,-2.6863,-2.483,0.0,0.0,0.0,0.0,0.0,0.0,0.0,0.0,-3.0898,-3.0898,-3.0898,-3.0898,0.0,0.0,0.0,0.0,0.0,-3.1133,-3.1758,-3.2383,-3.248,-3.2285,-3.2051,0.0,0.0,0.0,0.0,0.0,0.0,0.0,0.0,0.0,0.0,0.0,0.0,0.0,0.0,0.0,0.0,0.0,0.0,0.0,0.0,0.0,0.0,0.0,-5.5527,-5.4004,-5.375,-5.2949,-5.1484,-5.125,-5.1348,-5.1797,-5.1074,-5.0703,-5.0703,-5.0273,-4.9883,-4.9531,-4.9453,-4.918,-4.873,0.0,0.0,-4.8086,-4.7734,-4.7539,-4.748,-4.748,-4.7441,-4.7344,-4.6973,-4.6836,-4.6777,0.0,0.0,0.0,0.0,0.0,0.0,0.0,0.0,0.0,0.0,0.0,0.0,0.0,0.0,0.0,0.0,0.0,0.0,0.0,0.0,0.0,0.0,-1.678,-1.6794,-1.7192,-1.7447,-1.7862,-1.8557,-1.9305,-2.012,-2.0989,-2.1483,-2.1296,-2.0535,-2.0227,-2.008,-2.0101,-2.014,-2.2377,-2.5881,-2.5698,0.0,0.0,0.0,0.0,0.0,0.0,0.0,0.0,-3.0898,-3.0898,-3.0898,-3.0898,0.0,0.0,0.0,0.0,0.0,-3.2207,-3.2851,-3.2891,-3.1523,-3.1406,-3.1523,0.0,0.0,0.0,0.0,0.0,0.0,0.0,0.0,0.0,0.0,0.0,0.0,0.0,0.0,0.0,0.0,0.0,0.0,0.0,0.0,0.0,0.0,0.0,-5.4141,-5.3496,-5.2422,-5.1719,-5.1445,-5.0371,-5.0039,-5.0469,-5.0332,-5.0273,-5.0273,-4.9844,-4.959,-4.9512,-4.9141,-4.873,-4.8301,0.0,-4.8008,-4.7676,-4.7617,-4.7363,-4.7031,-4.7031,-4.6816,-4.6484,-4.6426,-4.6406,-4.6387,0.0,0.0,0.0,0.0,0.0,0.0,0.0,0.0,0.0,0.0,0.0,0.0,0.0,0.0,0.0,0.0,0.0,0.0,0.0,0.0,0.0,-1.742,-1.7152,-1.7088,-1.7434,-1.7836,-1.837,-1.8971,-1.984,-2.0722,-2.1577,-2.1537,-2.1296,-2.0882,-2.0267,-2.0479,-2.1222,-2.0699,-2.2386,-2.5413,0.0,0.0,0.0,0.0,0.0,0.0,0.0,0.0,0.0,0.0,-3.0898,-3.0898,-3.0898,0.0,0.0,0.0,0.0,0.0,-3.1601,-3.207,-3.2324,-3.1992,-3.2422,-3.2676,0.0,0.0,0.0,0.0,0.0,0.0,0.0,0.0,0.0,0.0,0.0,0.0,0.0,0.0,0.0,0.0,0.0,0.0,0.0,0.0,0.0,0.0,0.0,0.0,-5.2715,-5.1875,-5.123,-5.0781,-4.9961,-4.9512,-4.9473,-4.9473,-4.959,-4.9824,-4.9375,-4.9043,-4.8808,-4.8594,-4.8281,-4.7851,0.0,-4.7402,-4.7207,-4.6992,-4.6777,-4.6601,-4.6601,-4.6465,-4.6308,-4.6308,-4.6308,-4.6308,0.0,0.0,0.0,0.0,0.0,0.0,0.0,0.0,0.0,0.0,0.0,0.0,0.0,0.0,0.0,0.0,0.0,0.0,0.0,0.0,-1.7114,-1.7569,-1.7554,-1.7648,-1.7889,-1.8424,-1.9052,-1.9773,-2.0722,-2.1603,-2.2392,-2.179,-2.1403,-2.1176,-2.0374,-2.0782,-2.2016,-2.1067,-2.2331,-2.4807,0.0,0.0,0.0,0.0,0.0,0.0,0.0,0.0,0.0,0.0,0.0,0.0,0.0,0.0,0.0,-3.0898,-3.0898,-3.0957,-3.125,-3.1582,-3.1973,-3.2637,0.0,-3.3379,-3.3008,0.0,0.0,0.0,0.0,0.0,0.0,0.0,0.0,0.0,0.0,0.0,0.0,0.0,0.0,0.0,0.0,0.0,0.0,0.0,0.0,0.0,0.0,0.0,-5.1855,-5.1367,-5.0801,-5.0039,-4.9609,-4.916,-4.8711,-4.8711,-4.8887,-4.9219,-4.8867,-4.8476,-4.8066,-4.8066,-4.7832,-4.7402,-4.707,-4.6875,-4.6758,-4.6426,-4.625,-4.6172,-4.6269,-4.6308,-4.6308,-4.6308,-4.6308,-4.6308,0.0,0.0,0.0,0.0,0.0,0.0,0.0,0.0,0.0,0.0,0.0,0.0,0.0,0.0,0.0,0.0,0.0,0.0,0.0,0.0,-1.7542,-1.7582,-1.8103,-1.8531,-1.8824,-1.9145,-1.9853,-2.0989,-2.2138,-2.302,-2.3634,-2.302,-2.2365,-2.1561,-2.0882,-2.069,-2.0827,-2.073,-2.1858,-2.3715,-2.3621,0.0,0.0,0.0,0.0,0.0,0.0,0.0,0.0,0.0,0.0,0.0,0.0,0.0,-3.0898,-3.0898,-3.0898,-3.1152,-3.2324,-3.2676,-3.2715,-3.2773,0.0,0.0,-3.4629,0.0,0.0,0.0,0.0,0.0,0.0,0.0,0.0,0.0,0.0,0.0,0.0,0.0,0.0,0.0,0.0,0.0,0.0,0.0,0.0,0.0,0.0,0.0,-5.0937,-5.0508,-5.0058,-4.959,-4.9141,-4.8691,-4.8262,-4.8262,-4.8262,-4.8301,-4.8262,-4.8027,-4.7617,-4.7617,-4.7383,-4.6973,-4.6933,-4.6699,-4.6348,-4.6308,-4.6074,-4.5762,-4.6152,-4.6308,-4.6308,-4.6308,-4.6308,-4.6308,0.0,0.0,0.0,0.0,0.0,0.0,0.0,0.0,0.0,0.0,0.0,0.0,0.0,0.0,0.0,0.0,0.0,0.0,0.0,0.0,-1.7662,-1.7862,-1.809,-1.8531,-1.9185,-2.0201,-2.1122,-2.1924,-2.3113,-2.3728,-2.3754,-2.2779,-2.211,-2.1588,-2.0935,-2.0775,-2.0949,-2.0949,-2.1379,-2.2153,-2.3201,-2.4901,0.0,0.0,0.0,0.0,0.0,0.0,0.0,0.0,-3.0898,-3.0898,0.0,0.0,-3.0898,-3.0898,-3.0898,-3.0996,-3.1484,-3.2187,-3.293,-3.3457,0.0,0.0,0.0,0.0,0.0,0.0,0.0,0.0,0.0,0.0,0.0,0.0,0.0,0.0,0.0,0.0,0.0,0.0,0.0,0.0,0.0,0.0,0.0,0.0,0.0,0.0,-5.0449,-5.0019,-4.9707,-4.9531,-4.8828,-4.8379,-4.8203,-4.7949,-4.7558,-4.7031,-4.7558,-4.7598,-4.7168,-4.7168,-4.6933,-4.6543,-4.6543,-4.6445,-4.6289,-4.6016,-4.582,-4.5703,-4.5859,-4.6074,-4.6308,-4.6308,-4.6308,-4.6308,0.0,0.0,0.0,0.0,0.0,0.0,0.0,0.0,0.0,0.0,0.0,0.0,0.0,0.0,0.0,0.0,0.0,0.0,-1.734,-1.7527,-1.7675,-1.7889,-1.8115,-1.8651,-1.9359,-2.0989,-2.2111,-2.2699,-2.3901,-2.4142,-2.346,-2.2458,-2.1884,-2.1722,-2.0975,-2.0935,-2.1376,-2.1189,-2.1109,-2.1172,-2.2341,-2.3807,0.0,0.0,0.0,0.0,0.0,0.0,0.0,0.0,0.0,0.0,0.0,0.0,0.0,0.0,-3.0898,-3.0898,-3.0898,-3.1523,-3.2402,0.0,0.0,0.0,0.0,0.0,0.0,0.0,0.0,0.0,0.0,0.0,0.0,0.0,0.0,0.0,0.0,0.0,0.0,0.0,0.0,0.0,0.0,0.0,0.0,0.0,0.0,0.0,0.0,-4.9551,-4.9258,-4.9121,-4.8262,-4.7734,-4.7598,-4.7187,-4.6621,-4.5898,-4.6484,-4.6621,-4.6328,-4.6328,-4.6172,-4.5898,-4.5898,-4.5898,-4.5879,-4.5586,-4.5469,-4.5449,-4.5332,-4.5527,-4.5898,-4.5898,-4.5898,-4.5898,0.0,0.0,0.0,0.0,0.0,0.0,0.0,0.0,0.0,0.0,0.0,0.0,0.0,0.0,0.0,0.0,0.0,0.0,-1.7582,-1.7582,-1.7582,-1.7582,-1.8437,-1.9065,-1.9417,-2.1363,-2.2712,-2.3327,-2.4489,-2.4302,-2.2914,-2.2258,-2.1977,-2.1937,-2.1069,-2.1162,-2.1937,-2.1363,-2.1109,-2.1109,-2.1109,-2.209,-2.3574,0.0,0.0,0.0,0.0,0.0,0.0,0.0,-2.9766,0.0,0.0,0.0,0.0,0.0,-3.0898,-3.0898,-3.0898,-3.0898,0.0,0.0,0.0,0.0,0.0,0.0,0.0,0.0,0.0,0.0,0.0,0.0,0.0,0.0,0.0,0.0,0.0,0.0,0.0,0.0,0.0,0.0,0.0,0.0,0.0,0.0,0.0,0.0,0.0,-4.9101,-4.8652,-4.8203,-4.7363,-4.6719,-4.6308,-4.5879,-4.5449,-4.5019,-4.5,-4.5019,-4.5019,-4.5019,-4.5019,-4.5019,-4.5019,-4.5019,-4.5019,-4.5,-4.5,-4.4961,-4.4551,-4.4648,-4.5019,-4.5019,-4.5019,-4.5019,0.0,0.0,0.0,0.0,0.0,0.0,0.0,0.0,0.0,0.0,0.0,0.0,0.0,0.0,0.0,0.0,0.0,0.0,-1.7582,-1.7582,-1.7675,-1.7849,-1.837,-1.8758,-1.9052,-2.0655,-2.2205,-2.3634,-2.3781,-2.33,-2.2231,-2.1923,-2.1563,-2.1363,-2.1323,-2.1323,-2.1363,-2.1189,-2.1109,-2.1109,-2.1109,-2.209,-2.3698,0.0,0.0,0.0,0.0,0.0,0.0,0.0,0.0,0.0,0.0,0.0,0.0,-3.1074,-3.1309,-3.166,-3.1055,0.0,0.0,0.0,0.0,0.0,0.0,0.0,0.0,0.0,0.0,0.0,0.0,0.0,0.0,0.0,0.0,0.0,0.0,0.0,0.0,0.0,0.0,0.0,0.0,0.0,0.0,0.0,0.0,0.0,0.0,-4.8183,-4.7754,-4.7324,-4.6777,-4.6289,-4.5859,-4.5137,-4.4551,-4.4101,-4.3789,-4.4141,-4.5019,-4.4726,-4.459,-4.457,-4.4238,-4.4101,-4.4062,-4.3769,-4.3652,-4.3652,-4.3516,-4.3926,-4.459,-4.459,-4.4766,-4.5019,0.0,0.0,0.0,0.0,0.0,0.0,0.0,0.0,0.0,0.0,0.0,0.0,0.0,0.0,0.0,0.0,0.0,0.0,0.0,-1.7769,-1.7903,-1.821,-1.8504,-1.8905,-1.9439,-2.0535,-2.1523,-2.2365,-2.2659,-2.2338,-2.147,-2.1643,-2.1697,-2.1643,-2.2071,-2.2084,-2.1804,-2.1683,-2.143,-2.1109,-2.1109,-2.1727,-2.2764,0.0,0.0,0.0,0.0,0.0,0.0,0.0,0.0,0.0,0.0,0.0,0.0,-3.1035,-3.125,-3.1543,-3.1035,0.0,0.0,0.0,0.0,0.0,0.0,0.0,0.0,0.0,0.0,0.0,0.0,0.0,0.0,0.0,0.0,0.0,0.0,0.0,0.0,0.0,0.0,0.0,0.0,0.0,0.0,0.0,0.0,0.0,0.0,-4.7305,-4.6875,-4.6445,-4.5859,-4.5332,-4.4902,-4.4219,-4.3652,-4.3183,-4.2949,-4.3223,-4.3984,-4.373,-4.3613,-4.3594,-4.332,-4.3203,-4.3183,-4.293,-4.2812,-4.2812,-4.2812,-4.3144,-4.3613,-4.3613,-4.3769,-4.3984,0.0,0.0,0.0,0.0,0.0,0.0,0.0,0.0,0.0,0.0,0.0,0.0,0.0,0.0,0.0,0.0,0.0,0.0,0.0,0.0,-1.8169,-1.8517,-1.8838,-1.9386,-2.0153,-2.0735,-2.0735,-2.0127,-2.1336,-2.147,-2.0655,-2.1563,-2.2138,-2.2445,-2.2993,-2.3086,-2.2806,-2.2445,-2.1844,-2.1109,-2.1109,-2.1109,-2.1299,-2.3139,0.0,0.0,0.0,0.0,0.0,0.0,0.0,0.0,0.0,0.0,-3.0996,-3.0918,-3.0957,-3.1016,0.0,0.0,0.0,0.0,0.0,0.0,0.0,0.0,0.0,0.0,0.0,0.0,0.0,0.0,0.0,0.0,0.0,0.0,0.0,0.0,0.0,0.0,0.0,0.0,0.0,0.0,0.0,0.0,0.0,0.0,0.0,-4.6406,-4.5937,-4.5508,-4.4707,-4.4062,-4.3594,-4.3164,-4.2754,-4.2363,-4.2324,-4.2305,-4.2305,-4.2344,-4.2344,-4.2305,-4.2305,-4.2305,-4.2305,-4.2305,-4.2305,-4.2305,-4.2305,-4.2344,-4.2363,-4.2363,-4.2402,-4.2422,0.0,0.0,0.0,0.0,0.0,0.0,0.0,0.0,0.0,0.0,0.0,0.0,0.0,0.0,0.0,0.0,0.0,0.0,0.0,0.0,-1.8531,-1.8824,-1.9332,-1.98,-2.0167,-2.0134,-2.0013,-1.9893,-2.0842,-2.0962,-2.0347,-2.147,-2.2138,-2.2432,-2.2552,-2.2579,-2.2458,-2.171,-2.1283,-2.1109,-2.1109,-2.1109,-2.1411,-2.4348,-2.3854,0.0,0.0,0.0,0.0,0.0,0.0,0.0,-3.0762,-3.1348,-3.1758,-3.1094,-3.1367,0.0,0.0,0.0,0.0,0.0,0.0,0.0,0.0,0.0,0.0,0.0,0.0,0.0,0.0,0.0,0.0,0.0,0.0,0.0,0.0,0.0,0.0,0.0,0.0,0.0,0.0,0.0,0.0,0.0,0.0,0.0,-4.6445,-4.541,-4.4609,-4.4141,-4.3633,-4.3144,-4.2695,-4.2285,-4.2031,-4.1933,-4.1601,-4.1445,-4.1445,-4.1777,-4.1758,-4.1445,-4.1445,-4.1445,-4.1445,-4.1445,-4.1445,-4.1445,-4.1445,-4.1641,-4.1933,-4.1933,-4.2148,-4.2422,0.0,0.0,0.0,0.0,0.0,0.0,0.0,0.0,0.0,0.0,0.0,0.0,0.0,0.0,0.0,0.0,0.0,0.0,0.0,0.0,0.0,-1.9118,-1.9559,-1.9867,-2.0027,-2.0013,-2.0,-2.0,-2.0615,-2.0668,0.0,-2.1577,-2.2352,-2.2645,-2.3086,-2.3033,-2.2592,-2.1991,-2.1496,-2.1109,-2.1109,-2.1109,-2.1348,-2.3869,-2.3807,-2.2654,-2.513,0.0,0.0,0.0,0.0,0.0,0.0,0.0,-3.1465,-3.1016,-3.1211,-3.1738,0.0,0.0,0.0,0.0,0.0,0.0,0.0,0.0,0.0,0.0,0.0,0.0,0.0,0.0,0.0,0.0,0.0,0.0,0.0,0.0,0.0,0.0,0.0,0.0,0.0,0.0,0.0,0.0,0.0,-4.5937,-4.5098,-4.4433,-4.3769,-4.3105,-4.2871,-4.2558,-4.2129,-4.1914,-4.1699,-4.1504,-4.1269,-4.1172,-4.1172,-4.1406,-4.1387,-4.1172,-4.1172,-4.1172,-4.1172,-4.1172,-4.1172,-4.1172,-4.1172,-4.1308,-4.1504,-4.1504,-4.1641,-4.1836,0.0,0.0,0.0,0.0,0.0,0.0,0.0,0.0,0.0,0.0,0.0,0.0,0.0,0.0,0.0,0.0,0.0,0.0,0.0,0.0,0.0,-1.9426,-1.972,-1.988,-1.988,-2.016,-2.0281,-2.0167,-2.0535,0.0,0.0,0.0,0.0,-2.2979,-2.3661,-2.3554,-2.2901,-2.2378,-2.1777,-2.1109,-2.1109,-2.1109,-2.1299,-2.2952,-2.3574,-2.376,-2.5146,-2.6772,-2.8367,-2.8051,0.0,0.0,0.0,0.0,-3.0898,-3.0898,-3.0898,-3.1113,0.0,0.0,0.0,0.0,0.0,0.0,0.0,0.0,0.0,0.0,0.0,0.0,0.0,0.0,0.0,0.0,0.0,0.0,0.0,0.0,0.0,0.0,0.0,0.0,0.0,0.0,0.0,0.0,0.0,-4.5195,-4.3672,-4.3457,-4.3047,-4.2344,-4.2246,-4.2051,-4.1699,-4.1699,-4.1523,-4.1172,-4.1172,-4.1172,-4.1172,-4.1172,-4.1172,-4.1172,-4.1172,-4.1172,-4.1172,-4.1172,-4.1172,-4.1172,-4.1172,-4.1172,-4.1172,-4.1172,-4.1172,-4.1172,0.0,0.0,0.0,0.0,0.0,0.0,0.0,0.0,0.0,0.0,0.0,0.0,0.0,0.0,0.0,0.0,0.0,0.0,0.0,0.0,0.0,-1.9733,-2.0013,-2.0174,-2.0174,-2.0468,-2.0494,-2.0167,0.0,0.0,0.0,0.0,0.0,-2.326,0.0,-2.3048,-2.2861,-2.1737,-2.1216,-2.1109,-2.1109,-2.1109,-2.1299,-2.2952,-2.3574,-2.3636,-2.3807,-2.5879,-2.817,-2.6772,-2.8367,0.0,0.0,0.0,-3.0898,-3.0898,-3.0898,0.0,0.0,0.0,0.0,0.0,0.0,0.0,0.0,0.0,0.0,0.0,0.0,0.0,0.0,0.0,0.0,0.0,0.0,0.0,0.0,0.0,0.0,0.0,0.0,0.0,0.0,0.0,0.0,0.0,-4.4707,-4.3789,-4.3183,-4.2461,-4.1992,-4.1894,-4.1523,-4.1308,-4.125,-4.125,-4.123,-4.1172,-4.1172,-4.1172,-4.1172,-4.1172,-4.1172,-4.1172,-4.1172,-4.1172,-4.1172,-4.1172,-4.1172,-4.1172,-4.1172,-4.1172,-4.1172,-4.1172,-4.1172,-4.1172,0.0,0.0,0.0,0.0,0.0,0.0,0.0,0.0,0.0,0.0,0.0,0.0,0.0,0.0,0.0,0.0,0.0,0.0,0.0,0.0,0.0,-1.9786,-1.992,-2.0147,-2.0468,-2.0615,-2.0695,-2.0722,0.0,0.0,0.0,-2.3233,-2.3714,0.0,0.0,0.0,0.0,0.0,0.0,-2.1109,-2.1109,-2.1203,-2.1656,-2.4053,-2.4471,-2.4064,-2.57,-2.7211,-2.817,-2.653,-2.8188,-3.0762,-2.9785,0.0,0.0,0.0,-3.0898,0.0,0.0,0.0,0.0,0.0,0.0,0.0,0.0,0.0,0.0,0.0,0.0,0.0,0.0,0.0,0.0,0.0,0.0,0.0,0.0,0.0,0.0,0.0,0.0,0.0,0.0,0.0,0.0,0.0,-4.3808,-4.3066,-4.2402,-4.2012,-4.1699,-4.1465,-4.1269,-4.1055,-4.082,-4.0801,-4.0684,-4.0449,-4.0449,-4.0449,-4.0449,-4.0449,-4.0723,-4.1172,-4.1172,-4.1172,-4.1172,-4.1172,-4.1172,-4.1172,-4.1172,-4.1172,-4.1172,-4.1172,-4.1172,-4.1172,0.0,0.0,0.0,0.0,0.0,0.0,0.0,0.0,0.0,0.0,0.0,0.0,0.0,0.0,0.0,0.0,0.0,0.0,0.0,0.0,0.0,-1.9786,-1.9867,-2.012,-2.0548,-2.0708,-2.0855,0.0,0.0,0.0,-2.3661,-2.3968,-2.469,0.0,-2.4903,0.0,0.0,0.0,0.0,0.0,0.0,-2.1243,-2.1737,-2.3988,-2.4766,-2.4766,-2.6627,-2.8091,-2.8929,-2.7168,-2.8618,-3.084,-2.9431,-2.9903,0.0,0.0,0.0,0.0,0.0,0.0,0.0,0.0,0.0,0.0,0.0,0.0,0.0,0.0,0.0,0.0,0.0,0.0,0.0,0.0,0.0,0.0,0.0,0.0,0.0,0.0,0.0,0.0,0.0,0.0,0.0,0.0,-4.2988,-4.2422,-4.168,-4.1641,-4.1249,-4.0353,-4.0822,-4.0608,-3.9721,-4.0104,-4.0195,-3.9902,-3.9902,-3.9902,-3.9902,-3.9902,-4.0234,-4.084,-4.084,-4.0918,-4.0996,-4.0898,-4.0976,-4.1172,-4.1055,-4.1074,-4.1172,-4.1172,-4.1172,-4.1172,0.0,0.0,0.0,0.0,0.0,0.0,0.0,0.0,0.0,0.0,0.0,0.0,-1.8905,-1.9158,-1.939,-1.9345,0.0,0.0,0.0,0.0,0.0,-1.9786,-2.0067,0.0,-2.0254,-2.0802,0.0,0.0,0.0,0.0,-2.4569,-2.4877,-2.5919,-2.7495,-2.6079,-2.481,-2.3701,0.0,0.0,0.0,0.0,0.0,0.0,-2.1673,-2.3529,-2.5745,-2.4656,-2.7316,-3.1049,-2.8971,-2.9714,-3.1426,-3.0898,-3.082,-3.0898,0.0,0.0,0.0,0.0,0.0,0.0,0.0,0.0,0.0,0.0,0.0,0.0,0.0,0.0,0.0,0.0,0.0,0.0,0.0,0.0,0.0,0.0,0.0,0.0,0.0,0.0,0.0,0.0,0.0,0.0,0.0,-4.2109,-4.168,-4.123,-4.1211,-4.0294,-3.8134,-3.9641,-3.9586,-3.7475,-3.909,-3.9922,-3.9902,-3.9902,-3.9902,-3.9902,-3.9902,-3.9922,-3.9961,-3.9961,-4.0195,-4.0527,-4.0117,-4.0449,-4.1133,-4.0723,-4.0801,-4.1172,-4.1172,-4.1172,-4.1172,0.0,0.0,0.0,0.0,0.0,0.0,0.0,0.0,0.0,0.0,0.0,0.0,0.0,-1.9305,-1.943,-1.943,-1.943,0.0,0.0,0.0,0.0,-2.0054,-2.0174,-2.0414,-2.0788,-2.1002,0.0,0.0,0.0,-2.1924,-2.3514,-2.4195,-2.505,-2.6012,-2.5865,-2.5358,-2.4529,-2.3153,0.0,0.0,0.0,0.0,0.0,0.0,0.0,0.0,0.0,0.0,-2.9935,-2.8174,-2.9537,-3.1675,-3.0174,-3.042,-3.123,-3.0976,-3.0898,0.0,0.0,0.0,0.0,0.0,0.0,0.0,0.0,0.0,0.0,0.0,0.0,0.0,0.0,0.0,0.0,0.0,0.0,0.0,0.0,0.0,0.0,0.0,0.0,0.0,0.0,0.0,0.0,0.0,0.0,-4.1328,-4.1172,-4.1172,-4.0725,-3.9622,-3.8909,-3.719,-3.441,-3.4469,-3.4525,-3.4525,-3.4525,-3.4666,-3.4896,-3.6182,-3.6924,-3.7185,-3.8506,-3.9453,-4.0098,-3.9961,-4.0234,-4.0742,-4.0586,-4.0781,-4.1172,-4.1172,-4.1172,-4.1172,0.0,0.0,0.0,0.0,0.0,0.0,0.0,0.0,0.0,-1.8597,0.0,0.0,0.0,0.0,-1.9546,-1.9653,-1.9653,-1.9653,-1.9653,-1.9653,-1.988,-2.0361,-2.0374,-2.0615,-2.1096,0.0,0.0,0.0,0.0,0.0,0.0,-2.3581,-2.4329,-2.509,-2.5277,-2.5424,0.0,0.0,0.0,-2.3247,0.0,0.0,-2.2674,0.0,0.0,0.0,0.0,0.0,0.0,-2.7524,-2.8626,-3.0365,-2.8737,-2.8853,-2.9688,-2.9979,-3.0079,0.0,0.0,0.0,0.0,0.0,0.0,0.0,0.0,0.0,0.0,0.0,0.0,0.0,0.0,0.0,0.0,0.0,0.0,0.0,0.0,0.0,0.0,0.0,0.0,0.0,0.0,0.0,0.0,0.0,0.0,0.0,-4.0957,-4.0957,-4.0298,-3.8956,-3.7509,-3.5363,-3.2367,-3.2476,-3.2587,-3.2587,-3.1929,-3.2063,-3.289,-3.3674,-3.4179,-3.4408,-3.6589,-3.8355,-3.9648,-3.9512,-3.9785,-4.0312,-4.0312,-4.0566,-4.0976,-4.1113,-4.1172,-4.1172,0.0,0.0,0.0,0.0,0.0,0.0,0.0,0.0,-1.8597,-1.8878,0.0,0.0,0.0,0.0,0.0,-2.0167,-2.0254,-2.0193,-2.0167,-2.0167,-2.0361,-2.0668,0.0,0.0,0.0,0.0,0.0,0.0,0.0,0.0,0.0,0.0,-2.3915,-2.4983,-2.4449,-2.4997,-2.6293,0.0,-2.5291,-2.4917,0.0,-2.2645,-2.2993,0.0,0.0,0.0,-2.6066,-2.707,0.0,-2.723,0.0,0.0,0.0,-2.6282,-2.6426,-2.7931,-2.8426,0.0,0.0,0.0,0.0,0.0,0.0,0.0,0.0,0.0,0.0,0.0,0.0,0.0,0.0,0.0,0.0,0.0,0.0,0.0,0.0,0.0,0.0,0.0,0.0,0.0,0.0,0.0,0.0,0.0,-4.0977,-4.0783,-4.0374,-4.0239,-3.8785,-3.5644,-3.5256,-3.3975,-3.1489,-3.3368,-3.4306,-3.4234,-3.2407,-3.2424,-3.4198,-3.2594,-3.1869,-3.2035,-3.4425,-3.6775,-3.9047,-3.873,-3.9082,-3.9807,-3.9883,-4.0061,-4.049,-4.0996,-4.1172,-4.1172,0.0,0.0,0.0,0.0,0.0,0.0,-1.8317,-1.8437,-1.8597,0.0,0.0,0.0,-1.9653,-2.0321,-2.0775,-2.0855,-2.0869,-2.0681,-2.0207,-2.0167,-2.0361,-2.0668,-2.0681,-2.0815,0.0,0.0,0.0,0.0,0.0,0.0,0.0,0.0,0.0,0.0,-2.3981,-2.4436,-2.4756,-2.3941,0.0,0.0,-2.3527,-2.3634,0.0,0.0,0.0,0.0,0.0,-2.6287,-2.8179,0.0,-2.794,-2.8923,0.0,0.0,0.0,0.0,0.0,0.0,-2.8979,0.0,0.0,0.0,0.0,0.0,0.0,0.0,0.0,0.0,0.0,0.0,0.0,0.0,0.0,0.0,0.0,0.0,0.0,0.0,0.0,0.0,0.0,0.0,0.0,0.0,0.0,0.0,-3.594,-3.5809,-3.5626,-3.518,-3.372,-3.136,-3.0537,-2.9692,-2.8915,-2.9252,-2.9416,-2.9416,-2.8925,-2.8334,-2.7762,-2.8971,-2.9573,-2.9663,-3.1944,-3.4018,-3.5994,-3.7832,-3.8057,-3.7388,-3.8853,-3.8994,-3.8524,-4.0086,-4.0898,-4.1172,0.0,0.0,0.0,0.0,0.0,-1.8691,-1.8998,-1.9038,-1.9145,0.0,0.0,0.0,-2.0294,-2.1349,-2.1884,-2.151,-2.147,-2.1283,-2.0815,-2.0668,-2.0681,-2.0855,-2.0855,-2.0935,-2.1109,0.0,0.0,0.0,0.0,0.0,0.0,0.0,0.0,0.0,0.0,0.0,0.0,0.0,0.0,0.0,-2.4168,0.0,0.0,-2.4903,-2.5211,0.0,0.0,0.0,-2.7713,-2.6819,-2.6837,0.0,0.0,0.0,0.0,0.0,0.0,0.0,0.0,0.0,0.0,0.0,0.0,0.0,-2.9198,-3.074,0.0,0.0,0.0,0.0,0.0,0.0,0.0,0.0,0.0,0.0,0.0,0.0,0.0,0.0,0.0,0.0,0.0,-3.6147,-3.5725,-3.4283,-3.4084,-3.3752,-3.3382,-3.2667,-3.1227,-2.9063,-2.9093,-2.8209,-2.6369,-2.6952,-2.7281,-2.7281,-2.6649,-2.6237,-2.614,-2.6808,-2.7176,-2.7265,-2.9573,-3.1169,-3.2256,-3.4701,-3.565,-3.5809,-3.7184,-3.7519,-3.749,-3.9663,-4.0801,-4.1172,0.0,0.0,0.0,-1.8517,-1.9052,-1.9519,-1.9853,-1.9893,-2.0,0.0,-2.0214,-2.0508,-2.1496,-2.2726,-2.314,-2.2298,-2.2138,-2.1937,-2.1641,-2.1269,-2.1109,-2.1109,-2.1109,-2.1109,-2.1109,-2.1109,0.0,0.0,0.0,0.0,0.0,0.0,0.0,0.0,0.0,0.0,0.0,0.0,0.0,-2.4115,-2.477,-2.5277,0.0,0.0,-2.6881,-2.6974,-2.6974,-2.7161,-2.7228,-2.6012,-2.485,0.0,0.0,0.0,0.0,0.0,-2.4175,0.0,0.0,0.0,0.0,0.0,0.0,0.0,-2.7554,-2.8847,-3.0456,0.0,0.0,0.0,0.0,0.0,0.0,0.0,0.0,0.0,0.0,0.0,0.0,0.0,0.0,0.0,-3.6246,-3.4962,-3.3936,-3.345,-3.3352,-3.2881,-3.1967,-3.1283,-2.9881,-2.7792,-2.9098,-2.811,-2.4503,-2.6127,-2.6967,-2.6982,-2.5836,-2.5991,-2.7448,-2.6033,-2.535,-2.5487,-2.7401,-2.8402,-2.8879,-3.0271,-3.2284,-3.4662,-3.5335,-3.6116,-3.7013,-3.9433,-4.0684,-4.1094,0.0,0.0,-1.8235,-1.9065,-1.9479,-1.9893,-2.0428,-2.0508,-2.0615,-2.0895,-2.171,-2.2873,-2.4476,-2.4489,-2.4209,-2.3808,-2.3113,-2.2365,-2.1668,-2.1269,-2.1109,-2.1109,-2.1109,-2.1109,-2.1109,-2.1109,-2.1109,0.0,0.0,0.0,0.0,0.0,0.0,0.0,0.0,0.0,0.0,0.0,0.0,-2.322,-2.4289,0.0,-2.6587,-2.676,-2.7268,-2.7966,-2.7966,-2.8083,-2.8123,-2.6694,-2.5598,-2.5125,0.0,0.0,0.0,-2.6152,0.0,0.0,0.0,0.0,0.0,0.0,-2.4041,0.0,-2.4404,-2.5255,-2.6563,0.0,0.0,0.0,0.0,0.0,0.0,0.0,0.0,0.0,0.0,0.0,0.0,0.0,0.0,0.0,-2.9425,-3.0346,-3.0196,-2.841,-2.7866,-2.7403,-2.6892,-2.6528,-2.6043,-2.5308,-2.5357,-2.5684,-2.6117,-2.6706,-2.6967,-2.7038,-2.8513,-2.8613,-2.752,-2.7408,-2.7261,-2.6969,-2.6131,-2.7349,-2.9737,-2.71,-2.8549,-3.2781,-3.4495,-3.57,-3.6576,-3.8648,-3.9961,-4.0414,0.0,0.0,-1.8718,-1.9452,-2.0067,-2.0695,-2.143,-2.155,-2.1764,-2.2365,-2.3714,-2.469,-2.485,-2.5117,-2.4877,-2.3861,-2.3073,-2.2392,-2.1869,-2.1349,-2.1109,-2.1109,-2.1109,-2.1109,-2.1109,-2.1109,-2.1109,-2.1109,0.0,0.0,0.0,0.0,0.0,0.0,0.0,0.0,0.0,0.0,-2.2552,-2.322,-2.4703,0.0,-2.6894,-2.7482,-2.807,-2.8591,-2.8591,-2.8604,-2.8404,-2.7054,-2.6213,0.0,-2.6213,-2.5577,-2.4776,0.0,-2.4442,-2.3591,0.0,0.0,0.0,-2.3238,-2.2979,0.0,0.0,-2.4242,-2.4738,0.0,0.0,0.0,0.0,0.0,0.0,0.0,0.0,0.0,0.0,0.0,0.0,0.0,0.0,0.0,-2.8239,-2.8224,-2.7639,-2.6264,-2.5491,-2.5024,-2.4863,-2.4583,-2.4356,-2.4209,-2.3915,-2.417,-2.4973,-2.5271,-2.5428,-2.5442,-2.682,-2.749,-2.7433,-2.6661,-2.7217,-2.8772,-2.6013,-2.6426,-2.8701,-2.5772,-2.7291,-3.1636,-3.2865,-3.3787,-3.4633,-3.6903,-3.757,-3.7222,-1.742,0.0,-1.9025,-1.9613,-2.0494,-2.1363,-2.2138,-2.2352,-2.2806,-2.3888,-2.5358,-2.5959,-2.5064,-2.5611,-2.5558,-2.4356,-2.3233,-2.2565,-2.2498,-2.1683,-2.1162,-2.1109,-2.1109,-2.1136,-2.1189,-2.1136,-2.1136,-2.1189,0.0,0.0,0.0,0.0,0.0,0.0,0.0,0.0,0.0,0.0,0.0,-2.3714,0.0,-2.6146,-2.6707,-2.7949,-2.8617,-2.8885,-2.8991,-2.8885,-2.8511,-2.7308,-2.672,-2.6318,-2.5323,-2.4701,0.0,0.0,0.0,0.0,0.0,0.0,0.0,0.0,0.0,-2.2699,0.0,0.0,0.0,0.0,0.0,0.0,0.0,0.0,0.0,0.0,0.0,0.0,0.0,0.0,0.0,0.0,0.0,0.0,-2.8171,-2.6843,-2.5732,-2.5144,-2.4489,-2.4088,-2.4035,-2.3861,-2.3741,-2.3688,-2.3447,-2.33,-2.3233,-2.3594,-2.3768,-2.3781,-2.4707,-2.6005,-2.7433,-2.5859,-2.6837,-2.9599,-2.6488,-2.6064,-2.736,-2.5786,-2.7421,-3.086,-3.0958,-3.1828,-3.3196,-3.4877,-3.4839,-3.3908,-1.7902,-1.8263,0.0,-1.9319,-2.0347,-2.1229,-2.1655,-2.2084,-2.302,-2.4716,-2.5558,-2.6519,-2.7658,0.0,0.0,0.0,-2.4917,-2.3541,-2.4289,-2.2552,-2.139,-2.1122,-2.1109,-2.1229,-2.1561,-2.1243,-2.1243,-2.1561,0.0,0.0,0.0,0.0,0.0,0.0,-2.139,0.0,0.0,0.0,-2.3193,0.0,-2.5277,-2.5598,0.0,-2.7255,-2.7989,-2.831,-2.8845,-2.9018,-2.8804,0.0,-2.7014,-2.6839,0.0,-2.6509,-2.5276,-2.6489,0.0,0.0,0.0,0.0,0.0,0.0,-2.4182,-2.4536,-2.243,0.0,-2.2753,-2.182,0.0,0.0,0.0,0.0,0.0,0.0,0.0,0.0,0.0,0.0,0.0,0.0,0.0,0.0,0.0,-2.473,-2.4209,-2.3621,-2.3728,-2.3701,-2.3447,-2.3647,-2.3647,-2.338,-2.334,-2.3193,-2.2926,-2.3487,-2.3768,-2.3852,-2.6056,-2.7288,-2.7505,-2.7288,-2.7433,-2.778,-2.736,-2.7288,-2.7505,-2.7288,-2.8444,-3.0299,-2.9334,-3.1292,-3.4513,-3.333,-3.3049,-3.2965,-1.7995,-1.8424,0.0,0.0,-2.0307,-2.1136,-2.1937,-2.3434,-2.4796,-2.5718,-2.6653,0.0,0.0,0.0,0.0,0.0,0.0,-2.4289,0.0,0.0,-2.2004,-2.1871,-2.171,-2.167,-2.1804,-2.1523,-2.1336,-2.1296,-2.1176,0.0,0.0,0.0,0.0,0.0,-2.1561,0.0,-2.2498,0.0,-2.334,0.0,0.0,0.0,0.0,-2.7535,-2.8404,-2.8671,-2.8764,-2.8791,-2.8631,0.0,-2.7188,0.0,0.0,0.0,0.0,-2.6101,0.0,0.0,0.0,0.0,0.0,0.0,0.0,0.0,-2.2873,-2.2458,-2.2164,-2.151,0.0,0.0,0.0,0.0,0.0,0.0,-2.1523,0.0,0.0,0.0,0.0,0.0,0.0,0.0,0.0,0.0,0.0,0.0,-2.2766,-2.2686,-2.2552,-2.2672,-2.2752,-2.2806,-2.2806,-2.2819,-2.2928,-2.33,-2.3607,-2.3781,-2.5036,-2.6257,-2.7433,-2.6357,-2.707,-2.8972,-2.6779,-2.643,-2.7433,-2.6284,-2.6925,-2.8532,-2.714,-2.8462,-3.1118,-3.0849,-3.0189,-2.9325,-1.8209,0.0,0.0,0.0,0.0,-2.1096,-2.2352,-2.4075,0.0,0.0,0.0,0.0,-2.8764,-2.831,0.0,0.0,-2.6881,-2.5558,0.0,0.0,-2.2766,-2.2432,-2.2138,-2.2017,-2.2098,-2.1737,-2.1547,-2.1349,0.0,0.0,0.0,0.0,0.0,0.0,0.0,-2.2445,-2.3196,0.0,0.0,-2.5077,-2.5411,-2.5825,-2.6386,-2.7816,-2.8591,-2.8898,-2.8684,-2.8604,-2.8484,-2.7655,-2.7388,0.0,-2.6787,-2.6426,-2.6132,0.0,0.0,0.0,-2.5077,0.0,0.0,0.0,0.0,0.0,-2.322,-2.2766,-2.2325,-2.1842,-2.1871,0.0,0.0,0.0,0.0,0.0,0.0,-2.1283,0.0,0.0,0.0,0.0,0.0,0.0,0.0,0.0,0.0,-2.1951,-2.175,-2.1657,-2.1737,-2.1817,-2.2004,-2.2298,-2.2378,-2.2525,-2.2739,-2.3126,-2.3474,-2.3768,-2.4062,-2.507,-2.6648,-2.5212,-2.6123,-2.8613,-2.6342,-2.5859,-2.6648,-2.5786,-2.5932,-2.6604,-2.5554,-2.6143,-2.7661,-2.8274,-2.7675,-2.6707,-1.8838,-1.8905,0.0,0.0,0.0,0.0,0.0,0.0,0.0,0.0,0.0,0.0,0.0,0.0,0.0,0.0,0.0,-2.7722,-2.8073,0.0,-2.3634,0.0,-2.2138,-2.2111,-2.2392,-2.1844,-2.1748,-2.1951,0.0,0.0,0.0,0.0,0.0,0.0,0.0,-2.3447,-2.3808,-2.4943,-2.6106,-2.7148,-2.6881,-2.7281,-2.8114,0.0,-2.8096,-2.8617,-2.8604,0.0,0.0,-2.7896,-2.7682,0.0,0.0,0.0,0.0,0.0,0.0,0.0,0.0,0.0,0.0,-2.4917,0.0,0.0,0.0,-2.31,-2.338,-2.2218,-2.2659,-2.3006,-2.2124,-2.1951,-2.1871,-2.1655,0.0,0.0,0.0,0.0,0.0,0.0,0.0,0.0,0.0,0.0,-2.1029,-2.0748,-2.0722,-2.0842,-2.1122,-2.1416,-2.1762,-2.1991,-2.2271,-2.2418,-2.2432,-2.3033,-2.3474,-2.3768,-2.4062,-2.4356,-2.471,-2.4636,-2.4636,-2.4844,-2.6648,-2.6357,-2.4857,-2.6648,-2.6357,-2.4737,-2.4957,-2.5326,-2.5621,-2.6007,-2.6224,-2.644,0.0,0.0,0.0,0.0,0.0,0.0,0.0,-2.3754,0.0,0.0,-2.7963,0.0,0.0,-3.145,-3.153,0.0,0.0,-2.9659,-2.8791,-2.7161,0.0,-2.5358,-2.4676,-2.4088,-2.3607,-2.322,-2.2686,-2.1991,0.0,0.0,0.0,0.0,0.0,0.0,0.0,-2.3407,0.0,0.0,0.0,0.0,0.0,-2.7655,-2.8417,0.0,-2.8123,-2.8297,-2.8297,-2.8297,0.0,-2.807,-2.7856,-2.7682,-2.7589,-2.7348,-2.7054,-2.676,-2.6814,-2.6907,0.0,0.0,-2.6921,-2.5558,0.0,0.0,0.0,-2.3554,-2.3714,-2.2512,-2.2993,-2.3287,-2.2191,-2.1991,-2.1897,-2.1668,-2.1614,0.0,0.0,0.0,0.0,0.0,0.0,0.0,0.0,0.0,0.0,-2.0401,-2.0388,-2.0428,-2.0521,-2.0815,-2.1253,-2.1748,-2.1977,-2.2325,-2.2712,-2.2913,-2.318,-2.3487,-2.3781,-2.4075,-2.4356,-2.4556,-2.4636,-2.4636,-2.5286,-2.5212,-2.4636,-2.5286,-2.5212,-2.4649,-2.4743,-2.5077,-2.5545,-2.5852,-2.6146,-2.64,-1.9693,0.0,0.0,0.0,0.0,0.0,0.0,0.0,0.0,0.0,-2.9219,0.0,-3.2732,0.0,-3.2826,0.0,-3.2465,-3.1289,-2.9619,-2.8791,0.0,-2.6867,-2.6279,-2.5571,-2.469,-2.4382,-2.3594,-2.2298,0.0,-2.207,0.0,0.0,0.0,0.0,0.0,0.0,-2.4142,0.0,-2.636,0.0,0.0,-2.7923,0.0,0.0,-2.8301,-2.8297,0.0,-2.8221,-2.8221,-2.8221,-2.81,-2.7856,-2.7856,-2.7655,-2.7362,-2.7068,-2.7108,-2.7201,-2.6907,-2.7094,-2.7134,-2.6079,-2.5745,-2.5344,-2.4075,-2.4249,-2.4369,-2.3273,-2.3514,-2.3688,-2.2913,-2.2418,-2.2084,-2.1897,-2.1748,-2.1443,0.0,-2.1109,0.0,0.0,0.0,0.0,0.0,0.0,-2.0281,-2.0094,-1.9987,-2.0013,0.0,-2.0414,-2.0788,-2.1376,-2.1777,-2.2164,-2.2552,-2.2752,-2.302,-2.3327,-2.3527,-2.3768,-2.4062,-2.4356,-2.4476,-2.4489,-2.4596,-2.4636,-2.4636,-2.4636,-2.4636,-2.4649,-2.4756,-2.509,-2.5531,-2.5732,-2.6052,-2.6386,-2.0294,0.0,0.0,0.0,-2.0802,0.0,0.0,0.0,-2.7241,0.0,-2.9993,-3.1463,-3.2933,-3.3106,-3.344,-3.4269,-3.3814,-3.2639,-3.0662,-3.0488,0.0,0.0,-2.7028,-2.6573,-2.5665,-2.5331,-2.4449,0.0,0.0,0.0,0.0,0.0,0.0,0.0,-2.31,0.0,-2.3928,-2.6239,-2.7241,-2.7335,-2.7993,-2.8234,-2.8248,-2.8221,-2.831,-2.8537,-2.823,-2.8207,-2.8207,-2.8207,-2.8221,-2.8221,-2.8221,-2.7949,-2.7669,-2.7375,-2.7295,-2.7241,-2.6947,-2.6881,-2.6814,-2.6507,-2.6213,-2.5772,-2.4903,-2.5144,-2.5304,-2.4422,-2.4262,-2.4249,-2.4195,-2.3233,-2.2432,0.0,-2.1911,-2.143,0.0,0.0,0.0,0.0,0.0,0.0,0.0,-2.0134,-1.9786,-1.9773,-1.9519,-1.9613,0.0,-2.0167,-2.0508,-2.1096,-2.1683,-2.1991,-2.2004,-2.2579,-2.3006,-2.33,-2.3313,-2.3474,-2.3754,-2.4062,-2.4209,-2.4222,-2.4516,-2.4636,-2.4636,-2.4636,-2.4636,-2.4663,-2.4943,-2.5251,-2.5518,-2.5545,-2.5905,-2.6386,-2.0273,-2.0708,-2.1172,0.0,-2.1176,-2.1924,0.0,0.0,0.0,0.0,-3.1503,-3.2986,-3.4469,-3.4817,-3.487,-3.467,-3.4509,0.0,0.0,0.0,0.0,-3.0782,-2.9913,-2.8831,-2.7522,-2.676,-2.5758,-2.4516,0.0,0.0,-2.3273,0.0,0.0,0.0,0.0,0.0,-2.3888,-2.5798,-2.6987,-2.7615,-2.8073,-2.8283,-2.8444,0.0,-2.8003,-2.823,-2.7923,-2.7816,-2.7816,-2.7816,-2.7963,-2.8221,-2.8221,-2.8181,-2.7963,-2.7669,-2.7749,-2.7939,-2.7549,-2.7629,-2.7682,-2.7161,-2.6814,-2.6426,-2.5772,-2.5905,-2.5919,-2.5037,-2.5024,-2.4917,-2.4048,-2.326,-2.2605,0.0,0.0,0.0,0.0,0.0,0.0,-2.1109,0.0,0.0,-2.0347,-2.0013,-1.9706,-1.9492,-1.947,-1.9533,-1.9893,0.0,-2.0508,-2.1096,-2.1683,-2.2084,-2.2311,-2.2672,-2.2899,-2.2979,-2.322,-2.3367,-2.346,-2.3968,-2.4209,-2.4222,-2.4516,-2.4636,-2.4636,-2.4636,-2.4636,-2.4649,-2.4716,-2.5064,-2.5558,-2.5999,-2.6266,-2.6386,-2.1042,0.0,0.0,-2.2686,0.0,0.0,-2.5184,-2.6266,0.0,-3.0274,-3.1984,0.0,-3.4309,-3.503,-3.5364,-3.5164,-3.503,0.0,-3.3734,0.0,0.0,-3.2144,-3.1476,-3.0381,-2.8778,-2.7856,-2.664,-2.5077,-2.3554,0.0,-2.334,0.0,0.0,0.0,0.0,-2.3166,0.0,-2.5451,-2.6854,-2.7883,-2.7872,-2.7936,0.0,-2.7682,-2.7535,-2.7549,-2.7375,-2.7402,-2.7522,-2.7655,-2.7816,-2.7949,-2.7949,-2.8043,-2.814,-2.7629,-2.7722,-2.7883,-2.7589,-2.7629,-2.7709,-2.7509,-2.7321,-2.7081,-2.6627,-2.6453,-2.6253,-2.5758,-2.5277,-2.4823,-2.4422,-2.3527,-2.2632,0.0,0.0,0.0,0.0,0.0,0.0,0.0,-2.0708,0.0,-2.018,-1.9853,-1.9546,-1.943,-1.943,-1.9492,0.0,0.0,-2.0441,-2.0909,-2.1857,-2.2325,-2.2231,-2.2913,-2.3126,-2.2928,-2.3046,-2.3126,-2.314,-2.3741,-2.4022,-2.4035,-2.4449,-2.4636,-2.4636,-2.4636,-2.4636,-2.4663,-2.4917,-2.5371,-2.5932,-2.6266,-2.6386,-2.6386,-2.2004,0.0,0.0,0.0,0.0,0.0,0.0,-2.7816,0.0,-3.0515,0.0,-3.3454,-3.3627,-3.4643,-3.5378,-3.5551,0.0,-3.4736,-3.3654,-3.4042,-3.3721,-3.2398,-3.2265,-3.1423,-2.9753,-2.8724,-2.7228,-2.5251,-2.3915,-2.3126,0.0,0.0,0.0,0.0,0.0,0.0,0.0,-2.5157,-2.672,-2.7966,-2.7442,-2.7442,-2.7669,-2.7335,-2.7041,-2.6814,-2.6774,-2.6961,-2.7241,-2.7495,-2.7642,-2.7696,-2.7696,-2.7896,-2.8127,-2.7535,-2.7535,-2.7655,-2.7442,-2.7348,-2.7388,-2.7682,-2.7722,-2.7629,-2.7375,-2.6867,-2.6453,-2.6453,-2.5344,-2.4502,-2.4943,-2.3768,0.0,0.0,0.0,0.0,0.0,0.0,0.0,0.0,0.0,0.0,0.0,-1.976,-1.947,-1.943,-1.943,0.0,0.0,0.0,-2.0374,-2.0668,-2.2017,-2.2565,-2.2164,-2.3193,-2.35,-2.31,-2.302,-2.2966,-2.2939,-2.3514,-2.3768,-2.3794,-2.4342,-2.4596,-2.4636,-2.4636,-2.4636,-2.469,-2.5277,-2.5825,-2.6279,-2.636,-2.6386,-2.6386,0.0,0.0,0.0,0.0,0.0,-2.7829,-2.9098,-3.0087,-3.1129,-3.2358,-3.4282,-3.5364,-3.4937,-3.5498,-3.5738,-3.5311,-3.5231,0.0,0.0,0.0,0.0,-3.3601,-3.3093,-3.2225,-3.0955,-2.9352,-2.7749,-2.6159,-2.3995,-2.2913,-2.2832,0.0,0.0,0.0,0.0,0.0,-2.4102,-2.4903,0.0,-2.6734,-2.7108,-2.7442,-2.7642,-2.7108,-2.6867,-2.6787,-2.6547,-2.6653,-2.6907,-2.6961,-2.7295,-2.7696,-2.7696,-2.7896,-2.8207,-2.81,-2.7856,-2.7736,-2.802,-2.7816,-2.7696,-2.7989,-2.7883,-2.7682,-2.7629,-2.7161,-2.6747,-2.6747,-2.5972,-2.517,-2.4783,-2.33,-2.2004,0.0,0.0,0.0,0.0,0.0,0.0,0.0,0.0,-2.0655,0.0,0.0,0.0,0.0,0.0,0.0,0.0,0.0,-2.0374,0.0,-2.163,-2.2445,0.0,0.0,-2.3714,-2.4315,-2.3848,-2.3487,-2.326,-2.3607,-2.3768,-2.3794,-2.4128,-2.4422,-2.4636,-2.4636,-2.4636,-2.469,-2.5277,-2.5571,-2.5718,-2.6213,-2.6386,-2.6386,0.0,0.0,0.0,0.0,0.0,0.0,0.0,-3.2291,-3.2986,-3.2786,-3.3748,-3.4416,-3.4295,-3.5084,-3.5565,-3.5431,-3.5284,-3.507,-3.4776,-3.4482,-3.4189,-3.3895,-3.344,-3.2585,-3.1249,-2.9659,-2.803,-2.6386,-2.4022,-2.2779,-2.2605,0.0,0.0,0.0,0.0,-2.3233,0.0,0.0,0.0,-2.664,-2.6921,-2.7215,-2.7415,-2.6827,-2.66,-2.6587,-2.644,-2.648,-2.6613,-2.6774,-2.7108,-2.7468,-2.7468,-2.7789,-2.8167,-2.7859,-2.7696,-2.7696,-2.7696,-2.7589,-2.7549,-2.7843,-2.7696,-2.7509,-2.7669,-2.7241,-2.6827,-2.6827,-2.6253,-2.5518,-2.477,-2.3434,-2.2392,-2.2325,-2.1724,-2.1336,0.0,0.0,-2.1109,0.0,0.0,0.0,0.0,0.0,0.0,0.0,0.0,-1.9484,-1.9573,0.0,-2.0294,0.0,0.0,0.0,-2.2632,0.0,-2.3834,-2.3955,-2.3834,-2.3701,-2.3567,-2.3861,-2.3995,-2.4008,-2.4302,-2.4502,-2.4636,-2.4636,-2.481,-2.5117,-2.5398,-2.5705,-2.5999,-2.6279,-2.6386,-2.6386,0.0,-2.6627,0.0,0.0,-2.9927,0.0,-3.2452,-3.3908,-3.4442,-3.3267,-3.336,-3.3614,-3.3801,-3.4696,-3.5351,-3.5525,-3.5324,-3.5044,-3.4696,-3.4456,-3.4162,-3.3801,-3.348,-3.2692,-3.1356,-2.9887,-2.8203,-2.6293,-2.4115,-2.2779,-2.2218,0.0,0.0,0.0,0.0,0.0,0.0,0.0,-2.5932,-2.6734,-2.6867,-2.7054,-2.7201,-2.668,-2.644,-2.6386,-2.6386,-2.6386,-2.6426,-2.6653,-2.6921,-2.7175,-2.7175,-2.7575,-2.7963,-2.7495,-2.7522,-2.7669,-2.7495,-2.7402,-2.7428,-2.7722,-2.7575,-2.7402,-2.7562,-2.7201,-2.68,-2.6747,-2.6266,-2.5611,-2.4783,-2.3768,-2.3075,-2.2954,-2.2244,-2.1695,0.0,0.0,-2.1176,0.0,0.0,0.0,-2.0388,0.0,0.0,0.0,0.0,-1.943,-1.943,-1.992,-2.0167,0.0,0.0,-2.2579,-2.2365,0.0,-2.4008,-2.3794,-2.3901,-2.3928,-2.3875,-2.4102,-2.4209,-2.4222,-2.4449,-2.4583,-2.4636,-2.4636,-2.4943,-2.5424,-2.5491,-2.5838,-2.6306,-2.6373,-2.6386,-2.6386,0.0,0.0,0.0,0.0,0.0,-3.2478,-3.2879,-3.4202,-3.511,-3.4963,-3.5204,-3.5297,-3.5057,-3.5364,-3.5498,-3.5257,-3.5204,-3.4963,-3.4402,-3.4336,-3.4055,-3.348,-3.3173,-3.2585,-3.165,-3.0194,-2.831,-2.6077,-2.4449,-2.3048,-2.1695,0.0,0.0,0.0,0.0,0.0,0.0,-2.4743,-2.5625,-2.648,-2.7014,-2.7241,-2.7228,-2.6907,-2.6613,-2.6386,-2.6386,-2.6386,-2.6386,-2.6426,-2.6627,-2.6867,-2.6867,-2.7268,-2.7722,-2.7669,-2.7682,-2.7749,-2.8073,-2.7856,-2.7722,-2.8114,-2.7883,-2.7602,-2.7362,-2.7054,-2.6747,-2.648,-2.5959,-2.5371,-2.4743,-2.4115,-2.35,-2.3021,-2.2352,-2.1857,0.0,0.0,-2.1416,-2.1149,0.0,0.0,-2.0695,-2.0388,0.0,0.0,-1.9533,-1.943,-1.943,-1.992,-2.0167,-2.0167,-2.143,-2.2565,-2.3594,-2.3741,-2.4315,-2.5304,-2.4796,-2.4422,-2.4168,-2.4195,-2.4209,-2.4209,-2.4235,-2.4396,-2.4636,-2.4636,-2.4823,-2.5144,-2.5411,-2.5718,-2.6104,-2.6293,-2.6386,-2.6386,0.0,0.0,0.0,0.0,0.0,0.0,0.0,-3.4817,-3.5191,-3.5191,-3.5297,-3.5324,-3.5204,-3.5297,-3.5257,-3.4963,-3.4937,-3.4683,-3.4095,-3.4055,-3.3868,-3.3427,-3.3133,-3.2572,-3.169,-3.0408,-2.8671,-2.648,-2.5184,-2.3794,-2.2405,-2.2151,0.0,0.0,0.0,-2.346,-2.4356,-2.5411,-2.6172,-2.668,-2.7094,-2.7268,-2.7215,-2.6747,-2.6493,-2.6373,-2.6186,-2.6239,-2.636,-2.6186,-2.644,-2.6827,-2.6827,-2.7108,-2.7468,-2.7642,-2.7696,-2.7762,-2.814,-2.814,-2.7989,-2.8194,-2.7923,-2.7629,-2.7335,-2.7041,-2.6734,-2.6453,-2.5919,-2.5438,-2.5211,-2.4543,-2.3888,-2.3474,-2.2752,0.0,0.0,0.0,0.0,-2.1122,0.0,-2.1122,0.0,-2.0401,0.0,0.0,0.0,-1.9439,-1.9613,-2.0013,-2.0307,-2.0494,0.0,-2.2298,-2.2953,-2.35,-2.4088,-2.473,-2.4663,-2.4569,-2.4462,-2.4462,-2.4462,-2.4462,-2.4462,-2.4529,-2.4636,-2.4636,-2.481,-2.5104,-2.5398,-2.5692,-2.5999,-2.6279,-2.6386,-2.6386,-3.1089,0.0,-3.1263,0.0,-3.3106,-3.34,-3.4963,-3.5191,-3.5191,-3.5191,-3.5191,-3.5191,-3.5191,-3.5191,-3.511,-3.491,-3.4817,-3.4549,-3.4042,-3.3935,-3.3748,-3.3427,-3.3053,0.0,-3.181,-3.0648,-2.9112,-2.7215,-2.6039,-2.4703,-2.3247,-2.2953,0.0,0.0,-2.3607,-2.4155,-2.4957,-2.5959,-2.66,-2.6974,-2.7268,-2.7348,-2.7215,-2.6707,-2.6466,-2.636,-2.6159,-2.6213,-2.636,-2.6146,-2.636,-2.6694,-2.6694,-2.6961,-2.7295,-2.7402,-2.7629,-2.7856,-2.7976,-2.8016,-2.8114,-2.8207,-2.7923,-2.7642,-2.7442,-2.7161,-2.6841,-2.6466,-2.5985,-2.5611,-2.5531,-2.493,-2.4315,-2.3848,-2.3086,0.0,0.0,-2.155,0.0,-2.1122,-2.1189,-2.1096,-2.0708,-2.0494,0.0,0.0,0.0,-1.9706,-1.992,-2.012,-2.0374,0.0,0.0,0.0,-2.2539,-2.3367,-2.4008,-2.4462,-2.4583,-2.4676,-2.4756,-2.4676,-2.4636,-2.4636,-2.4636,-2.4636,-2.4636,-2.4636,-2.4863,-2.5224,-2.5438,-2.5745,-2.6106,-2.6319,-2.6386,-2.6386,-3.1917,-3.2318,-3.2893,-3.4095,-3.4536,-3.483,-3.5151,-3.5191,-3.5191,-3.5191,-3.5191,-3.5191,-3.5191,-3.5191,-3.5191,-3.5191,-3.4923,-3.4629,-3.4336,-3.4042,-3.3748,0.0,0.0,-3.2412,-3.2104,-3.0955,-2.9708,-2.8207,0.0,0.0,-2.4182,0.0,-2.4062,-2.4609,-2.4549,-2.4943,-2.5545,-2.6132,-2.672,-2.7281,-2.7575,-2.7522,-2.7228,-2.6934,-2.664,-2.6386,-2.6386,-2.6386,-2.6386,-2.6386,-2.6386,-2.6386,-2.6386,-2.68,-2.7215,-2.6921,-2.7455,-2.8154,-2.7789,-2.7709,-2.7776,-2.8154,-2.7923,-2.7696,-2.7696,-2.7468,-2.7094,-2.6507,-2.6159,-2.5865,-2.5571,-2.5264,-2.4783,-2.3915,-2.326,0.0,0.0,-2.1802,0.0,-2.1149,-2.1363,-2.1387,-2.0735,-2.0668,0.0,0.0,0.0,0.0,0.0,0.0,0.0,-2.0668,-2.1523,0.0,-2.2914,-2.346,-2.4209,-2.5064,-2.4783,-2.4796,-2.5064,-2.477,-2.4636,-2.4636,-2.4636,-2.4636,-2.4636,-2.4636,-2.4983,-2.5504,-2.5518,-2.5865,-2.6386,-2.6386,-2.6386,-2.6386,-3.2906,-3.3253,-3.3641,-3.4215,-3.4563,-3.479,-3.4883,-3.4897,-3.483,-3.4629,-3.4603,-3.4603,-3.4603,-3.495,-3.495,0.0,-3.4402,-3.4242,0.0,-3.3614,-3.3521,-3.3414,-3.2853,-3.2318,-3.1824,-3.0862,-2.9722,-2.8221,0.0,0.0,0.0,-2.5104,-2.517,-2.5545,-2.5745,-2.6039,-2.644,-2.7028,-2.7388,-2.7549,-2.7442,-2.7348,-2.7215,-2.672,-2.6346,-2.6066,-2.5865,-2.5785,-2.5785,-2.5785,-2.5932,-2.6132,-2.6333,-2.652,-2.6694,-2.6787,-2.7014,-2.7308,-2.7615,-2.7696,-2.7762,-2.8154,-2.8154,-2.7949,-2.7749,-2.7321,-2.6854,-2.6466,-2.6159,-2.5865,-2.5571,-2.5104,-2.4556,-2.3875,-2.3086,-2.2418,-2.2044,0.0,-2.1216,-2.1122,-2.1189,-2.1176,-2.0989,-2.0788,0.0,0.0,0.0,0.0,0.0,0.0,0.0,0.0,-2.1924,0.0,-2.318,-2.3768,-2.4409,-2.5077,-2.4783,-2.4796,-2.5077,-2.4983,-2.4943,-2.493,-2.473,-2.4636,-2.4636,-2.4636,-2.4743,-2.4957,-2.5358,-2.5625,-2.5838,-2.6239,-2.6386,-2.6386,-3.3547,-3.3841,-3.4108,-3.4282,-3.4469,-3.4603,-3.4603,-3.4603,-3.4536,-3.4349,-3.4322,-3.4282,-3.4162,-3.4589,0.0,-3.4095,-3.4108,-3.4002,-3.3614,-3.348,-3.3414,-3.3414,-3.2853,-3.2372,-3.2011,-3.1022,0.0,-2.8804,-2.7949,-2.7161,-2.644,-2.6146,-2.6159,-2.6532,-2.664,-2.6814,-2.7028,-2.7495,-2.7642,-2.7522,-2.7335,-2.7201,-2.7054,-2.6573,-2.6213,-2.601,-2.5745,-2.5678,-2.5678,-2.5678,-2.5879,-2.6146,-2.6333,-2.6386,-2.6426,-2.66,-2.6814,-2.7041,-2.7295,-2.7455,-2.7602,-2.7896,-2.7976,-2.7923,-2.7736,-2.7241,-2.6774,-2.6587,-2.6239,-2.5865,-2.5571,-2.5037,-2.4409,-2.3714,-2.2939,-2.2271,-2.1884,-2.1416,-2.1109,-2.1109,-2.1109,-2.1109,-2.1109,-2.0949,-2.0909,0.0,0.0,0.0,0.0,0.0,-2.1109,-2.1762,-2.2285,-2.2926,-2.3647,-2.4128,-2.4716,-2.5411,-2.5224,-2.517,-2.5237,-2.5237,-2.5237,-2.5224,-2.493,-2.4796,-2.4796,-2.4676,-2.4703,-2.485,-2.5331,-2.5585,-2.5732,-2.6213,-2.6386,-2.6386,-3.3855,-3.4082,-3.4295,-3.4295,-3.4309,-3.4309,-3.4295,-3.4295,-3.4282,-3.4255,-3.4255,-3.4148,-3.3881,-3.4095,-3.4255,-3.4255,0.0,0.0,-3.3855,-3.3574,-3.34,-3.3387,-3.2839,-3.2629,-3.2589,-3.137,-3.0488,-2.986,-2.815,-2.7321,-2.7321,-2.7041,-2.7068,-2.7321,-2.7321,-2.7321,-2.7321,-2.7602,-2.7549,-2.7268,-2.7268,-2.7094,-2.6787,-2.6507,-2.6213,-2.6037,-2.6037,-2.6023,-2.601,-2.6023,-2.6132,-2.636,-2.6386,-2.6386,-2.6386,-2.6386,-2.6774,-2.7148,-2.6894,-2.7041,-2.7335,-2.7629,-2.7709,-2.7722,-2.7709,-2.7255,-2.6854,-2.6827,-2.6373,-2.5892,-2.5571,-2.5037,-2.4269,-2.3474,-2.2806,-2.2191,-2.1695,-2.1296,-2.1109,-2.1109,0.0,0.0,-2.1136,-2.1136,-2.1149,0.0,0.0,0.0,0.0,0.0,-2.1456,-2.2004,-2.2632,-2.3367,-2.4222,-2.4543,-2.5104,-2.601,-2.605,-2.5825,-2.5545,-2.5545,-2.5545,-2.5531,-2.5237,-2.5104,-2.5064,-2.4783,-2.4823,-2.5077,-2.5384,-2.5678,-2.5959,-2.6279,-2.6386,-2.6386,0.0,0.0,-3.3988,-3.3988,-3.4175,-3.4242,-3.4028,-3.3988,-3.3908,-3.3654,-3.3627,-3.3601,-3.3534,-3.3587,-3.3627,-3.3627,-3.3788,-3.3788,-3.3534,-3.3454,-3.332,-3.3093,-3.2732,-3.2332,-3.1891,-3.1169,-3.0287,-2.9245,-2.8364,-2.802,-2.802,-2.7953,-2.7953,-2.802,-2.802,-2.7802,-2.7615,-2.7909,-2.7736,-2.7268,-2.7268,-2.7094,-2.6787,-2.6507,-2.6213,-2.6037,-2.6037,-2.5812,-2.5651,-2.5879,-2.5999,-2.6092,-2.6319,-2.6386,-2.6386,-2.6386,-2.6493,-2.6627,-2.6774,-2.7041,-2.7335,-2.7629,-2.7869,-2.7976,-2.7749,-2.7415,-2.7094,-2.6867,-2.6533,-2.6132,-2.5611,-2.5037,-2.4269,-2.3474,-2.2632,-2.1964,-2.1668,-2.1296,-2.1109,-2.1109,-2.1309,-2.1443,-2.1443,-2.1443,-2.1537,0.0,0.0,-2.1376,-2.1764,-2.1991,-2.2178,-2.2311,-2.334,-2.4088,-2.4529,-2.505,-2.5411,-2.5625,-2.6079,-2.6132,-2.5852,-2.5852,-2.5852,-2.5838,-2.5545,-2.5291,-2.5077,-2.4997,-2.489,-2.4796,-2.5317,-2.5558,-2.5678,-2.6199,-2.6386,-2.6386,-3.3627,-3.3774,-3.3881,-3.3881,-3.3895,-3.3855,-3.3694,-3.3668,-3.3614,-3.3427,-3.3414,-3.3414,-3.3414,-3.3414,-3.3414,-3.3414,-3.3574,-3.3587,-3.3427,-3.3293,-3.3146,-3.2986,-3.2438,-3.1998,-3.1677,-3.0835,-2.9887,-2.8845,-2.8377,-2.8221,-2.8221,-2.8221,-2.8221,-2.8221,-2.8221,-2.814,-2.7909,-2.8154,-2.7883,-2.7455,-2.7321,-2.7094,-2.6787,-2.6507,-2.6213,-2.6037,-2.6037,-2.5852,-2.5745,-2.5905,-2.6039,-2.6186,-2.6333,-2.6386,-2.6386,-2.6386,-2.6386,-2.6426,-2.6587,-2.6934,-2.7362,-2.7802,-2.7816,-2.7762,-2.7883,-2.7362,-2.6894,-2.7001,-2.668,-2.6213,-2.5625,-2.4917,-2.4142,-2.326,-2.2365,-2.1683,-2.139,-2.1216,-2.1203,-2.1483,-2.1657,-2.1923,-2.2191,-2.2031,-2.1964,-2.1977,-2.1817,0.0,-2.1977,-2.2779,-2.318,-2.3033,-2.3928,-2.4676,-2.5237,-2.5692,-2.5919,-2.5919,-2.6239,-2.6306,-2.6159,-2.6159,-2.6159,-2.6132,-2.5838,-2.5625,-2.5464,-2.5184,-2.4983,-2.4877,-2.5331,-2.5438,-2.5398,-2.6119,-2.6306,-2.6213,-3.3814,-3.3814,-3.3814,-3.3814,-3.3587,-3.3414,-3.3414,-3.3414,-3.3414,-3.3414,-3.3414,-3.3414,-3.3414,-3.3414,-3.3414,-3.3414,-3.3374,-3.3347,-3.3347,-3.308,-3.2893,-3.2853,-3.2091,-3.165,-3.1597,-3.0448,-2.9459,-2.8671,-2.8323,-2.8221,-2.8221,-2.8221,-2.8221,-2.8221,-2.8221,-2.8221,-2.8221,-2.8221,-2.7976,-2.7669,-2.7375,-2.7094,-2.6787,-2.6507,-2.6239,-2.6026,-2.6026,-2.6026,-2.6026,-2.6026,-2.6186,-2.6386,-2.6386,-2.6386,-2.6386,-2.6386,-2.6386,-2.6386,-2.6386,-2.6814,-2.7402,-2.8087,-2.7819,-2.7455,-2.8047,-2.7268,-2.6653,-2.7108,-2.68,-2.6266,-2.5625,-2.4836,-2.3955,-2.3088,-2.2231,-2.1496,-2.1162,-2.1149,-2.1376,-2.1924,-2.2111,-2.2405,-2.3008,-2.2806,-2.2592,-2.2338,-2.2472,-2.2485,-2.2325,-2.3514,-2.4155,-2.4035,-2.4556,-2.5224,-2.6012,-2.6266,-2.6386,-2.6386,-2.6386,-2.6386,-2.6386,-2.6386,-2.6386,-2.6373,-2.6132,-2.6077,-2.5996,-2.5424,-2.5184,-2.517,-2.5464,-2.5424,-2.5304,-2.6092,-2.6239,-2.6052,-3.348,-3.348,-3.348,-3.348,-3.344,-3.3414,-3.3414,-3.3414,-3.3414,-3.3414,-3.3414,-3.3414,-3.3414,-3.3414,-3.3414,-3.3414,-3.3187,-3.3053,-3.3053,-3.2772,-3.2505,-3.2251,-3.1877,-3.1557,-3.1303,-3.0154,-2.9366,-2.8965,-2.8417,-2.8221,-2.8221,-2.8221,-2.8221,-2.8221,-2.8221,-2.8221,-2.8221,-2.8221,-2.7976,-2.7669,-2.7375,-2.7094,-2.6787,-2.6507,-2.636,-2.6319,-2.6319,-2.6319,-2.6319,-2.6319,-2.636,-2.6386,-2.6386,-2.6386,-2.6386,-2.6386,-2.6386,-2.6386,-2.6386,-2.6814,-2.7402,-2.8087,-2.7883,-2.7655,-2.7749,-2.7442,-2.7081,-2.6921,-2.6814,-2.6493,-2.5665,-2.4997,-2.4195,-2.3046,-2.2338,-2.1737,-2.1189,0.0,-2.1603,-2.1951,-2.2659,-2.326,-2.3594,-2.3808,-2.3915,-2.3861,-2.3447,-2.338,-2.3834,-2.4075,-2.4529,-2.5224,-2.5571,-2.5932,-2.6319,-2.6373,-2.6386,-2.6386,-2.6386,-2.6386,-2.6386,-2.6386,-2.6386,-2.6386,-2.6346,-2.6186,-2.6023,-2.5929,-2.5678,-2.5478,-2.5772,-2.5865,-2.5865,-2.6253,-2.636,-2.6333,-3.3414,-3.3414,-3.3414,-3.3414,-3.3414,-3.3414,-3.3414,-3.3414,-3.3414,-3.3414,-3.3414,-3.3414,-3.3414,-3.3414,-3.3414,-3.3414,-3.3,-3.2746,-3.2746,-3.2465,-3.2251,-3.2104,-3.1517,-3.0835,-3.006,-2.9513,-2.9018,-2.8551,-2.8283,-2.8221,-2.8221,-2.8221,-2.8221,-2.8221,-2.8221,-2.8221,-2.8221,-2.8221,-2.8154,-2.7909,-2.7615,-2.7321,-2.7028,-2.6734,-2.6533,-2.6386,-2.6386,-2.6386,-2.6386,-2.6386,-2.6386,-2.6386,-2.6386,-2.6386,-2.6386,-2.6386,-2.6507,-2.6653,-2.6814,-2.7175,-2.7602,-2.8127,-2.7923,-2.7736,-2.7896,-2.7589,-2.7268,-2.7295,-2.7041,-2.6653,-2.6092,-2.5117,-2.4275,-2.3888,-2.2659,-2.1817,-2.2031,-2.1897,-2.2071,-2.2859,-2.3447,-2.4035,-2.4649,-2.469,-2.4609,-2.4449,-2.4182,-2.4155,-2.4422,-2.4743,-2.517,-2.5732,-2.6039,-2.6253,-2.6386,-2.6386,-2.6466,-2.6627,-2.6627,-2.6627,-2.6627,-2.6627,-2.6533,-2.6386,-2.6386,-2.6319,-2.6172,-2.6026,-2.5879,-2.5758,-2.5905,-2.5865,-2.5772,-2.6226,-2.6293,-2.6186,-3.3414,-3.3414,-3.3414,-3.3414,-3.3414,-3.3414,-3.3414,-3.3414,-3.3414,-3.3414,-3.3414,-3.3414,-3.3414,-3.3414,-3.3414,-3.3414,-3.2879,-3.2643,-3.2643,-3.2198,-3.1998,-3.1998,-3.1223,-3.0274,-2.9165,-2.9072,-2.8778,-2.8243,-2.8261,-2.8221,-2.8221,-2.8221,-2.8221,-2.8221,-2.8221,-2.8221,-2.8221,-2.8221,-2.8221,-2.8207,-2.7816,-2.7522,-2.7228,-2.6934,-2.664,-2.6386,-2.6386,-2.6386,-2.64,-2.6466,-2.644,-2.6413,-2.6547,-2.6547,-2.6507,-2.6573,-2.68,-2.7081,-2.7308,-2.7522,-2.7762,-2.8154,-2.7923,-2.7762,-2.8073,-2.7696,-2.7415,-2.7562,-2.7295,-2.6894,-2.6466,-2.5411,-2.4569,-2.4449,-2.31,-2.2325,-2.2861,-2.2592,-2.2792,-2.3848,-2.4289,-2.4796,-2.5545,-2.5478,-2.5264,-2.497,-2.4943,-2.4943,-2.4943,-2.5371,-2.5758,-2.6052,-2.6279,-2.6386,-2.6386,-2.6386,-2.6533,-2.6827,-2.6827,-2.6854,-2.6921,-2.6854,-2.6694,-2.6493,-2.6413,-2.6386,-2.6373,-2.6146,-2.6052,-2.6052,-2.6052,-2.5919,-2.5772,-2.6226,-2.6253,-2.6092,-3.3414,-3.3414,-3.3414,-3.3414,-3.3414,-3.3414,-3.3414,-3.3414,-3.3414,-3.3414,-3.3414,-3.3414,-3.3414,-3.3414,-3.3414,-3.3414,-3.2879,-3.2643,-3.2643,-3.2011,-3.1704,-3.1704,-3.1116,-3.0368,-2.9472,-2.9179,-2.8885,-2.8577,-2.8283,-2.8221,-2.8221,-2.8221,-2.8221,-2.8221,-2.8221,-2.8221,-2.8221,-2.8221,-2.8221,-2.8207,-2.7816,-2.7522,-2.7228,-2.6934,-2.664,-2.6386,-2.6386,-2.6386,-2.6426,-2.6694,-2.6613,-2.648,-2.7028,-2.7014,-2.6841,-2.7121,-2.7402,-2.7642,-2.7655,-2.7682,-2.7762,-2.8154,-2.7923,-2.7709,-2.7722,-2.7696,-2.7602,-2.7348,-2.7482,-2.7375,-2.6547,-2.6079,-2.5474,-2.4048,0.0,0.0,-2.2995,-2.3313,-2.3875,-2.4502,-2.5077,-2.5545,-2.597,-2.6146,-2.6172,-2.5879,-2.5929,-2.5929,-2.5929,-2.5905,-2.6052,-2.6346,-2.6373,-2.6386,-2.6386,-2.6386,-2.6533,-2.6827,-2.6827,-2.6961,-2.7228,-2.6947,-2.6814,-2.6774,-2.6507,-2.6386,-2.6386,-2.6373,-2.636,-2.636,-2.636,-2.6346,-2.6333,-2.6373,-2.6373,-2.636,-3.3414,-3.3414,-3.3414,-3.3414,-3.3414,-3.3414,-3.3414,-3.3414,-3.3414,-3.3414,-3.3414,-3.3414,-3.3414,-3.3414,-3.3414,-3.3414,-3.2879,-3.2643,-3.2643,-3.1824,-3.1316,-3.1129,-3.0742,-3.0114,-2.9232,-2.9098,-2.8804,-2.8323,-2.8288,-2.8221,-2.8221,-2.8221,-2.8221,-2.8221,-2.8221,-2.8221,-2.8221,-2.8221,-2.8221,-2.8221,-2.8016,-2.7802,-2.7522,-2.7402,-2.7068,-2.6653,-2.6653,-2.6547,-2.6426,-2.672,-2.6627,-2.6493,-2.7081,-2.7068,-2.6921,-2.7388,-2.7615,-2.7736,-2.7923,-2.7976,-2.8003,-2.8194,-2.814,-2.7976,-2.7976,-2.7976,-2.7949,-2.7913,-2.7749,-2.7602,-2.7268,-2.6667,-2.6106,-2.5718,0.0,-2.4356,-2.4489,-2.4556,-2.4796,-2.5384,-2.5812,-2.6172,-2.6466,-2.6426,-2.6413,-2.6493,-2.6493,-2.6573,-2.676,-2.66,-2.6466,-2.6386,-2.656,-2.6573,-2.6386,-2.656,-2.68,-2.7094,-2.7281,-2.7428,-2.7522,-2.7228,-2.7001,-2.6814,-2.652,-2.6386,-2.6386,-2.6386,-2.6386,-2.6386,-2.6386,-2.6386,-2.6386,-2.6386,-2.6386,-2.6386,-3.3414,-3.3414,-3.3414,-3.3414,-3.3414,-3.3414,-3.3414,-3.3414,-3.3414,-3.3414,-3.3414,-3.3414,-3.3414,-3.3414,-3.3374,-3.328,-3.2826,-3.2603,-3.2412,-3.1583,-3.0955,-3.0675,-3.0461,-2.9993,-2.9192,-2.9179,-2.8885,-2.8283,-2.8283,-2.8243,-2.8221,-2.8221,-2.8221,-2.8221,-2.8221,-2.8221,-2.8221,-2.8221,-2.8221,-2.8221,-2.8221,-2.7963,-2.7696,-2.7696,-2.7388,-2.6961,-2.6961,-2.6827,-2.6707,-2.7001,-2.6907,-2.676,-2.7362,-2.7402,-2.7321,-2.7722,-2.7843,-2.7883,-2.8167,-2.8221,-2.8221,-2.8221,-2.8221,-2.8221,-2.8221,-2.8221,-2.8221,-2.8221,-2.7976,-2.7802,-2.7722,-2.7201,-2.6774,-2.6694,-2.5919,-2.5438,-2.5745,-2.5692,-2.5772,-2.6186,-2.64,-2.66,-2.68,-2.664,-2.664,-2.6947,-2.6961,-2.7054,-2.7255,-2.7068,-2.6867,-2.6667,-2.6854,-2.6867,-2.6667,-2.6867,-2.7108,-2.7402,-2.7602,-2.7749,-2.7829,-2.7535,-2.7241,-2.6947,-2.6653,-2.6466,-2.6386,-2.6386,-2.6386,-2.6386,-2.6386,-2.6386,-2.6386,-2.6386,-2.6386,-2.6386,-3.3414,-3.3414,-3.3414,-3.3414,-3.3414,-3.3414,-3.3414,-3.3414,-3.3414,-3.3414,-3.3414,-3.3414,-3.3414,-3.3414,-3.3293,-3.3,-3.2706,-3.2412,-3.2118,-3.1276,-3.0662,-3.0381,-3.0354,-3.0087,-2.9499,-2.9486,-2.9192,-2.8604,-2.8604,-2.8444,-2.8234,-2.8221,-2.8221,-2.8221,-2.8221,-2.8221,-2.8221,-2.8221,-2.8221,-2.8221,-2.8221,-2.7963,-2.7696,-2.7696,-2.7522,-2.7268,-2.7268,-2.7268,-2.7308,-2.7602,-2.7509,-2.7362,-2.8047,-2.8221,-2.8221,-2.8221,-2.8221,-2.8221,-2.8221,-2.8221,-2.8221,-2.8221,-2.8221,-2.8221,-2.8221,-2.8221,-2.8221,-2.8221,-2.8221,-2.814,-2.7762,-2.7696,-2.7415,-2.6547,-2.664,-2.6734,-2.644,-2.664,-2.6827,-2.6827,-2.6827,-2.6827,-2.6827,-2.6827,-2.6947,-2.7241,-2.7268,-2.7268,-2.7268,-2.7268,-2.7268,-2.7268,-2.7268,-2.7268,-2.7268,-2.7268,-2.7415,-2.7696,-2.7696,-2.7856,-2.8221,-2.7829,-2.7535,-2.7255,-2.6947,-2.6653,-2.6386,-2.6386,-2.6386,-2.6386,-2.6386,-2.6386,-2.6386,-2.6386,-2.6386,-2.6386,-3.3374,-3.3414,-3.3414,-3.3414,-3.3414,-3.3414,-3.3414,-3.3414,-3.3414,-3.3414,-3.3414,-3.3334,-3.3133,-3.3106,-3.2986,-3.2706,-3.2398,-3.2024,-3.1517,-3.1236,-3.0969,-3.0675,-3.0274,-2.9873,-2.9486,-2.9486,-2.9299,-2.8911,-2.8711,-2.8564,-2.847,-2.8328,-2.8221,-2.8221,-2.8221,-2.8221,-2.8221,-2.8221,-2.8221,-2.8221,-2.8221,-2.8181,-2.8003,-2.8003,-2.7829,-2.7562,-2.7562,-2.7442,-2.7308,-2.7602,-2.7509,-2.7335,-2.7709,-2.7976,-2.8221,-2.8221,-2.8221,-2.8221,-2.8221,-2.8221,-2.8221,-2.8221,-2.8221,-2.8221,-2.8221,-2.8221,-2.8221,-2.8221,-2.8221,-2.8207,-2.8114,-2.8003,-2.7856,-2.7388,-2.7375,-2.7335,-2.7041,-2.7255,-2.7362,-2.7161,-2.7308,-2.7281,-2.6867,-2.7014,-2.7175,-2.7255,-2.7655,-2.7789,-2.7575,-2.7562,-2.7468,-2.7268,-2.7468,-2.7562,-2.7562,-2.7562,-2.7615,-2.7696,-2.7909,-2.814,-2.8221,-2.7829,-2.7655,-2.7549,-2.7041,-2.6774,-2.668,-2.6466,-2.6386,-2.6386,-2.6386,-2.6386,-2.6386,-2.6386,-2.6386,-2.6386,-3.3334,-3.332,-3.328,-3.3387,-3.3414,-3.3414,-3.3414,-3.3414,-3.3414,-3.3414,-3.3414,-3.3293,-3.3013,-3.2973,-3.2812,-3.2412,-3.2104,-3.173,-3.1249,-3.1223,-3.1089,-3.0808,-3.0341,-3.0007,-2.9833,-2.9713,-2.9513,-2.9219,-2.8925,-2.8724,-2.8604,-2.8283,-2.8221,-2.8221,-2.8221,-2.8221,-2.8221,-2.8221,-2.8221,-2.8221,-2.8221,-2.8221,-2.8221,-2.8221,-2.803,-2.7869,-2.7869,-2.7762,-2.7725,-2.7816,-2.7762,-2.7642,-2.7816,-2.8003,-2.8221,-2.8221,-2.8221,-2.8221,-2.8221,-2.8221,-2.8221,-2.8221,-2.8221,-2.8221,-2.8221,-2.8221,-2.8221,-2.8221,-2.8221,-2.8221,-2.8221,-2.8221,-2.8167,-2.7896,-2.7869,-2.7816,-2.7725,-2.7762,-2.7762,-2.7468,-2.7589,-2.7562,-2.7201,-2.7335,-2.7482,-2.7685,-2.802,-2.8154,-2.7883,-2.7869,-2.7789,-2.7698,-2.7776,-2.7869,-2.7869,-2.7869,-2.7869,-2.7883,-2.814,-2.8221,-2.8221,-2.7963,-2.7816,-2.7669,-2.7201,-2.7001,-2.6961,-2.656,-2.6453,-2.6547,-2.6426,-2.6386,-2.6386,-2.6386,-2.6386,-2.6386,-3.3253,-3.316,-3.3066,-3.336,-3.3414,-3.3414,-3.3414,-3.3414,-3.3414,-3.3414,-3.3387,-3.3267,-3.3013,-3.2933,-3.2692,-3.2144,-3.1837,-3.1557,-3.1289,-3.1263,-3.1142,-3.0889,-3.0595,-3.0434,-3.0434,-3.01,-2.978,-2.9526,-2.9205,-2.8911,-2.8644,-2.8297,-2.8221,-2.8221,-2.8221,-2.8221,-2.8221,-2.8221,-2.8221,-2.8221,-2.8221,-2.8221,-2.8221,-2.8221,-2.8221,-2.8221,-2.8221,-2.8221,-2.8221,-2.8221,-2.8221,-2.8221,-2.8221,-2.8221,-2.8221,-2.8221,-2.8221,-2.8221,-2.8221,-2.8221,-2.8221,-2.8221,-2.8221,-2.8221,-2.8221,-2.8221,-2.8221,-2.8221,-2.8221,-2.8221,-2.8221,-2.8221,-2.8221,-2.8221,-2.8221,-2.8221,-2.8221,-2.8221,-2.8114,-2.7736,-2.7722,-2.7722,-2.7669,-2.7682,-2.7816,-2.8207,-2.8221,-2.8221,-2.8221,-2.8221,-2.8221,-2.8221,-2.8221,-2.8221,-2.8221,-2.8221,-2.8221,-2.8221,-2.8221,-2.8221,-2.8221,-2.8221,-2.7989,-2.7722,-2.7402,-2.7281,-2.7255,-2.6667,-2.6587,-2.68,-2.6533,-2.6413,-2.6386,-2.6386,-2.6386,-2.6386,-3.2551,-3.3026,-3.3066,-3.336,-3.3414,-3.3414,-3.3414,-3.3414,-3.3414,-3.3414,-3.3213,-3.3053,-3.2986,-3.2572,-3.2238,-3.2118,-3.1837,-3.1637,-3.1583,-3.157,-3.1543,-3.149,-3.1196,-3.1036,-3.1036,-3.0301,-2.9887,-2.982,-2.9299,-2.9005,-2.8938,-2.839,-2.8221,-2.8221,-2.8221,-2.8221,-2.8221,-2.8221,-2.8221,-2.8221,-2.8221,-2.8221,-2.8221,-2.8221,-2.8221,-2.8221,-2.8221,-2.8221,-2.8221,-2.8221,-2.8221,-2.8221,-2.8221,-2.8221,-2.8221,-2.8221,-2.8221,-2.8221,-2.8221,-2.8221,-2.8221,-2.8221,-2.8221,-2.8221,-2.8221,-2.8221,-2.8221,-2.8221,-2.8221,-2.8221,-2.8221,-2.8221,-2.8221,-2.8221,-2.8221,-2.8221,-2.8221,-2.8221,-2.8114,-2.7736,-2.7909,-2.7953,-2.7402,-2.7562,-2.7816,-2.8207,-2.8221,-2.8221,-2.8221,-2.8221,-2.8221,-2.8221,-2.8221,-2.8221,-2.8221,-2.8221,-2.8221,-2.8221,-2.8221,-2.8221,-2.8221,-2.8221,-2.8194,-2.81,-2.7495,-2.7402,-2.7562,-2.6974,-2.676,-2.6814,-2.6747,-2.6587,-2.6386,-2.6386,-2.6386,-2.6386,-2.8737,-2.8935,-2.9366,-3.1089,-3.1251,-3.1662,-3.316,-3.3293,-3.3253,-3.3387,-3.328,-3.3133,-3.2986,-3.2585,-3.2198,-3.1917,-3.1757,-3.1664,-3.1664,-3.1664,-3.1664,-3.1664,-3.1383,-3.1223,-3.1223,-3.0501,-3.0127,-3.0127,-2.9392,-2.9045,-2.9032,-2.8417,-2.8221,-2.8221,-2.8221,-2.8221,-2.8221,-2.8221,-2.8221,-2.8221,-2.8221,-2.8221,-2.8221,-2.8221,-2.8221,-2.8221,-2.8221,-2.8221,-2.8221,-2.8221,-2.8221,-2.8221,-2.8221,-2.8221,-2.8221,-2.8221,-2.8221,-2.8221,-2.8221,-2.8221,-2.8221,-2.8221,-2.8221,-2.8221,-2.8221,-2.8221,-2.8221,-2.8221,-2.8221,-2.8221,-2.8221,-2.8221,-2.8221,-2.8221,-2.8221,-2.8221,-2.8221,-2.8221,-2.8167,-2.7923,-2.8127,-2.81,-2.7792,-2.7829,-2.7976,-2.8221,-2.8221,-2.8221,-2.8221,-2.8221,-2.8221,-2.8221,-2.8221,-2.8221,-2.8221,-2.8221,-2.8221,-2.8221,-2.8221,-2.8221,-2.8221,-2.8221,-2.8154,-2.7909,-2.7602,-2.7562,-2.7669,-2.7215,-2.7028,-2.7014,-2.6881,-2.664,-2.6386,-2.6386,-2.6386,-2.6386,-2.4495,-2.4533,-2.5127,-2.787,-2.8176,-2.8883,-3.1552,-3.1775,-3.1849,-3.2581,-3.262,-3.2755,-3.308,-3.2746,-3.2402,-3.1717,-3.1664,-3.1664,-3.1664,-3.1664,-3.1664,-3.1664,-3.1436,-3.1303,-3.1303,-3.0728,-3.0408,-3.0354,-2.9526,-2.9085,-2.9032,-2.8484,-2.8274,-2.8221,-2.8221,-2.8221,-2.8221,-2.8221,-2.8221,-2.8221,-2.8221,-2.8221,-2.8221,-2.8221,-2.8221,-2.8221,-2.8221,-2.8221,-2.8221,-2.8221,-2.8221,-2.8221,-2.8221,-2.8221,-2.8221,-2.8221,-2.8221,-2.8221,-2.8221,-2.8221,-2.8221,-2.8221,-2.8221,-2.8221,-2.8221,-2.8221,-2.8221,-2.8221,-2.8221,-2.8221,-2.8221,-2.8221,-2.8221,-2.8221,-2.8221,-2.8221,-2.8221,-2.8221,-2.8221,-2.8221,-2.8221,-2.8221,-2.8221,-2.8221,-2.8221,-2.8221,-2.8221,-2.8221,-2.8221,-2.8221,-2.8221,-2.8221,-2.8221,-2.8221,-2.8221,-2.8221,-2.8221,-2.8221,-2.8221,-2.8221,-2.8221,-2.8221,-2.8003,-2.7776,-2.7722,-2.7722,-2.7749,-2.7402,-2.7268,-2.7241,-2.6934,-2.664,-2.6386,-2.6386,-2.6386,-2.6386,-2.3898,-2.4322,-2.4482,-2.5236,-2.5356,-2.5456,-2.5918,-2.6078,-2.6912,-2.9379,-2.9579,-3.0464,-3.302,-3.2866,-3.2402,-3.1717,-3.1664,-3.1664,-3.1664,-3.1664,-3.1664,-3.1664,-3.1637,-3.161,-3.161,-3.1036,-3.0608,-3.0354,-2.9726,-2.9285,-2.9032,-2.8698,-2.8404,-2.8221,-2.8221,-2.8221,-2.8221,-2.8221,-2.8221,-2.8221,-2.8221,-2.8221,-2.8221,-2.8221,-2.8221,-2.8221,-2.8221,-2.8221,-2.8221,-2.8221,-2.8221,-2.8221,-2.8221,-2.8221,-2.8221,-2.8221,-2.8221,-2.8221,-2.8221,-2.8221,-2.8221,-2.8221,-2.8221,-2.8221,-2.8221,-2.8221,-2.8221,-2.8221,-2.8221,-2.8221,-2.8221,-2.8221,-2.8221,-2.8221,-2.8221,-2.8221,-2.8221,-2.8221,-2.8221,-2.8221,-2.8221,-2.8221,-2.8221,-2.8221,-2.8221,-2.8221,-2.8221,-2.8221,-2.8221,-2.8221,-2.8221,-2.8221,-2.8221,-2.8221,-2.8221,-2.8221,-2.8221,-2.8221,-2.8221,-2.8221,-2.8221,-2.8221,-2.8207,-2.8154,-2.7816,-2.7843,-2.8127,-2.7495,-2.7268,-2.7241,-2.6934,-2.664,-2.6386,-2.6386,-2.6386,-2.6386,-1.9503,-1.9718,-2.0264,-2.204,-2.2174,-2.2708,-2.4669,-2.48,-2.5284,-2.6761,-2.6895,-2.7953,-3.0836,-3.1991,-3.2372,-3.1944,-3.1757,-3.1664,-3.1664,-3.1664,-3.1664,-3.1664,-3.1664,-3.1597,-3.1423,-3.1009,-3.0648,-3.0354,-2.9606,-2.9165,-2.9032,-2.8564,-2.827,-2.8221,-2.8221,-2.8221,-2.8221,-2.8221,-2.8221,-2.8221,-2.8221,-2.8221,-2.8221,-2.8221,-2.8221,-2.8221,-2.8221,-2.8221,-2.8221,-2.8221,-2.8221,-2.8221,-2.8221,-2.8221,-2.8221,-2.8221,-2.8221,-2.8221,-2.8221,-2.8221,-2.8221,-2.8221,-2.8221,-2.8221,-2.8221,-2.8221,-2.8221,-2.8221,-2.8221,-2.8221,-2.8221,-2.8221,-2.8221,-2.8221,-2.8221,-2.8221,-2.8221,-2.8221,-2.8221,-2.8221,-2.8221,-2.8221,-2.8221,-2.8221,-2.8221,-2.8221,-2.8221,-2.8221,-2.8221,-2.8221,-2.8221,-2.8221,-2.8221,-2.8221,-2.8221,-2.8221,-2.8221,-2.8221,-2.8221,-2.8221,-2.8221,-2.8221,-2.814,-2.7896,-2.7936,-2.7829,-2.7725,-2.7549,-2.7308,-2.7001,-2.6867,-2.664,-2.6386,-2.6386,-2.6386,-2.6386]}]]